     2.11           OBSERVATION DATA    G (GPS)             RINEX VERSION / TYPE
teqc 2010Oct21 OPUS Account 20111025 17:32:22UTC            PGM / RUN BY / DATE
C 1521                                                      MARKER NAME
1113                                                        MARKER NUMBER
CSMIDDLETON NGS                                             OBSERVER / AGENCY
4624K01583 TRIMBLE NETR5 4.41                               REC # / TYPE / VERS
60154430 TRM41249.00 NONE                                   ANT # / TYPE
  -740148.4197 -5463401.1666  3196378.0351                  APPROX POSITION XYZ
        2.0000        0.0000        0.0000                  ANTENNA: DELTA H/E/N
     1     1                                                WAVELENGTH FACT L1/2
     5    L1    L2    C1    P1    P2                        # / TYPES OF OBSERV
    15                                                      LEAP SECONDS
  2011     7    25     0     0    0.0000000     GPS         TIME OF FIRST OBS
                                                            END OF HEADER
 11  7 25  0  0  0.0000000  0  8G04G20G27G09G02G28G17G10
 105259142.98048  82020130.30246  20030119.1804                   20030127.2234
 126455691.18647  98536803.95443  24063674.8834                   24063682.8054
 118201528.36947  92105255.22245  22493029.6094                   22493038.2464
 117406375.47947  91485541.93144  22341689.2584                   22341697.6134
 119544958.89347  93151947.73145  22748622.0944                   22748629.4344
 113523403.16948  88459745.89345  21602752.9844                   21602760.1844
 111538291.773 8                  21225016.156
 126332414.22615                  24040262.016
 11  7 25  0  0 30.0000000  0  8G04G20G27G09G02G28G17G10
 105229252.43448  81996838.97946  20024431.1884                   20024439.5824
 126477049.37447  98553446.73443  24067739.7664                   24067748.3404
 118178916.67847  92087635.68945  22488727.0164                   22488735.8244
 117363235.56547  91451926.42844  22333479.5394                   22333488.4614
 119458001.69347  93084188.95845  22732074.7974                   22732080.9844
 113565120.27448  88492252.71545  21610691.4384                   21610698.3594
 111566955.758 8                  21230470.797
 126238276.76015                  24022348.961
 11  7 25  0  1  0.0000000  0  8G04G20G27G09G02G28G17G10
 105199933.85048  81973993.34646  20018852.1024                   20018859.6484
 126498912.40646  98570482.87443  24071899.2344                   24071908.0204
 118156792.41747  92070396.00845  22484517.2194                   22484525.4494
 117320706.01247  91418786.51744  22325386.5944                   22325395.0354
 119371296.17447  93016626.28845  22715574.8594                   22715581.7424
 113607203.19448  88525044.56045  21618699.2664                   21618706.9734
 111595728.739 8                  21235945.945
 126144103.704 5                  24004427.133
 11  7 25  0  1 30.0000000  0  8G04G20G27G09G02G28G17G10
 105171187.38748  81951593.50946  20013381.8984                   20013389.5904
 126521280.34247  98587912.47143  24076155.7114                   24076165.4384
 118135155.81047  92053536.30645  22480399.0704                   22480408.1294
 117278788.17847  91386123.29645  22317409.9924                   22317418.5634
 119284843.98447  92949261.01845  22699123.7664                   22699130.7704
 113649652.27048  88558121.71645  21626777.5864                   21626784.2664
 111624610.108 8                  21241441.766
 126049897.652 5                  23986499.055
 11  7 25  0  2  0.0000000  0  8G04G20G27G09G02G28G17G10
 105143013.59448  81929639.91046  20008020.3914                   20008028.5514
 126544152.91346  98605735.29643  24080508.5864                   24080517.8674
 118114007.61547  92037057.20345  22476374.6024                   22476382.9024
 117237483.20547  91353937.60445  22309550.1804                   22309558.7734
 119198646.88747  92882094.52245  22682720.7974                   22682727.2384
 113692468.19848  88591484.76245  21634925.1334                   21634931.9264
 111653599.466 7                  21246958.273
 125955661.958 5                  23968567.352
 11  7 25  0  2 30.0000000  0  8G04G20G27G09G02G28G17G10
 105115412.68148  81908132.73646  20002768.1174                   20002775.9844
 126567530.04547  98623951.26443  24084956.9774                   24084965.9104
 118093348.20647  92020958.96245  22472444.0944                   22472452.4384
 117196792.66247  91322230.73344  22301806.7344                   22301815.2734
 119112706.39047  92815127.96245  22666366.2034                   22666373.4344
 113735651.04648  88625133.71545  21643142.8524                   21643149.4844
 111682696.020 8                  21252495.180
 125861399.47246  98073862.23452  23950630.0234                   23950639.6174
 11  7 25  0  3  0.0000000  0  8G04G20G27G09G02G28G17G10
 105088384.38048  81887071.73546  19997624.5864                   19997632.9654
 126591411.26146  98642559.99343  24089500.2734                   24089509.7424
 118073177.27747  92005241.36445  22468604.7274                   22468614.0354
 117156717.21147  91291003.11845  22294180.9454                   22294189.1994
 119027023.34247  92748362.02845  22650061.3914                   22650068.7504
 113779200.94648  88659068.67145  21651429.8364                   21651436.6684
 111711898.535 8                  21258052.391
 125767112.37845  98000391.88442  23932686.2734                   23932697.6334
 11  7 25  0  3 30.0000000  0  8G04G20G27G09G02G28G17G10
 105061929.94648  81866457.91446  19992590.8674                   19992598.5084
 126615796.96546  98661561.84243  24094140.6804                   24094150.9614
 118053496.13747  91989905.44845  22464860.1414                   22464868.2664
 117117258.69047  91260256.27745  22286671.6414                   22286680.8874
 118941600.21847  92681798.64545  22633806.4064                   22633813.0204
 113823118.46748  88693290.09745  21659786.8674                   21659793.8714
 111741207.578 8                  21263629.648
 125672804.60446  97926905.52942  23914740.7734                   23914751.8324
 11  7 25  0  4  0.0000000  0  8G04G20G27G09G02G28G17G10
 105036048.59348  81846290.64746  19987665.4774                   19987673.5664
 126640686.49246  98680956.26043  24098877.6484                   24098887.2624
 118034304.60148  91974951.01645  22461208.3524                   22461216.3364
 117078417.70947  91229990.59945  22279280.8364                   22279289.6054
 118856437.86647  92615438.45245  22617600.4694                   22617607.4454
 113867403.47848  88727797.87545  21668214.0864                   21668221.7114
 111770621.934 8                  21269226.734
 125578478.43746  97853404.86543  23896790.9694                   23896802.0394
 11  7 25  0  4 30.0000000  0  8G04G20G27G09G02G28G17G10
 105010740.70448  81826570.24146  19982849.3984                   19982857.6724
 126666079.71946  98700743.16343  24103710.4924                   24103718.9414
 118015603.12547  91960378.45745  22457649.1954                   22457657.4534
 117040195.48547  91200207.09945  22272006.9844                   22272015.6214
 118771537.98047  92549282.75245  22601444.3364                   22601451.0234
 113912056.34548  88762592.28945  21676711.5234                   21676718.9924
 111800141.148 8                  21274844.617
 125484137.05446  97779892.24943  23878838.9844                   23878848.1214
 11  7 25  0  5  0.0000000  0  8G04G20G27G09G02G28G17G10
 104986006.89748  81807297.17146  19978142.8054                   19978150.8984
 126691976.61946  98720922.58143  24108638.6174                   24108647.3714
 117997392.11447  91946188.08645  22454183.8914                   22454192.0944
 117002593.59547  91170906.98545  22264851.8364                   22264860.3244
 118686902.24447  92483332.91345  22585337.9924                   22585345.5704
 113957077.78347  88797673.89345  21685278.5784                   21685285.9414
 111829764.983 8                  21280481.594
 125389783.66546  97706370.28043  23860882.4304                   23860893.3674
 11  7 25  0  5 30.0000000  0  8G04G20G27G09G02G28G17G10
 104961847.15848  81788471.41946  19973545.4844                   19973553.1524
 126718376.90646  98741494.26643  24113662.8834                   24113670.7384
 117979671.84947  91932380.10745  22450812.0944                   22450820.3244
 116965613.09247  91142091.02744  22257814.4144                   22257823.1994
 118602532.15947  92417590.08445  22569282.9144                   22569290.4344
 114002467.63248  88833042.59445  21693916.1094                   21693922.9884
 111859492.887 8                  21286138.336
 125295421.10746  97632841.18843  23842926.7114                   23842936.7854
 11  7 25  0  6  0.0000000  0  8G04G20G27G09G02G28G17G10
 104938261.97948  81770093.38446  19969057.3984                   19969065.3054
 126745280.40346  98762458.04143  24118782.0944                   24118790.1414
 117962442.74347  91918954.87245  22447533.0474                   22447541.4774
 116929255.34247  91113760.36345  22250896.2584                   22250904.4344
 118518429.61847  92352055.69445  22553278.7504                   22553285.8524
 114048226.82848  88868699.10545  21702624.0474                   21702631.1684
 111889324.660 8                  21291815.211
 125201052.54246  97559307.41543  23824968.4924                   23824979.2974
 11  7 25  0  6 30.0000000  0  8G04G20G27G09G02G28G17G10
 104915251.14648  81752162.88746  19964678.5554                   19964686.9024
 126772686.80746  98783813.64043  24123996.8984                   24124005.8714
 117945704.91047  91905912.40445  22444348.4384                   22444356.3914
 116893520.97847  91085915.43345  22244096.0634                   22244104.5434
 118434595.63947  92286730.59445  22537325.5394                   22537333.2074
 114094355.13748  88904643.22145  21711401.7734                   21711409.1884
 111919259.525 8                  21297512.047
 125106680.87746  97485771.22343  23807009.6414                   23807020.4384
 11  7 25  0  7  0.0000000  0  8G04G20G27G09G02G28G17G10
 104892814.68148  81734679.95246  19960409.1334                   19960416.7034
 126800595.72846  98805560.90043  24129308.2894                   24129316.3284
 117929458.62047  91893252.99645  22441256.5474                   22441264.6844
 116858410.99147  91058557.04045  22237414.6724                   22237422.6604
 118351031.93748  92221616.09445  22521424.6414                   22521431.6054
 114140853.02148  88940875.31445  21720249.7814                   21720257.0354
 111949297.010 8                  21303227.648
 125012309.14347  97412235.00044  23789052.2274                   23789062.3754
 11  7 25  0  7 30.0000000  0  8G04G20G27G09G02G28G17G10
 104870952.74848  81717644.70346  19956249.0164                   19956257.1094
 126829006.82546  98827699.39443  24134714.6484                   24134722.7234
 117913704.06847  91880976.72745  22438258.9144                   22438266.6024
 116823926.63947  91031686.13045  22230851.8134                   22230860.7464
 118267739.89648  92156713.29245  22505574.6724                   22505581.7034
 114187720.48047  88977395.37945  21729168.1024                   21729175.7624
 111979436.551 8                  21308963.016
 124917940.48347  97338701.15644  23771094.0554                   23771104.7074
 11  7 25  0  8  0.0000000  0  8G04G20G27G09G02G28G17G10
 104849664.90048  81701056.78846  19952198.1024                   19952205.9534
 126857919.58546  98850228.80143  24140217.2194                   24140224.7154
 117898441.19947  91869083.60245  22435354.2034                   22435362.2034
 116790068.46647  91005303.15745  22224410.0084                   22224417.9494
 118184720.58447  92092022.97545  22489776.3134                   22489782.8954
 114234957.60547  89014203.49445  21738157.3594                   21738164.6174
 112009677.418 8                  21314717.773
 124823577.63646  97265171.79744  23753137.6564                   23753147.7074
 11  7 25  0  8 30.0000000  0  8G04G20G27G09G02G28G17G10
 104828951.84948  81684916.76846  19948256.2194                   19948264.1844
 126887334.18446  98873149.29743  24145813.1564                   24145821.8284
 117883670.63647  91857574.08445  22432543.2344                   22432551.5274
 116756837.91347  90979409.21345  22218086.0554                   22218094.3164
 118101975.90847  92027546.68645  22474030.3134                   22474037.3164
 114282564.82447  89051299.97345  21747216.9774                   21747224.2304
 112040019.724 8                  21320491.625
 124729223.93046  97191649.60843  23735182.0704                   23735192.3954
 11  7 25  0  9  0.0000000  0  8G04G20G27G09G02G28G17G10
 104808813.38548  81669224.46546  19944424.4924                   19944431.9924
 126917249.80446  98896460.18943  24151507.6414                   24151514.7384
 117869392.45147  91846448.22845  22429825.8754                   22429834.5704
 116724235.83947  90954005.00045  22211882.1644                   22211890.4304
 118019507.50947  91963285.66445  22458337.7194                   22458344.3094
 114330542.32748  89088685.01145  21756347.1644                   21756353.8594
 112070462.734 7                  21326284.945
 124634882.29246  97118136.76243  23717228.6564                   23717239.6724
 11  7 25  0  9 30.0000000  0  8G04G20G27G09G02G28G17G10
 104789249.62648  81653979.99746  19940701.3834                   19940708.9884
 126947666.29046  98920161.44643  24157294.6334                   24157303.5044
 117855607.02547  91835706.31745  22427203.0394                   22427211.5984
 116692263.30247  90929091.35344  22205797.6954                   22205806.2154
 117937316.80347  91899241.05945  22442696.6884                   22442703.0394
 114378890.37548  89126358.78345  21765547.2274                   21765554.7974
 112101006.455 8                  21332097.141
 124540555.64946  97044635.57443  23699278.6884                   23699289.0864
 11  7 25  0 10  0.0000000  0  8G04G20G27G09G02G28G17G10
 104770260.11448  81639182.99346  19937087.6094                   19937094.9654
 126978582.73946  98944252.16142  24163177.5634                   24163186.6174
 117842314.16847  91825348.23545  22424673.6094                   22424681.4024
 116660921.15347  90904668.89445  22199833.6484                   22199842.0904
 117855405.07647  91835413.79245  22427110.0394                   22427116.5004
 114427608.51747  89164320.95345  21774817.8834                   21774825.2734
 112131650.097 8                  21337928.750
 124446247.27546  96971148.67843  23681332.8834                   23681342.8554
 11  7 25  0 10 30.0000000  0  8G04G20G27G09G02G28G17G10
 104751845.08548  81624833.63846  19933583.3364                   19933591.2074
 127009999.12846  98968732.42142  24169155.3204                   24169164.8204
 117829514.02747  91815374.07045  22422237.9614                   22422245.9414
 116630210.06447  90880738.16745  22193989.4614                   22193997.5784
 117773773.66347  91771804.98645  22411574.8444                   22411581.9384
 114476697.52747  89202572.08345  21784159.3674                   21784166.2154
 112162392.914 8                  21343778.633
 124351960.54946  96897678.63843  23663390.6804                   23663401.0434
 11  7 25  0 11  0.0000000  0  8G04G20G27G09G02G28G17G10
 104734004.28248  81610931.71846  19930188.3914                   19930196.0824
 127041915.02646  98993601.92043  24175229.1724                   24175238.2114
 117817206.59147  91805783.86045  22419895.9144                   22419903.7034
 116600130.85647  90857299.82744  22188265.7504                   22188274.0784
 117692424.11648  91708415.81145  22396095.2504                   22396101.6454
 114526157.15648  89241112.02845  21793570.8524                   21793578.4884
 112193234.950 8                  21349647.883
 124257698.13846  96824227.57743  23645453.1804                   23645463.3874
 11  7 25  0 11 30.0000000  0  8G04G20G27G09G02G28G17G10
 104716737.77548  81597477.30746  19926902.5944                   19926910.5314
 127074329.70146  99018860.10143  24181398.2734                   24181407.3284
 117805392.11947  91796577.74345  22417647.3984                   22417655.5824
 116570684.21247  90834354.38845  22182662.0634                   22182669.9494
 117611357.88647  91645247.39845  22380668.7664                   22380675.3444
 114575987.63447  89279940.92445  21803053.7034                   21803060.7854
 112224175.846 8                  21355535.367
 124163463.47046  96750798.13643  23627520.2344                   23627531.3714
 11  7 25  0 12  0.0000000  0  8G04G20G27G09G02G28G17G10
 104700045.22348  81584470.13246  19923726.1414                   19923734.0514
 127107242.75946  99044506.64842  24187661.0084                   24187669.8324
 117794070.57447  91787755.75745  22415493.5314                   22415501.1764
 116541871.11847  90811902.64645  22177179.0004                   22177187.8714
 117530576.13447  91582300.64445  22365296.2974                   22365302.6844
 114626189.02147  89319058.85245  21812606.5704                   21812614.6994
 112255215.089 8                  21361442.320
 124069259.25746  96677392.43943  23609593.6024                   23609604.5824
 11  7 25  0 12 30.0000000  0  8G04G20G27G09G02G28G17G10
 104683926.34348  81571909.97846  19920658.8204                   19920666.7934
 127140653.41246  99070540.85843  24194019.6024                   24194027.1254
 117783242.01047  91779317.89645  22413432.2504                   22413440.7274
 116513692.27947  90789945.11645  22171817.3134                   22171824.9344
 117450080.49347  91519576.84345  22349978.3914                   22349984.9574
 114676761.54848  89358465.98745  21822230.5164                   21822237.5354
 112286352.278 8                  21367367.352
 123975088.53546  96604012.76943  23591673.7194                   23591683.8714
 11  7 25  0 13  0.0000000  0  8G04G20G27G09G02G28G17G10
 104668381.11348  81559796.82146  19917700.7814                   19917708.7274
 127174561.47646  99096962.66043  24200471.6804                   24200480.1604
 117772906.18547  91771263.99645  22411465.6884                   22411473.8594
 116486148.01847  90768482.08844  22166575.7424                   22166583.2034
 117369872.04248  91457076.84345  22334715.0704                   22334721.6564
 114727705.13547  89398162.27445  21831924.6024                   21831931.5044
 112317586.823 8                  21373310.609
 123880954.84046  96530661.93343  23573760.4144                   23573770.1564
 11  7 25  0 13 30.0000000  0  8G04G20G27G09G02G28G17G10
 104653409.13148  81548130.36046  19914851.7584                   19914859.4144
 127208966.05746  99123771.37743  24207018.9384                   24207027.0514
 117763063.24247  91763594.14945  22409592.6564                   22409601.0394
 116459239.23147  90747514.19745  22161455.0784                   22161463.1174
 117289952.47248  91394801.92745  22319506.7344                   22319514.0394
 114779019.69347  89438147.60345  21841689.5164                   21841696.7544
 112348918.472 8                  21379272.719
 123786860.99646  96457342.18343  23555854.4454                   23555865.3484
 11  7 25  0 14  0.0000000  0  8G04G20G27G09G02G28G17G10
 104639010.35848  81536910.55346  19912111.4694                   19912119.2424
 127243866.70446  99150966.72543  24213659.4144                   24213667.5474
 117753713.13947  91756308.34645  22407813.3914                   22407821.6334
 116432966.81247  90727042.21545  22156455.7814                   22156463.6024
 117210323.08248  91332753.14545  22304353.9924                   22304361.0474
 114830705.40847  89478422.16745  21851525.1414                   21851531.9104
 112380347.149 7                  21385253.781
 123692810.51446  96384056.26443  23537958.2114                   23537968.2664
 11  7 25  0 14 30.0000000  0  8G04G20G27G09G02G28G17G10
 104625184.33648  81526137.03446  19909480.5554                   19909488.2384
 127279262.61646  99178547.93142  24220394.3914                   24220403.2624
 117744855.59147  91749406.33545  22406127.6174                   22406136.5554
 116407331.17847  90707066.42945  22151576.5474                   22151585.4494
 117130985.18148  91270931.44845  22289256.5234                   22289262.4224
 114882762.23047  89518985.90345  21861431.2274                   21861438.7234
 112411872.134 8                  21391252.750
 123598806.15646  96310806.22042  23520069.0944                   23520079.5204
 11  7 25  0 15  0.0000000  0  8G04G20G27G09G02G28G17G10
 104611930.64848  81515809.49346  19906958.4774                   19906965.8834
 127315153.15546  99206514.55142  24227225.0704                   24227233.2344
 117736490.48447  91742888.03845  22404535.7344                   22404544.2704
 116382332.99147  90687587.32845  22146820.4694                   22146827.6524
 117051940.11248  91209337.95345  22274214.8204                   22274221.4964
 114935190.16847  89559838.82645  21871407.6564                   21871415.0204
 112443493.195 8                  21397270.063
 123504851.00546  96237594.53143  23502190.4064                   23502200.0784
 11  7 25  0 15 30.0000000  0  8G04G20G27G09G02G28G17G10
 104599249.26648  81505927.90346  19904545.2814                   19904552.6884
 127351537.79646  99234866.19742  24234149.1094                   24234157.0274
 117728618.00947  91736753.62245  22403038.1564                   22403046.2934
 116357972.73947  90668605.35145  22142183.6254                   22142192.5514
 116973189.18148  91147973.64345  22259228.6954                   22259234.7894
 114987989.34747  89600981.01045  21881455.4694                   21881462.2584
 112475210.142 7                  21403305.469
 123410948.38746  96164423.82343  23484320.2814                   23484331.4224
 11  7 25  0 16  0.0000000  0  8G04G20G27G09G02G28G17G10
 104587139.65848  81496491.86346  19902240.8054                   19902248.4964
 127388415.73146  99263602.24042  24241166.2664                   24241174.9184
 117721238.04447  91731002.98845  22401633.4614                   22401641.8484
 116334250.81547  90650120.74745  22137670.5944                   22137678.2734
 116894733.66348  91086839.56345  22244299.1024                   22244305.9414
 115041159.34047  89642412.14745  21891572.9384                   21891580.6684
 112507022.126 8                  21409359.477
 123317101.48546  96091296.46643  23466461.6254                   23466472.6334
 11  7 25  0 16 30.0000000  0  8G04G20G27G09G02G28G17G10
 104575601.75748  81487501.29246  19900045.3204                   19900052.8164
 127425786.50846  99292722.30442  24248277.8834                   24248286.5664
 117714350.65847  91725636.16545  22400322.7194                   22400331.1994
 116311167.89947  90632134.07445  22133277.4304                   22133285.6764
 116816575.31248  91025937.02445  22229426.0394                   22229432.5944
 115094700.62747  89684132.60245  21901761.6884                   21901769.0554
 112538929.638 8                  21415431.000
 123223313.48646  96018215.05643  23448615.3204                   23448626.2114
 11  7 25  0 17  0.0000000  0  8G04G20G27G09G02G28G17G10
 104564634.82648  81478955.64546  19897957.8524                   19897965.4774
 127463649.20946  99322225.66143  24255483.2734                   24255492.1054
 117707955.25747  91720652.72745  22399105.7034                   22399114.9344
 116288724.33847  90614645.58445  22129006.7664                   22129015.0434
 116738715.12048  90965266.81245  22214609.0944                   22214616.2464
 115148612.98047  89726142.21545  21912020.9064                   21912028.1294
 112570932.087 8                  21421521.008
 123129587.19646  95945181.61943  23430779.4774                   23430789.6054
 11  7 25  0 17 30.0000000  0  8G04G20G27G09G02G28G17G10
 104554238.48648  81470854.60946  19895979.8594                   19895987.2464
 127502002.68846  99352111.47743  24262782.4534                   24262790.1374
 117702051.70547  91716052.54345  22397982.3524                   22397990.8524
 116266920.58147  90597655.66645  22124857.6724                   22124865.7034
 116661154.29048  90904829.87945  22199850.2734                   22199856.9224
 115202896.15447  89768440.77245  21922350.2034                   21922357.3754
 112603028.554 8                  21427628.859
 123035926.12046  95872199.09843  23412955.9304                   23412966.4654
 11  7 25  0 18  0.0000000  0  9G12G04G20G27G09G02G28G17G10
 130802903.42315                  24890954.594
 104544412.36248  81463197.88246  19894109.7974                   19894117.6484
 127540846.72647  99382379.61443  24270173.9304                   24270181.6414
 117696639.92647  91711835.55545  22396952.3754                   22396960.8754
 116245757.07247  90581164.61345  22120830.7894                   22120839.2194
 116583894.10648  90844627.20545  22185147.9534                   22185154.0354
 115257550.14047  89811028.25745  21932750.9064                   21932758.2664
 112635219.270 8                  21433754.586
 122942333.64946  95799269.96343  23395146.5784                   23395155.9924
 11  7 25  0 18 30.0000000  0  9G12G04G20G27G09G02G28G17G10
 130706459.29915                  24872600.703
 104535156.05048  81455985.18546  19892348.4304                   19892356.3364
 127580180.29346  99413029.18643  24277658.1804                   24277666.8634
 117691719.58747  91708001.51145  22396016.2734                   22396024.9344
 116225234.05647  90565172.64145  22116925.0784                   22116933.0434
 116506936.02748  90784659.94445  22170503.0864                   22170509.6454
 115312574.66947  89853904.50245  21943221.7114                   21943229.0044
 112667504.080 8                  21439897.891
 122848812.86346  95726396.68943  23377350.3204                   23377359.2624
 11  7 25  0 19  0.0000000  0  9G12G04G20G27G09G02G28G17G10
 130609973.10215                  24854242.734
 104526468.74648  81449215.86546  19890695.3134                   19890702.6954
 127620002.63646  99444059.52643  24285236.8204                   24285244.4844
 117687290.22647  91704550.03745  22395173.1954                   22395181.9734
 116205351.93147  90549680.07245  22113141.5164                   22113149.6684
 116430281.04848  90724928.87045  22155916.0234                   22155922.2934
 115367969.91647  89897069.58745  21953763.1564                   21953770.2154
 112699882.277 8                  21446059.563
 122755366.62146  95653581.58843  23359567.3054                   23359577.5314
 11  7 25  0 19 30.0000000  0  9G12G04G20G27G09G02G28G17G10
                                  24835870.789
 104518350.57348  81442890.00946  19889150.4534                   19889158.2854
 127660312.94746  99475470.12543  24292907.3204                   24292915.6094
 117683352.12547  91701481.38745  22394424.0474                   22394432.9064
 116186111.43447  90534687.48745  22109479.9614                   22109488.1024
 116353930.56648  90665435.05545  22141387.2034                   22141393.5234
 115423735.82847  89940523.48945  21964375.2504                   21964382.9184
 112732354.335 8                  21452238.461
 122661998.73246  95580827.43943  23341800.3984                   23341809.6054
 11  7 25  0 20  0.0000000  0  9G12G04G20G27G09G02G28G17G10
 130416882.22815                  24817495.742
 104510800.84548  81437007.10646  19887713.8284                   19887721.7734
 127701110.36346  99507260.30343  24300670.5554                   24300679.5704
 117679904.60647  91698795.00045  22393767.6564                   22393776.1524
 116167512.56947  90520194.86245  22105940.8984                   22105949.3674
 116277886.11448  90606179.71545  22126916.8364                   22126922.5164
 115479872.22847  89984266.09745  21975057.6804                   21975064.9734
 112764919.569 8                  21458435.719
 122568712.14646  95508136.70243  23324047.8834                   23324058.8014
 11  7 25  0 20 30.0000000  0  9G12G04G20G27G09G02G28G17G10
 130320280.58315                  24799111.914
 104503818.97948  81431566.68846  19886385.1644                   19886392.9884
 127742394.23346  99539429.48343  24308525.9694                   24308535.7274
 117676947.45547  91696490.69945  22393205.3674                   22393213.9304
 116149555.66447  90506202.44545  22102523.6884                   22102532.1214
 116202149.17948  90547163.97945  22112504.2274                   22112510.0744
 115536379.01747  90028297.33545  21985810.0944                   21985817.6134
 112797577.681 8                  21464650.336
 122475510.17746  95435511.88744  23306312.2584                   23306322.0634
 11  7 25  0 21  0.0000000  0  9G12G04G20G27G09G02G28G17G10
 130223643.078 5                  24780722.680
 104497404.08048  81426568.08146  19885164.6884                   19885172.1454
 127784163.29446  99571976.80142  24316475.1174                   24316483.3324
 117674480.19947  91694568.15045  22392736.1094                   22392744.1524
 116132240.67547  90492710.23445  22099228.7664                   22099236.9414
 116126720.47948  90488388.45445  22098150.9304                   22098156.2664
 115593255.66947  90072616.76945  21996633.8204                   21996640.7424
 112830328.397 7                  21470882.500
 122382395.90746  95362955.40244  23288593.2894                   23288602.9064
 11  7 25  0 21 30.0000000  0  9G12G04G20G27G09G02G28G17G10
 130126971.282 6                  24762326.336
 104491555.62348  81422010.84746  19884051.9774                   19884059.0234
 127826416.94146  99604901.68742  24324514.8984                   24324524.6914
 117672502.51647  91693027.07845  22392359.5634                   22392367.9494
 116115567.95947  90479718.48445  22096056.2734                   22096064.1804
 116051600.79448  90429853.67845  22083855.7114                   22083861.1884
 115650502.10347  90117224.32245  22007527.6024                   22007534.9804
 112863171.112 7                  21477132.086
 122289372.58446  95290469.85844  23270891.3054                   23270900.8404
 11  7 25  0 22  0.0000000  0  9G12G04G20G27G09G02G28G17G10
 130030266.751 6                  24743924.492
 104486273.04348  81417894.55446  19883046.5394                   19883053.6724
 127869154.07346  99638203.33242  24332647.7974                   24332657.0434
 117671014.03147  91691867.20045  22392076.4384                   22392085.0824
 116099537.46947  90467227.18645  22093005.6564                   22093014.0164
 115976791.82448  90371561.05045  22069619.9694                   22069626.2664
 115708118.12147  90162119.88445  22018491.8134                   22018498.8054
 112896105.935 7                  21483399.695
 122196443.23746  95218057.49443  23253206.6414                   23253216.5164
 11  7 25  0 22 30.0000000  0  9G12G04G20G27G09G02G28G17G10
 129933531.220 6                  24725516.234
 104481555.61248  81414218.64946  19882148.9304                   19882156.0004
 127912373.45146  99671880.76942  24340872.9144                   24340881.3834
 117670014.40247  91691088.24845  22391885.7274                   22391894.9224
 116084149.55847  90455236.59245  22090077.7274                   22090085.8484
 115902294.75148  90313511.44145  22055443.6024                   22055449.7034
 115766103.55847  90207303.32145  22029525.6954                   22029532.8634
 112929132.740 7                  21489684.586
 122103611.17046  95145720.91744  23235542.2344                   23235551.2894
 11  7 25  0 23  0.0000000  0  9G12G04G20G27G09G02G28G17G10
 129836766.231 6                  24707101.727
 104477402.86548  81410982.74546  19881358.7814                   19881365.9344
 127956074.29146  99705933.38242  24349189.5084                   24349197.1454
 117669503.02747  91690689.76345  22391788.4384                   22391797.7774
 116069404.23147  90443746.74145  22087271.4224                   22087280.2664
 115828110.86948  90255705.87445  22041326.4924                   22041333.5864
 115824458.17047  90252774.41745  22040630.5784                   22040637.3054
 112962251.529 7                  21495987.148
 122010879.83946  95073462.84344  23217895.2894                   23217905.1174
 11  7 25  0 23 30.0000000  0  9G12G04G20G27G09G02G28G17G10
 129739973.286 6                  24688682.859
 104473813.79348  81408186.07846  19880675.4774                   19880683.1884
 128000255.51346  99740360.35142  24357596.2974                   24357605.1054
 117669479.37747  91690671.29645  22391784.2894                   22391792.6454
 116055301.51347  90432757.58145  22084587.5164                   22084596.6994
 115754240.89248  90198144.92345  22027270.1564                   22027276.1334
 115883181.49647  90298532.82045  22051804.9614                   22051812.5554
 112995461.717 7                  21502306.234
 121918252.25746  95001285.58544  23200269.0554                   23200278.6454
 11  7 25  0 24  0.0000000  0  9G12G04G20G27G09G02G28G17G10
 129643153.763 6                  24670259.023
 104470787.85048  81405828.21446  19880099.5784                   19880107.1724
 128044916.38946  99775161.09243  24366094.7114                   24366103.0084
 117669943.08047  91691032.58445  22391872.6804                   22391881.5514
 116041841.45947  90422269.20545  22082026.5634                   22082034.4804
 115680686.31848  90140829.72745  22013272.3754                   22013278.6564
 115942273.34047  90344578.38545  22063049.3204                   22063056.7894
 113028762.860 7                  21508643.211
 121825731.59746  94929191.63143  23182662.7584                   23182672.6134
 11  7 25  0 24 30.0000000  0  9G12G04G20G27G09G02G28G17G10
 129546309.188 6                  24651830.703
 104468324.26248  81403908.54146  19879630.9774                   19879638.4574
 128090055.51046  99810334.46742  24374684.6644                   24374692.7304
 117670893.78347  91691773.35745  22392054.0314                   22392061.7934
 116029023.99248  90412281.55045  22079587.6804                   22079595.9614
 115607448.36448  90083761.25645  21999335.4924                   21999342.7114
 116001733.69447  90390911.08245  22074365.0004                   22074371.7504
 113062155.019 7                  21514997.547
 121733321.33646  94857183.75843  23165077.5864                   23165086.8094
 11  7 25  0 25  0.0000000  0  9G12G04G20G27G09G02G28G17G10
 129449442.014 6                  24633396.836
 104466422.70448  81402426.81646  19879269.1254                   19879276.7274
 128135672.23446  99845879.94843  24383365.4144                   24383373.5004
 117672331.25247  91692893.42645  22392327.3284                   22392335.4494
 116016849.59747  90402794.98145  22077270.9774                   22077278.5514
 115534528.34148  90026940.50845  21985459.7974                   21985466.2194
 116061562.58147  90437530.96845  22085749.5314                   22085757.4104
 113095638.355 7                  21521369.461
 121641024.83046  94785264.48643  23147514.2734                   23147523.3324
 11  7 25  0 25 30.0000000  0  9G12G04G20G27G09G02G28G17G10
 129352553.400 6                  24614959.391
 104465082.22848  81401382.29946  19879013.9144                   19879021.1214
 128181765.41446  99881796.64042  24392136.0864                   24392145.1484
 117674254.74647  91694392.21245  22392693.3204                   22392701.6174
 116005317.95547  90393809.28945  22075076.3914                   22075085.1214
 115461927.19148  89970368.24445  21971643.9384                   21971650.4534
 116121759.08447  90484437.31245  22097205.0474                   22097212.6844
 113129212.519 7                  21527758.125
 121548845.27546  94713436.35543  23129972.9304                   23129982.9924
 11  7 25  0 26  0.0000000  0  9G12G04G20G27G09G02G28G17G10
 129255644.796 6                  24596518.813
 104464301.51348  81400773.94946  19878865.0634                   19878872.6414
 128228333.82945  99918083.75642  24400996.4144                   24401007.1374
 117676663.55147  91696269.17145  22393151.4064                   22393160.4884
 115994428.85147  90385324.23645  22073004.3984                   22073013.0944
 115389645.59648  89914044.95346  21957889.3914                   21957896.0004
 116182322.93747  90531629.88245  22108729.6334                   22108737.0704
 113162876.924 8                  21534164.781
 121456785.70346  94641701.73644  23112454.6094                   23112463.7034
 11  7 25  0 26 30.0000000  0  9G12G04G20G27G09G02G28G17G10
 129158718.080 6                  24578073.492
 104464080.06748  81400601.40346  19878823.0234                   19878830.4104
 128275376.62445  99954740.33242  24409947.8364                   24409958.8054
 117679557.35747  91698524.06245  22393702.0234                   22393710.6604
 115984182.38147  90377339.93645  22071054.5864                   22071063.2894
 115317685.24248  89857972.01545  21944195.6024                   21944201.9964
 116243254.05147  90579108.61845  22120324.7424                   22120331.5824
 113196631.740 7                  21540588.180
 121364849.65746  94570063.36443  23094958.9064                   23094968.7544
 11  7 25  0 27  0.0000000  0  9G12G04G20G27G09G02G28G17G10
 129061774.261 6                  24559626.352
 104464416.74148  81400863.75746  19878887.2114                   19878894.6214
 128322892.04546  99991765.31042  24418992.8674                   24419000.3954
 117682935.08347  91701156.01045  22394344.8134                   22394353.4104
 115974577.95447  90369855.94845  22069226.7584                   22069235.8874
 115246046.92848  89802150.01145  21930563.2734                   21930569.3324
 116304551.52847  90626872.85345  22131989.4534                   22131996.5664
 113230477.012 7                  21547028.688
 121273040.14347  94498523.57643  23077489.1804                   23077498.0354
 11  7 25  0 27 30.0000000  0  9G12G04G20G27G09G02G28G17G10
 128964815.172 6                  24541175.094
 104465310.44348  81401560.15946  19879057.2814                   19879064.9064
 128370878.60746 100029157.37643  24428123.8984                   24428131.8164
 117686795.86147  91704164.37045  22395079.7814                   22395088.5394
 115965614.96547  90362871.77145  22067521.2034                   22067529.7154
 115174731.46448  89746579.56545  21916992.7344                   21916998.5554
 116366214.87247  90674922.17045  22143723.2974                   22143730.9844
 113264411.620 7                  21553486.305
 121181360.37546  94427084.90044  23060042.9144                   23060051.6564
 11  7 25  0 28  0.0000000  0  9G12G04G20G27G09G02G28G17G10
 128867842.803 6                  24522721.141
 104466760.46948  81402690.05546  19879333.1724                   19879340.9924
 128419335.56846 100066916.09042  24437344.9614                   24437352.7974
 117691139.49247  91707548.98245  22395906.6804                   22395915.2734
 115957293.76147  90356387.69645  22065937.7194                   22065946.4184
 115103739.85548  89691261.48745  21903483.1484                   21903489.2544
 116428244.08947  90723256.58645  22155526.9144                   22155534.8914
 113298435.848 7                  21559960.797
 121089813.69546  94355749.89544  23042621.8364                   23042630.7234
 11  7 25  0 28 30.0000000  0  9G12G04G20G27G09G02G28G17G10
 128770858.932 6                  24504266.828
 104468766.19648  81404252.96746  19879715.1334                   19879722.9654
 128468262.02746 100105040.61542  24446654.7424                   24446663.6374
 117695965.25547  91711309.29845  22396825.1644                   22396833.1844
 115949614.28647  90350403.64445  22064476.4454                   22064484.8794
 115033073.57048  89636196.91045  21890035.9224                   21890042.2344
 116490638.87947  90771875.85544  22167400.2194                   22167408.3324
 113332549.776 7                  21566452.406
 120998403.39746  94284521.15344  23025226.9614                   23025236.5394
 11  7 25  0 29  0.0000000  0  9G12G04G20G27G09G02G28G17G10
 128673865.088 6                  24485808.992
 104471326.52648  81406248.04346  19880202.1334                   19880209.3594
 128517656.58846 100143529.89542  24456054.4614                   24456061.9494
 117701272.50547  91715444.80445  22397834.4614                   22397842.5744
 115942576.12647  90344919.34645  22063137.1954                   22063145.9024
 114962733.54648  89581386.55846  21876650.2344                   21876656.3954
 116553398.63747  90820779.52344  22179343.2734                   22179351.2304
 113366753.227 7                  21572961.461
 120907132.83247  94213401.30744  23007858.5164                   23007868.4614
 11  7 25  0 29 30.0000000  0  9G12G04G20G27G09G02G28G17G10
 128576863.094 6                  24467350.258
 104474440.62648  81408674.63046  19880794.8984                   19880802.0904
 128567518.22546 100182383.18352  24465543.6094                   24465550.7074
 117707060.59847  91719955.00845  22398935.5164                   22398944.2464
 115936178.82847  90339934.41945  22061919.7664                   22061928.7974
 114892720.65548  89526831.09245  21863327.1644                   21863333.1804
 116616523.18547  90869967.44045  22191355.7584                   22191363.5274
 113401045.976 7                  21579486.734
 120816005.11546  94142392.76144  22990516.8754                   22990526.4184
 11  7 25  0 30  0.0000000  0  9G12G04G20G27G09G02G28G17G10
 128479854.361 6                  24448889.742
 104478107.44848  81411531.90946  19881492.4844                   19881500.1684
 128617845.35845 100221599.15042  24475118.8364                   24475128.4694
 117713328.94047  91724839.40645  22400128.9694                   22400137.1564
 115930422.24047  90335448.76645  22060824.4304                   22060832.8164
 114823036.54248  89472531.82745  21850066.6954                   21850072.9304
 116680011.90647  90919439.13045  22203436.9304                   22203444.8484
 113435428.443 7                  21586029.438
 120725024.03446  94071498.50344  22973203.2664                   22973213.2504
 11  7 25  0 30 30.0000000  0  8G12G04G27G09G02G28G17G10
 128382841.377 6                  24430428.922
 104482326.41648  81414819.42946  19882295.5704                   19882302.8284
 117720077.07947  91730097.68745  22401413.8284                   22401421.8594
 115925306.47547  90331462.44245  22059850.6334                   22059859.3164
 114753682.18948  89418489.54945  21836869.1884                   21836875.0664
 116743865.06747  90969194.77645  22215588.4304                   22215596.2774
 113469900.431 7                  21592589.148
 120634193.09147  94000721.23444  22955920.0234                   22955929.2464
 11  7 25  0 31  0.0000000  0  9G12G04G20G27G09G02G28G17G10
 128285825.208 6                  24411967.188
 104487095.69848  81418535.77846  19883203.0634                   19883210.3954
 128719893.49415                  24494538.070
 117727303.57047  91735728.75345  22402788.6094                   22402797.0984
 115920830.34948  90327974.55745  22058999.1254                   22059007.1254
 114684657.82148  89364704.37746  21823734.1174                   21823740.2274
 116808081.06947  91019233.18245  22227808.6414                   22227815.6684
 113504461.209 7                  21599166.195
 120543514.87547  93930062.95143  22938664.3364                   22938673.0044
 11  7 25  0 31 30.0000000  0  9G12G04G20G27G09G02G28G17G10
 128188807.118 6                  24393505.570
 104492414.15448  81422680.03246  19884214.7664                   19884222.8554
 128771609.84556 100341366.67352  24504380.2814                   24504387.6604
 117735007.38347  91741731.72845  22404254.1954                   22404263.2664
 115916993.17047  90324984.55245  22058269.0394                   22058277.3094
 114615963.93948  89311176.73645  21810661.8204                   21810668.1134
 116872659.35447  91069553.88945  22240097.0394                   22240104.4844
 113539110.580 7                  21605759.438
 120452992.48447  93859526.06944  22921438.5084                   22921447.3524
 11  7 25  0 32  0.0000000  0  9G12G04G20G27G09G02G28G17G10
 128091789.268 6                  24375043.680
 104498281.40648  81427251.93446  19885331.4064                   19885338.8674
 128823786.67046 100382023.85642  24514309.5944                   24514316.9694
 117743188.21047  91748106.40445  22405810.4844                   22405820.3444
 115913795.05247  90322492.49645  22057660.2504                   22057669.1024
 114547602.64048  89257908.23345  21797653.1804                   21797658.9414
 116937600.13147  91120157.04045  22252455.2504                   22252462.1954
 113573848.993 7                  21612370.000
 120362629.85447  93789113.68044  22904244.0234                   22904251.6954
 11  7 25  0 32 30.0000000  0  9G12G04G20G27G09G02G28G17G10
 127994773.455 7                  24356582.117
 104504695.99048  81432250.32146  19886552.2114                   19886559.4494
 128876422.65445 100423038.91242  24524324.9144                   24524333.5904
 117751845.20647  91754852.11145  22407458.5634                   22407467.0984
 115911235.49047  90320498.05445  22057172.9454                   22057181.6294
 114479574.89248  89204899.64846  21784708.3204                   21784713.9964
 117002902.42947  91171041.92444  22264881.1484                   22264888.4104
 113608676.194 7                  21618997.383
 120272429.94347  93718828.13344  22887078.3134                   22887087.6804
 11  7 25  0 33  0.0000000  0  9G12G04G20G27G09G02G28G17G10
 127897761.588 7                  24338121.523
 104511656.70048  81437674.26146  19887876.8754                   19887884.2384
 128929516.28446 100464410.68442  24534428.8284                   24534437.9224
 117760977.40947  91761968.14045  22409195.7974                   22409205.2384
 115909314.18748  90319000.94245  22056807.4694                   22056816.1954
 114411881.22748  89152151.38946  21771826.4534                   21771832.1214
 117068565.72747  91222208.12645  22277376.5004                   22277383.3404
 113643592.153 7                  21625641.695
 120182396.07247  93648671.97344  22869945.1644                   22869954.2774
 11  7 25  0 33 30.0000000  0  9G12G04G20G27G09G02G28G17G10
 127800755.484 7                  24319661.508
 104519162.87648  81443523.23246  19889305.1174                   19889312.8404
 128983066.57746 100506138.12042  24544618.7344                   24544627.9384
 117770584.27647  91769454.01645  22411024.1724                   22411032.8284
 115908030.46247  90318000.65445  22056563.1024                   22056571.9964
 114344522.76348  89099664.33846  21759008.0944                   21759014.1214
 117134589.98647  91273655.57144  22289940.4844                   22289947.8754
 113678596.885 7                  21632302.797
 120092531.91847  93578647.99544  22852844.6484                   22852853.4924
 11  7 25  0 34  0.0000000  0  9G12G04G20G27G09G02G28G17G10
 127703756.877 7                  24301203.188
 104527212.95548  81449796.03246  19890836.7734                   19890844.0984
 129037071.68546 100548220.17442  24554896.0944                   24554904.2544
 117780664.62647  91777308.84045  22412942.3984                   22412951.1994
 115907383.48647  90317496.53045  22056440.4224                   22056448.6484
 114277500.46048  89047439.20946  21746254.1334                   21746260.1844
 117200974.22447  91325383.53344  22302573.3134                   22302580.6914
 113713689.957 7                  21638980.844
 120002840.45247  93508758.63444  22835776.7894                   22835785.7154
 11  7 25  0 34 30.0000000  0  9G12G04G20G27G09G02G28G17G10
 127606767.429 7                  24282746.805
 104535806.08648  81456491.98946  19892472.2734                   19892479.2934
 129091530.51646 100590655.57042  24565259.0704                   24565267.0514
 117791217.67047  91785532.00745  22414950.5944                   22414959.1764
 115907373.03447  90317488.36945  22056438.5314                   22056446.7814
 114210815.27648  88995476.79746  21733564.3984                   21733570.8244
 117267718.15547  91377391.75744  22315274.5784                   22315282.0864
 113748871.809 7                  21645675.930
 119913325.27247  93439006.64744  22818742.5864                   22818752.1254
 11  7 25  0 35  0.0000000  0  9G12G04G20G27G09G02G28G17G10
 127509789.039 7                  24264291.680
 104544941.02548  81463610.12946  19894210.2584                   19894217.8794
 129146441.601 5                  24575708.641
 117802242.68547  91794122.92745  22417048.8134                   22417057.4964
 115907998.21847  90317975.52745  22056557.1724                   22056565.2344
 114144468.13148  88943777.76946  21720938.9454                   21720945.5864
 117334821.10647  91429679.75144  22328042.8914                   22328051.4614
 113784142.729 7                  21652387.625
 119823989.88147  93369394.68944  22801742.8754                   22801751.5664
 11  7 25  0 35 30.0000000  0  9G12G04G20G27G09G02G28G17G10
 127412823.857 7                  24245839.773
 104554616.82048  81471149.72246  19896051.7424                   19896059.1054
 129201803.979 5                  24586243.609
 117813738.71247  91803080.87945  22419235.7974                   22419244.6914
 115909258.71647  90318957.72545  22056796.7584                   22056805.4694
 114078460.24948  88892343.11945  21708378.0634                   21708384.4884
 117402282.64547  91482247.15544  22340881.0784                   22340888.2464
 113819502.451 7                  21659116.195
 119734837.75347  93299925.58144  22784778.1564                   22784787.4144
 11  7 25  0 36  0.0000000  0  8G12G04G27G09G02G28G17G10
 127315874.451 7                  24227390.953
 104564832.86248  81479110.28046  19897995.5164                   19898002.7734
 117825705.72147  91812405.80345  22421513.6724                   22421522.4264
 115911154.50147  90320434.95645  22057157.9844                   22057166.6954
 114012793.07948  88841173.93446  21695882.2274                   21695888.6214
 117470102.76647  91535093.94444  22353786.5554                   22353794.5234
 113854951.461 8                  21665861.961
 119645872.63447  93230602.20544  22767847.7664                   22767856.8594
 11  7 25  0 36 30.0000000  0  9G12G04G20G27G09G02G28G17G10
 127218941.753 6                  24208945.602
 104575587.03548  81487490.15846  19900042.0474                   19900049.6214
 129313601.69815                  24607568.797
 117838141.52347  91822096.01445  22423880.1174                   22423888.6254
 115913683.64847  90322405.72045  22057639.1484                   22057647.8094
 113947466.36748  88790270.09146  21683450.7974                   21683457.0944
 117538279.91547  91588218.95244  22366760.7034                   22366768.4494
 113890489.016 7                  21672625.070
 119557097.09447  93161426.47844  22750954.6804                   22750962.5824
 11  7 25  0 37  0.0000000  0  9G12G04G20G27G09G02G28G17G10
 127122026.126 6                  24190503.133
 104586876.74348  81496287.33246  19902190.5634                   19902198.3014
 129370307.297 5                  24618360.648
 117851044.08247  91832149.94845  22426335.7344                   22426344.0204
 115916844.77347  90324868.90945  22058241.1804                   22058249.3834
 113882479.99448  88739631.38446  21671084.1644                   21671090.3794
 117606812.46547  91641620.90144  22379802.0394                   22379809.2424
 113926113.787 8                  21679403.750
 119468513.22447  93092400.14744  22734097.4534                   22734106.5274
 11  7 25  0 37 30.0000000  0  9G12G04G20G27G09G02G28G17G10
 127025130.495 6                  24172064.555
 104598701.67348  81505501.55746  19904440.4844                   19904448.2734
 129427457.227 5                  24629235.813
 117864412.81147  91842567.12645  22428879.4454                   22428887.5554
 115920637.23847  90327824.07445  22058962.6414                   22058970.8594
 113817835.61648  88689259.21346  21658782.9614                   21658788.8634
 117675700.43447  91695299.80044  22392909.8914                   22392918.3524
 113961826.792 7                  21686199.586
 119380125.28547  93023526.47044  22717277.8834                   22717286.8134
 11  7 25  0 38  0.0000000  0  9G12G04G20G27G09G02G28G17G10
 126928257.364 7                  24153629.938
 104611060.93948  81515132.16746  19906792.5084                   19906799.9264
 129485050.683 5                  24640195.281
 117878247.41648  91853347.33045  22431512.3284                   22431520.5084
 115925061.11447  90331271.23545  22059804.2974                   22059812.6844
 113753534.64448  88639154.61746  21646546.3754                   21646552.4924
 117744943.59747  91749255.44244  22406087.8284                   22406094.6914
 113997628.578 8                  21693012.625
 119291936.82246  92954808.27244  22700495.9844                   22700505.7774
 11  7 25  0 38 30.0000000  0  9G12G04G20G27G09G02G28G17G10
 126831408.439 7                  24135200.141
 104623953.21848  81525178.09546  19909245.6644                   19909253.8554
 129543086.07915                  24651239.250
 117892546.90647  91864489.76845  22434233.0704                   22434241.2034
 115930115.59447  90335209.78945  22060766.0474                   22060774.2424
 113689577.91348  88589318.25346  21634376.2734                   21634382.3204
 117814541.42947  91803487.46044  22419331.8444                   22419338.6684
 114033519.259 8                  21699842.281
 119203951.32847  92886248.22144  22683752.9224                   22683761.9654
 11  7 25  0 39  0.0000000  0  9G12G04G20G27G09G02G28G17G10
 126734585.617 7                  24116776.000
 104637377.05748  81535638.23846  19911800.3364                   19911808.2974
 129601561.76615                  24662367.133
 117907310.06047  91875993.49745  22437042.2274                   22437051.1564
 115935799.69547  90339638.96245  22061847.8754                   22061855.8014
 113625965.99248  88539750.59346  21622271.1174                   21622277.4414
 117884492.93747  91857995.09144  22432642.5864                   22432650.0634
 114069498.687 8                  21706688.992
 119116172.15047  92817848.90444  22667049.4614                   22667057.9224
 11  7 25  0 39 30.0000000  0  9G12G04G20G27G09G02G28G17G10
 126637790.147 7                  24098356.125
 104651330.54148  81546511.08046  19914455.4454                   19914462.6484
 129660475.573 5                  24673578.578
 117922535.07347  91887857.13045  22439940.0314                   22439948.1884
 115942111.91047  90344557.57245  22063048.8914                   22063057.5944
 113562698.92148  88490451.63546  21610231.7734                   21610237.5354
 117954796.88047  91912777.34344  22446021.4844                   22446028.8594
 114105565.934 7                  21713552.961
 119028602.16247  92749612.59344  22650385.1884                   22650394.5314
 11  7 25  0 40  0.0000000  0  9G12G04G20G27G09G02G28G17G10
 126541024.727 7                  24079941.688
 104665813.07148  81557796.16946  19917211.7584                   19917218.7114
 129719826.371 5                  24684871.188
 117938221.61348  91900080.38745  22442925.1804                   22442933.1644
 115949051.94047  90349965.40045  22064369.7894                   22064378.6054
 113499778.60248  88441422.86346  21598258.5784                   21598264.4884
 118025452.99047  91967834.01544  22459466.6954                   22459474.5084
 114141721.877 8                  21720432.578
 118941245.09747  92681542.21544  22633761.5394                   22633770.5864
 11  7 25  0 40 30.0000000  0  9G12G04G20G27G09G02G28G17G10
 126444290.821 7                  24061534.281
 104680823.05648  81569492.26746  19920068.0314                   19920075.1764
 129779612.75015                  24696249.789
 117954368.27947  91912662.17445  22445997.7894                   22446005.8164
 115956618.51347  90355861.42045  22065809.1884                   22065818.5124
 113437205.35548  88392664.53346  21586350.6094                   21586357.0234
 118096460.75647  92023164.69244  22472979.5474                   22472987.2704
 114177966.533 8                  21727330.172
 118854104.45947  92613640.46944  22617179.3594                   22617188.1174
 11  7 25  0 41  0.0000000  0  9G12G04G20G27G09G02G28G17G10
 126347590.147 7                  24043132.594
 104696358.46948  81581597.79446  19923024.1724                   19923031.2934
 129839832.551 5                  24707709.383
 117970973.42548  91925601.22345  22449157.5554                   22449165.9774
 115964810.06547  90362244.47145  22067368.1334                   22067376.9694
 113374979.42148  88344176.84746  21574509.9064                   21574516.0234
 118167818.64447  92078768.19144  22486558.7894                   22486565.6644
 114214299.235 8                  21734244.242
 118767182.97747  92545909.48944  22600638.4534                   22600647.3404
 11  7 25  0 41 30.0000000  0  9G12G04G20G27G09G02G28G17G10
 126250925.352 7                  24024738.156
 104712418.89948  81594112.40646  19926080.4454                   19926087.8794
 129900485.000 5                  24719250.375
 117988036.86948  91938897.37645  22452404.4844                   22452412.1334
 115973626.97547  90369114.78245  22069046.5164                   22069054.9694
 113313102.73048  88295961.28546  21562735.2034                   21562740.9024
 118239526.63147  92134644.50744  22500203.6644                   22500211.9344
 114250721.096 7                  21741174.859
 118680484.79747  92478352.50544  22584140.9384                   22584149.2344
 11  7 25  0 42  0.0000000  0  9G12G04G20G27G09G02G28G17G10
 126154297.792 7                  24006350.180
 104729001.97048  81607034.29746  19929235.9144                   19929243.3404
 129961567.522 5                  24730874.813
 118005556.76947  91952549.22645  22455737.8524                   22455746.6484
 115983067.38647  90376470.97745  22070841.8754                   22070851.0164
 113251575.32848  88248017.88646  21551026.4924                   21551032.4064
 118311583.54047  92190792.72144  22513915.4774                   22513922.9144
 114287231.675 8                  21748122.492
 118594012.62647  92410971.65644  22567685.8754                   22567694.2034
 11  7 25  0 42 30.0000000  0  9G12G04G20G27G09G02G28G17G10
 126057709.125 7                  23987970.578
 104746106.27148  81620362.32446  19932490.5474                   19932498.6414
 130023078.403 5                  24742579.086
 118023531.46947  91966555.44645  22459158.2424                   22459166.5274
 115993129.68147  90384311.72145  22072757.2664                   22072765.8204
 113190397.34148  88200346.76746  21539385.0004                   21539391.1254
 118383988.18747  92247211.88344  22527693.5554                   22527701.7234
 114323830.684 8                  21755087.023
 118507769.56247  92343769.37944  22551273.5234                   22551283.3634
 11  7 25  0 43  0.0000000  0  9G12G04G20G27G09G02G28G17G10
 125961162.151 7                  23969597.336
 104763730.79848  81634095.71446  19935844.6484                   19935852.1024
 130085016.65614                  24754363.813
 118041960.58547  91980915.76945  22462665.4924                   22462674.3914
 116003813.48647  90392636.77945  22074790.0944                   22074798.7194
 113129570.66148  88152949.38946  21527809.8284                   21527815.9844
 118456740.82547  92303902.14744  22541538.1334                   22541546.1684
 114360519.012 8                  21762068.758
 118421759.65447  92276748.73644  22534906.6254                   22534915.0554
 11  7 25  0 43 30.0000000  0  8G12G04G27G09G02G28G17G10
 125864659.288 7                  23951233.773
 104781874.86748  81648233.95446  19939297.2974                   19939304.6804
 118060843.46747  91995629.66145  22466259.3674                   22466266.8404
 116015118.42448  90401445.82245  22076941.8984                   22076949.9964
 113069096.36948  88105826.61046  21516302.1804                   21516307.8794
 118529840.61147  92360862.99945  22555448.4384                   22555457.1134
 114397297.201 8                  21769067.094
 118335986.67247  92209912.70545  22518584.5634                   22518593.5824
 11  7 25  0 44  0.0000000  0  9G12G04G20G27G09G02G28G17G10
 125768200.918 6                  23932878.008
 104800534.93548  81662774.26446  19942848.0784                   19942855.8674
 130210169.45315                  24778180.422
 118080176.84247  92010694.59545  22469938.0554                   22469946.5664
 116027041.37547  90410736.43245  22079210.2274                   22079218.8484
 113008973.00748  88058977.25746  21504860.9844                   21504866.6484
 118603285.25147  92418092.52444  22569425.2894                   22569433.2154
 114434163.324 8                  21776082.695
 118250452.39647  92143262.67444  22502308.0944                   22502315.5004
 11  7 25  0 44 30.0000000  0  9G12G04G20G27G09G02G28G17G10
 125671790.075 6                  23914531.328
 104819710.37848  81677716.15846  19946497.3204                   19946504.8554
 130273378.362 4                  24790206.969
 118099960.32547  92026110.23545  22473702.8594                   22473711.2854
 116039581.99247  90420508.35445  22081596.7274                   22081604.7624
 112949202.40048  88012402.78946  21493486.9694                   21493492.9884
 118677074.51247  92475590.59044  22583466.5084                   22583474.0204
 114471118.500 8                  21783114.898
 118165160.87347  92076801.81845  22486077.5784                   22486086.0084
 11  7 25  0 45  0.0000000  0  9G12G04G20G27G09G02G28G17G10
 125575428.262 6                  23896194.609
 104839399.74148  81693058.52846  19950244.0164                   19950251.4344
 130337007.32315                  24802318.063
 118120192.77547  92041875.74145  22477553.2894                   22477561.4534
 116052739.05748  90430760.61645  22084100.6024                   22084109.0004
 112889785.32848  87966103.80246  21482180.0234                   21482186.0354
 118751207.74247  92533356.70744  22597573.7424                   22597581.2704
 114508162.738 8                  21790164.234
 118080115.49347  92010532.75444  22469893.3284                   22469902.2664
 11  7 25  0 45 30.0000000  0  9G12G04G20G27G09G02G28G17G10
 125479117.758 6                  23877867.148
 104859601.32648  81708800.02146  19954088.2894                   19954095.7034
 130401055.261 4                  24814502.531
 118140872.67747  92057989.90545  22481488.2814                   22481497.2384
 116066511.00248  90441492.01145  22086720.6804                   22086729.2664
 112830722.23048  87920080.63446  21470940.9384                   21470947.1724
 118825683.82647  92591389.97444  22611745.5944                   22611753.4574
 114545296.316 8                  21797230.680
 117995319.82447  91944458.29144  22453757.1334                   22453766.5824
 11  7 25  0 46  0.0000000  0  9G12G04G20G27G09G02G28G17G10
 125382860.751 7                  23859549.680
 104880314.08448  81724939.83746  19958029.8284                   19958037.4344
 130465519.977 5                  24826771.977
 118161999.20347  92074452.07945  22485508.4064                   22485516.3554
 116080897.33348  90452702.11645  22089459.1724                   22089467.1484
 112772014.41148  87874334.31246  21459769.1954                   21459774.9654
 118900502.48147  92649690.18544  22625982.9614                   22625991.9924
 114582519.915 8                  21804314.570
 117910777.31847  91878581.08344  22437669.0164                   22437678.4344
 11  7 25  0 46 30.0000000  0  9G12G04G20G27G09G02G28G17G10
 125286658.853 6                  23841243.609
 104901535.78848  81741476.23746  19962067.9384                   19962075.5474
 130530399.075 5                  24839119.148
 118183570.36447  92091260.71245  22489613.5634                   22489621.9384
 116095896.30547  90464389.63045  22092312.9614                   22092321.3674
 112713661.86748  87828864.82146  21448665.0554                   21448670.8874
 118975662.19247  92708256.08644  22640286.1644                   22640294.5634
 114619832.724 8                  21811414.422
 117826491.20047  91812903.63045  22421630.3594                   22421639.5204
 11  7 25  0 47  0.0000000  0  9G12G04G20G27G09G02G28G17G10
 125190514.164 6                  23822947.695
 104923264.65048  81758407.82046  19966202.8984                   19966210.1134
 130595691.187 5                  24851545.242
 118205584.62847  92108414.61545  22493802.5474                   22493811.6134
 116111506.35547  90476553.30245  22095283.0474                   22095292.0514
 112655665.02948  87783672.50146  21437628.2974                   21437634.6094
 119051161.78847  92767086.89444  22654653.2734                   22654660.5044
 114657234.905 8                  21818531.734
 117742464.27847  91747428.20845  22405640.9384                   22405649.2234
 11  7 25  0 47 30.0000000  0  9G12G04G20G27G09G02G28G17G10
 125094428.996 6                  23804662.734
 104945499.53748  81775733.71046  19970434.3754                   19970441.5234
 130661394.353 5                  24864046.289
 118228041.09647  92125913.11145  22498075.4844                   22498083.9884
 116127726.17048  90489192.10645  22098370.4614                   22098378.8444
 112598024.86248  87738758.12246  21426659.6174                   21426665.3134
 119127000.62547  92826182.03144  22669085.0474                   22669092.4534
 114694726.979 7                  21825666.367
 117658700.15347  91682157.50245  22389701.0234                   22389709.0084
 11  7 25  0 48  0.0000000  0  9G12G04G20G27G09G02G28G17G10
 124998405.493 7                  23786390.359
 104968238.60548  81793452.47546  19974761.1724                   19974768.3714
 130727507.17615                  24876627.289
 118250938.29947  92143755.00345  22502432.9844                   22502441.6724
 116144554.58547  90502305.15345  22101572.4304                   22101580.8834
 112540741.85848  87694122.03546  21415759.3444                   21415765.2344
 119203177.68847  92885540.71344  22683580.7114                   22683588.8324
 114732309.076 8                  21832818.188
 117575202.35947  91617094.36245  22373811.4144                   22373820.3954
 11  7 25  0 48 30.0000000  0  9G12G04G20G27G09G02G28G17G10
 124902445.504 7                  23768130.219
 104991480.18148  81811562.79346  19979183.9454                   19979191.4494
 130794027.58615                  24889285.383
 118274274.63747  92161939.09545  22506874.8914                   22506883.1564
 116161989.92848  90515891.12945  22104890.3754                   22104898.5664
 112483816.41648  87649764.58346  21404926.7034                   21404932.8134
 119279692.08647  92945162.24144  22698141.5784                   22698149.2934
 114769981.235 7                  21839987.047
 117491974.11947  91552241.25845  22357973.7194                   22357982.1374
 11  7 25  0 49  0.0000000  0  9G12G04G20G27G09G02G28G17G10
 124806550.926 7                  23749881.406
 105015222.17548  81830063.05646  19983701.7734                   19983709.6644
 130860953.51215                  24902021.086
 118298048.31347  92180463.99545  22511398.2584                   22511406.2774
 116180030.66847  90529948.83545  22108323.0004                   22108331.6214
 112427248.91948  87605686.04546  21394162.2274                   21394168.7274
 119356542.31247  93005045.44944  22712765.7664                   22712773.3594
 114807743.186 8                  21847172.742
 117409018.32347  91487600.44845  22342187.8364                   22342196.5234
 11  7 25  0 49 30.0000000  0  9G12G04G20G27G09G02G28G17G10
 124710723.887 7                  23731646.414
 105039463.36548  81848952.31046  19988314.7664                   19988322.4454
                                  24914835.859
 118322258.08847  92199328.66145  22516004.8284                   22516013.9144
 116198675.59548  90544477.32345  22111871.5554                   22111879.5664
 112371040.39448  87561887.21846  21383466.0784                   21383471.9414
 119433728.04247  93065190.12144  22727453.4144                   22727461.6484
 114845595.799 8                  21854375.734
 117326338.97547  91423175.05245  22326454.6954                   22326462.5784
 11  7 25  0 50  0.0000000  0  9G12G04G20G27G09G02G28G17G10
 124614967.247 7                  23713423.781
 105064202.42948  81868229.49246  19993022.3674                   19993029.8404
                                  24927722.891
 118346903.12247  92218532.53345  22520694.4064                   22520704.0394
 116217923.75047  90559475.88345  22115533.6884                   22115542.6484
 112315191.82648  87518368.89546  21372838.5634                   21372844.0434
 119511248.40647  93125595.54344  22742204.9454                   22742213.2114
 114883539.252 8                  21861596.188
 117243939.66647  91358967.83245  22310774.3444                   22310782.5474
 11  7 25  0 50 30.0000000  0  8G12G04G27G09G02G28G17G10
 124519282.281 6                  23695215.961
 105089437.11948  81887892.90546  19997824.2114                   19997831.6764
 118371981.18947  92238073.82245  22525467.4454                   22525475.8554
 116237772.63348  90574942.51745  22119311.6174                   22119319.2734
 112259703.14248  87475130.98046  21362279.0944                   21362285.1644
 119589101.98047  93186260.59344  22757020.4774                   22757028.6914
 114921573.295 8                  21868833.867
 117161822.81247  91294980.74345  22295148.5084                   22295156.8754
 11  7 25  0 51  0.0000000  0  8G12G04G27G09G02G28G17G10
 124423671.614 6                  23677021.977
 105115165.85248  81907941.27546  20002720.7734                   20002727.7424
 118397490.98247  92257951.53145  22530321.7664                   22530330.2774
 116258221.27247  90590876.49745  22123202.8444                   22123210.4494
 112204574.91348  87432173.94846  21351788.4614                   21351794.1564
 119667287.97947  93247184.67744  22771898.0394                   22771906.6724
 114959698.342 7                  21876088.414
 117079992.15047  91231216.64545  22279576.3134                   22279584.8404
 11  7 25  0 51 30.0000000  0  8G12G04G27G09G02G28G17G10
 124328136.817 6                  23658842.086
 105141386.45248  81928372.91246  20007710.0314                   20007717.4224
 118423430.65547  92278164.23545  22535257.8754                   22535266.6294
 116279267.65847  90607276.26645  22127207.3524                   22127216.3324
 112149807.34748  87389497.96346  21341367.1254                   21341372.8794
 119745804.77447  93308366.51843  22786839.9304                   22786848.4734
 114997914.506 8                  21883361.008
 116998450.61547  91167677.82644  22264059.0164                   22264067.0744
 11  7 25  0 52  0.0000000  0  8G12G04G27G09G02G28G17G10
 124232680.400 6                  23640677.242
 105168097.44848  81949186.67546  20012793.0474                   20012800.3984
 118449798.52547  92298710.58945  22540275.9844                   22540284.2704
 116300910.09347  90624140.45645  22131326.1254                   22131334.5784
 112095401.10248  87347103.51946  21331014.0394                   21331019.4734
 119824651.54747  93369805.51343  22801843.3834                   22801852.1174
 115036221.882 7                  21890650.992
 116917201.95347  91104367.24444  22248597.8284                   22248606.1844
 11  7 25  0 52 30.0000000  0  8G12G04G27G09G02G28G17G10
 124137304.271 6                  23622528.289
 105195296.79948  81970380.98246  20017969.1174                   20017976.4344
 118476593.22947  92319589.53445  22545375.0474                   22545383.5394
 116323146.92547  90641467.82945  22135557.5864                   22135565.9844
 112041356.69248  87304991.02946  21320729.0944                   21320734.9804
 119903827.01147  93431500.59843  22816911.0554                   22816919.2304
 115074620.479 8                  21897958.000
 116836249.17147  91041287.20645  22233193.0704                   22233201.7854
 11  7 25  0 53  0.0000000  0  8G12G04G27G09G02G28G17G10
 124042010.719 6                  23604394.664
 105222983.33848  81991954.90846  20023237.4304                   20023245.0124
 118503813.38647  92340800.05445  22550554.4384                   22550563.2344
 116345976.97347  90659257.42145  22139902.2664                   22139909.9024
 111987674.70548  87263160.93346  21310513.6954                   21310519.7384
 119983330.77047  93493451.58044  22832039.9304                   22832047.9344
 115113111.121 7                  21905282.320
 116755595.88347  90978440.52245  22217845.2814                   22217853.1844
 11  7 25  0 53 30.0000000  0  8G12G04G27G09G02G28G17G10
 123946801.586 7                  23586275.914
 105251154.30948  82013906.30746  20028598.2274                   20028605.6174
 118531456.68447  92362340.27245  22555815.0234                   22555823.7894
 116369397.88247  90677507.44745  22144358.8524                   22144367.7464
 111934354.92048  87221613.10146  21300367.5474                   21300373.4344
 120063160.62447  93555656.60144  22847230.9144                   22847238.5784
 115151693.021 7                  21912624.461
 116675244.69647  90915829.24945  22202554.9534                   22202562.5084
 11  7 25  0 54  0.0000000  0  8G12G04G27G09G02G28G17G10
 123851679.215 7                  23568175.945
 105279808.34148  82036234.12246  20034050.7734                   20034058.6844
 118559521.89847  92384209.26945  22561155.2584                   22561163.9494
 116393408.30347  90696216.82945  22148927.5784                   22148936.0164
 111881398.46548  87180348.37446  21290289.9774                   21290296.0044
 120143315.81447  93618115.17744  22862484.1564                   22862492.2504
 115190367.194 7                  21919983.750
 116595199.37647  90853456.31545  22187322.5394                   22187330.8284
 11  7 25  0 54 30.0000000  0  8G12G04G27G09G02G28G17G10
 123756645.842 7                  23550091.234
 105308943.41548  82058936.77846  20039595.0864                   20039602.9884
 118588007.14847  92406405.54645  22566576.2814                   22566585.1214
 116418006.17547  90715383.92645  22153608.8984                   22153617.6294
 111828805.52948  87139366.90746  21280281.9844                   21280287.7424
 120223795.34147  93680826.44844  22877798.9534                   22877807.0234
 115229133.328 8                  21927360.867
 116515463.04547  90791324.17945  22172148.9304                   22172158.1214
 11  7 25  0 55  0.0000000  0  8G12G04G27G09G02G28G17G10
 123661703.705 7                  23532023.789
 105338557.75748  82082012.86846  20045230.7194                   20045237.6214
 118616910.73847  92428927.83345  22572075.8834                   22572085.3014
 116443189.70447  90735007.39145  22158401.5944                   22158409.3014
 111776576.30048  87098668.86346  21270342.7274                   21270348.9574
 120304598.06747  93743789.60144  22893174.5704                   22893183.5084
 115267991.542 7                  21934754.898
 116436039.05947  90729435.43145  22157035.1644                   22157044.0744
 11  7 25  0 55 30.0000000  0  9G12G05G04G27G09G02G28G17G10
 123566854.362 7                  23513975.578
 130829701.38815                  24896063.203
 105368649.13948  82105460.70146  20050956.4064                   20050963.9534
 118646230.80747  92451774.64145  22577655.5314                   22577664.6294
 116468956.99247  90755085.76845  22163304.2034                   22163312.5234
 111724711.07448  87058254.43946  21260473.4924                   21260479.0744
 120385722.47947  93807003.38243  22908612.5084                   22908620.7704
 115306942.462 7                  21942167.141
 116356930.29847  90667792.28245  22141981.5004                   22141989.5394
 11  7 25  0 56  0.0000000  0  9G12G05G04G27G09G02G28G17G10
 123472100.712 7                  23495944.648
 130725834.833 5                  24876298.047
 105399216.35848  82129279.30946  20056773.4304                   20056780.8984
 118675965.98547  92474944.90445  22583314.0234                   22583322.9884
 116495306.90247  90775618.10845  22168318.3204                   22168327.5084
 111673210.88848  87018124.47546  21250673.0474                   21250678.9534
 120467167.80447  93870467.20343  22924111.4534                   22924118.7894
 115345986.310 7                  21949597.000
 116278140.53747  90606397.68645  22126988.0634                   22126996.3794
 11  7 25  0 56 30.0000000  0  9G12G05G04G27G09G02G28G17G10
 123377444.652 7                  23477931.273
 130621855.381 6                  24856511.867
 105430257.04448  82153466.85346  20062680.5084                   20062687.7194
 118706114.10647  92498436.94345  22589050.9144                   22589059.3634
 116522236.98047  90796602.51945  22173443.8364                   22173452.1684
 111622075.38548  86978278.67446  21240942.3134                   21240948.1684
 120548932.49546  93934179.93343  22939670.3284                   22939678.4304
 115385122.957 8                  21957044.742
 116199672.76247  90545254.02045  22112055.9144                   22112064.7234
 11  7 25  0 57  0.0000000  0  9G12G05G04G27G09G02G28G17G10
 123282888.382 7                  23459938.383
 130517765.600 6                  24836703.891
 105461769.14748  82178021.72546  20068677.0004                   20068684.0904
 118736673.77847  92522249.66245  22594866.0314                   22594875.5824
 116549745.36547  90818037.57645  22178678.0554                   22178687.1174
 111571305.04648  86938717.41446  21231281.2424                   21231287.1644
 120631015.38146  93998140.58043  22955290.6724                   22955298.2194
 115424352.880 7                  21964509.328
 116121530.39947  90484363.90945  22097186.1334                   22097195.0514
 11  7 25  0 57 30.0000000  0  9G12G05G04G27G09G02G28G17G10
 123188434.162 7                  23441964.430
 130413568.335 6                  24816875.422
 105493751.14748  82202942.75846  20074762.9304                   20074770.2934
 118767643.34647  92546381.78245  22600759.1954                   22600768.8404
 116577830.27947  90839921.88845  22184022.3284                   22184030.6724
 111520900.57848  86899441.26346  21221689.5084                   21221694.9924
 120713415.46746  94062348.36043  22970970.5234                   22970978.9694
 115463676.520 7                  21971992.531
 116043716.78847  90423729.98145  22082378.9694                   22082387.3834
 11  7 25  0 58  0.0000000  0  9G12G05G04G27G09G02G28G17G10
 123094084.634 6                  23424009.586
 130309265.848 5                  24797026.789
 105526201.33948  82228228.60546  20080938.2974                   20080945.3634
 118799021.27647  92570832.09145  22606730.9454                   22606739.2074
 116606490.01947  90862254.08745  22189476.4844                   22189484.6684
 111470862.54748  86860450.62646  21212167.8444                   21212173.1024
 120796131.58046  94126802.36842  22986710.1644                   22986719.2814
 115503094.367 7                  21979493.594
 115966235.37347  90363354.88045  22067634.6334                   22067642.8404
 11  7 25  0 58 30.0000000  0  9G12G05G04G27G09G02G28G17G10
 122999842.018 7                  23406076.438
 130204860.66715                  24777156.344
 105559117.25448  82253877.37446  20087201.8364                   20087209.3714
 118830805.42847  92595598.95345  22612778.8284                   22612787.9614
 116635722.39747  90885032.51445  22195039.1254                   22195047.2664
 111421190.78048  86821745.41146  21202715.2894                   21202720.8834
 120879162.36246  94191501.69042  23002511.5704                   23002518.8754
 115542606.218 8                  21987012.672
 115889089.08847  90303240.94045  22052954.1254                   22052962.0864
 11  7 25  0 59  0.0000000  0  9G12G05G04G27G09G02G28G17G10
 122905708.371 7                  23388163.328
 130100355.144 5                  24757271.406
 105592497.03048  82279887.58746  20093553.6804                   20093560.8674
 118862993.79247  92620680.79045  22618904.2274                   22618912.7544
 116665525.34147  90908255.53845  22200710.2584                   22200718.9024
 111371885.37648  86783325.65146  21193332.6484                   21193338.6724
 120962506.25646  94256445.00642  23018371.0634                   23018378.8054
 115582212.465 8                  21994549.547
 115812280.69447  90243390.29645  22038337.7584                   22038346.4924
 11  7 25  0 59 30.0000000  0  9G12G05G04G27G09G02G28G17G10
 122811685.832 7                  23370270.891
 129995752.047 5                  24737366.078
 105626339.07648  82306258.01346  20099993.4614                   20100000.8554
 118895584.93747  92646076.45245  22625106.2114                   22625114.8484
 116695897.13347  90931921.80445  22206490.3914                   22206498.1214
 111322947.22548  86745192.06146  21184020.0634                   21184025.5514
 121046162.52546  94321631.59942  23034289.1484                   23034298.3754
 115621913.422 7                  22002104.188
 115735814.26547  90183806.11345  22023786.9384                   22023794.8914
 11  7 25  1  0  0.0000000  0  9G12G05G04G27G09G02G28G17G10
 122717776.748 7                  23352400.445
 129891053.635 5                  24717441.836
 105660641.15248  82332986.89946  20106521.0164                   20106528.1604
 118928576.66547  92671784.25545  22631384.0474                   22631393.7584
 116726835.41247  90956029.52445  22212376.9454                   22212386.1374
 111274376.24948  86707344.59546  21174776.9924                   21174782.8554
 121130129.56046  94387060.40242  23050267.9384                   23050276.5164
 115661709.451 7                  22009677.156
 115659692.85047  90124490.78645  22009301.1724                   22009309.7584
 11  7 25  1  0 30.0000000  0  9G12G05G04G27G09G02G28G17G10
 122623983.415 7                  23334552.391
 129786262.379 5                  24697501.219
 105695400.92648  82360072.43446  20113135.4774                   20113143.1454
 118961967.08447  92697802.72545  22637738.1094                   22637747.1174
 116758338.02047  90980576.96945  22218371.8364                   22218380.7384
 111226172.73848  86669783.44246  21165604.6884                   21165609.9804
 121214405.84846  94452730.20942  23066306.1564                   23066314.4384
 115701600.444 8                  22017268.320
 115583919.16947  90065446.42445  21994881.8054                   21994890.2854
 11  7 25  1  1  0.0000000  0  9G12G05G04G27G09G02G28G17G10
 122530307.689 7                  23316726.305
 129681380.941 5                  24677543.398
 105730616.45548  82387513.11946  20119836.6334                   20119844.2114
 118995754.40447  92724130.46245  22644167.2194                   22644176.4964
 116790403.06947  91005562.68745  22224474.2814                   22224482.7734
 111178336.88148  86632508.78046  21156501.5864                   21156506.9804
 121298990.37846  94518640.14942  23082401.8594                   23082411.1254
 115741586.857 7                  22024877.375
 115508496.80947  90006675.80445  21980529.0084                   21980538.1844
 11  7 25  1  1 30.0000000  0  9G12G05G04G27G09G02G28G17G10
 122436751.964 7                  23298923.563
 129576412.102 5                  24657569.133
 105766285.94348  82415307.52546  20126624.8204                   20126632.1254
 119029936.79547  92750766.07445  22650672.0164                   22650680.9064
 116823028.37647  91030984.97645  22230682.4614                   22230690.7154
 111130868.80248  86595520.70146  21147468.5944                   21147474.4384
 121383881.58446  94584789.03643  23098555.9614                   23098565.0864
 115781668.968 7                  22032504.703
 115433428.86547  89948181.34345  21966244.5634                   21966252.4964
 11  7 25  1  2  0.0000000  0  9G12G05G04G27G09G02G28G17G10
 122343318.871 7                  23281143.625
 129471358.529 5                  24637577.508
 105802407.74748  82443454.38746  20133498.4924                   20133505.2274
 119064512.51647  92777708.14044  22657251.9224                   22657260.4614
 116856212.11547  91056842.40945  22236997.2424                   22237005.9614
 111083769.39348  86558819.90046  21138505.7114                   21138511.1214
 121469078.62746  94651176.35442  23114768.5004                   23114776.6684
 115821847.405 7                  22040150.969
 115358718.77547  89889965.73645  21952027.8594                   21952036.3054
 11  7 25  1  2 30.0000000  0  9G12G05G04G27G09G02G28G17G10
 122250010.486 7                  23263387.406
 129366222.286 5                  24617570.844
 105838979.09648  82471951.54646  20140457.6564                   20140465.1214
 119099479.31247  92804954.94544  22663906.2344                   22663914.9144
 116889951.83847  91083133.08145  22243417.9064                   22243425.8404
 111037038.23648  86522406.04446  21129612.9454                   21129618.4574
 121554579.61846  94717800.35443  23131040.3204                   23131047.1054
 115862122.097 7                  22047814.750
 115284369.03247  89832030.91045  21937879.6174                   21937887.5044
 11  7 25  1  3  0.0000000  0  9G12G05G04G27G09G02G28G17G10
 122156829.134 7                  23245655.695
 129261006.014 5                  24597546.305
 105875998.30148  82500797.65846  20147502.2194                   20147509.8984
 119134835.53947  92832505.24144  22670634.0784                   22670642.7544
 116924245.57147  91109855.43745  22249943.7424                   22249952.6684
 110990675.72048  86486279.43546  21120790.6094                   21120796.3404
 121640383.37547  94784660.46743  23147367.4924                   23147375.2424
 115902493.714 7                  22055496.695
 115210383.56247  89774379.94145  21923800.5394                   21923808.4064
 11  7 25  1  3 30.0000000  0  9G12G05G04G27G09G02G28G17G10
 122063777.234 7                  23227947.906
 129155712.867 5                  24577510.453
 105913463.39348  82529991.23746  20154631.5004                   20154638.7664
 119170579.08746  92860357.32544  22677435.7504                   22677444.8984
 116959091.10647  91137007.81045  22256574.6484                   22256583.3594
 110944681.89248  86450440.14146  21112038.2114                   21112044.0474
 121726488.47246  94851755.29042  23163751.9614                   23163760.1054
 115942962.459 7                  22063198.117
 115136765.19347  89717015.02645  21909791.0234                   21909799.6484
 11  7 25  1  4  0.0000000  0  9G12G05G04G27G09G02G28G17G10
 121970857.287 7                  23210266.008
 129050345.067 6                  24557458.938
 105951372.24648  82559530.59346  20161845.6334                   20161852.9264
 119206708.17647  92888509.82345  22684311.0164                   22684319.7734
 116994486.00047  91164588.20745  22263309.9384                   22263318.4884
 110899057.16148  86414888.42546  21103356.1954                   21103361.7504
 121812893.72946  94919083.97242  23180195.4614                   23180203.0394
 115983528.361 7                  22070917.547
 115063517.25047  89659938.76545  21895852.2814                   21895861.1804
 11  7 25  1  4 30.0000000  0  9G12G05G04G27G09G02G28G17G10
 121878071.355 7                  23192609.398
 128944904.689 6                  24537394.820
 105989722.52548  82589413.94346  20169143.2424                   20169150.3244
 119243220.40847  92916960.85144  22691259.1484                   22691267.4344
 117030427.76247  91192594.76545  22270149.0164                   22270157.5354
 110853801.53648  86379624.32846  21094744.3914                   21094749.8754
 121899597.74446  94986645.46742  23196694.8674                   23196702.4184
 116024192.037 7                  22078655.328
 114990642.41147  89603153.23045  21881984.3754                   21881992.9064
 11  7 25  1  5  0.0000000  0  9G12G05G04G27G09G02G28G17G10
 121785421.691 7                  23174978.508
 128839394.999 6                  24517316.008
 106028512.15648  82619639.61846  20176524.6254                   20176531.8094
 119280113.85347  92945708.95744  22698279.9774                   22698288.8914
 117066914.49547  91221025.93945  22277092.6954                   22277100.9654
 110808914.84848  86344647.72746  21086202.3984                   21086208.1094
                                  23213247.3674                   23213257.8324
 116064953.445 7                  22086412.156
 114918144.07947  89546661.07445  21868188.4614                   21868196.7584
 11  7 25  1  5 30.0000000  0  9G12G05G04G27G09G02G28G17G10
 121692910.964 7                  23157374.344
 128733818.280 6                  24497226.047
 106067739.16648  82650206.12946  20183989.1174                   20183996.1684
 119317386.80947  92974752.80745  22705372.5704                   22705381.6844
 117103943.89247  91249880.00345  22284139.4774                   22284147.5084
 110764397.87948  86309959.20446  21077731.4774                   21077736.6994
 122073895.34215                  23229862.258
 116105813.201 7                  22094187.258
 114846025.83847  89490465.08845  21854464.5634                   21854473.0984
 11  7 25  1  6  0.0000000  0  9G12G05G04G27G09G02G28G17G10
 121600541.269 7                  23139797.063
 128628177.154 5                  24477122.477
 106107401.91148  82681112.15846  20191536.9224                   20191544.4264
 119355037.24647  93004090.77345  22712537.1564                   22712546.2854
 117141513.75947  91279155.21045  22291288.7274                   22291296.5044
 110720250.57548  86275558.73246  21069330.7034                   21069335.8324
 122161486.498 6                  23246531.656
 116146771.754 7                  22101982.031
 114774290.65147  89434567.58545  21840813.9774                   21840822.6054
 11  7 25  1  6 30.0000000  0  9G12G05G04G27G09G02G28G17G10
 121508314.745 7                  23122246.945
 128522474.189 6                  24457008.570
 106147497.70448  82712355.63546  20199166.7734                   20199174.2154
 119393062.88947  93033721.13545  22719773.2664                   22719782.2154
 117179621.52847  91308849.55145  22298540.5164                   22298548.7034
 110676472.86648  86241446.25946  21060999.9224                   21061005.1604
 122249370.44446  95259170.41252  23263254.2424                   23263262.7774
 116187829.394 7                  22109795.266
 114702941.44147  89378970.85845  21827237.0784                   21827245.9844
 11  7 25  1  7  0.0000000  0  9G12G05G04G27G09G02G28G17G10
 121416233.824 7                  23104724.703
 128416712.491 5                  24436882.336
 106188024.43348  82743934.90146  20206878.7584                   20206886.3054
 119431461.55147  93063642.13444  22727080.4694                   22727088.7664
 117218264.85847  91338961.20245  22305893.7424                   22305902.1914
 110633064.64748  86207621.69146  21052739.8594                   21052745.1024
 122337545.56946  95327878.27752  23280033.2584                   23280041.5004
 116228986.285 7                  22117626.625
 114631981.11047  89323677.13145  21813733.7344                   21813741.6564
 11  7 25  1  7 30.0000000  0  9G12G05G04G27G09G02G28G17G10
 121324300.988 7                  23087230.078
 128310894.253 5                  24416745.125
 106228979.83648  82775848.19946  20214672.5474                   20214679.5904
 119470231.29547  93093852.30044  22734457.7274                   22734466.9064
 117257441.19447  91369488.17745  22313348.9694                   22313357.2234
 110590026.17748  86174085.23846  21044549.4774                   21044555.2344
 122426010.49746  95396811.98842  23296866.9224                   23296876.0664
 116270242.719 7                  22125477.016
 114561412.92847  89268688.96845  21800305.2584                   21800313.2344
 11  7 25  1  8  0.0000000  0  9G12G05G04G27G09G02G28G17G10
 121232518.915 7                  23069764.656
 128205021.944 6                  24396597.922
 106270362.19148  82808094.17146  20222547.3594                   20222554.7814
 119509370.28447  93124350.17944  22741906.4694                   22741914.8484
 117297148.46647  91400428.88045  22320904.7974                   22320913.3204
 110547357.65548  86140837.06946  21036429.6564                   21036435.3634
 122514764.03346  95465970.49842  23313757.0634                   23313766.2464
 116311599.293 7                  22133347.719
 114491239.93147  89214008.77345  21786951.1724                   21786960.1414
 11  7 25  1  8 30.0000000  0  9G12G05G04G27G09G02G28G17G10
 121140889.552 7                  23052328.242
 128099098.302 6                  24376441.375
 106312169.10248  82840670.99146  20230502.7034                   20230509.8014
 119548876.19846  93155134.00144  22749424.2114                   22749432.1684
 117337384.08247  91431781.29445  22328561.6644                   22328570.1334
 110505058.98748  86107877.08746  21028380.7974                   21028386.1134
 122603804.547 6                  23330699.969
 116353056.205 7                  22141236.695
 114421464.88647  89159638.64845  21773673.8054                   21773682.0164
 11  7 25  1  9  0.0000000  0  9G12G05G04G27G09G02G28G17G10
 121049415.232 7                  23034920.953
 127993126.169 6                  24356275.648
 106354398.30748  82873576.86046  20238538.7424                   20238546.2274
 119588746.93947  93186202.10145  22757011.1334                   22757019.2544
 117378145.70947  91463543.58845  22336318.4224                   22336327.3014
 110463130.14048  86075205.27346  21020402.1804                   21020407.6134
 122693130.452 6                  23347698.391
 116394613.901 7                  22149144.445
 114352091.31447  89105581.38745  21760472.4844                   21760480.8754
 11  7 25  1  9 30.0000000  0  9G12G05G04G27G09G02G28G17G10
 120958098.656 7                  23017543.430
 127887108.084 6                  24336100.367
 106397047.81048  82906810.23746  20246654.5474                   20246661.6764
 119628980.35947  93217552.82245  22764667.1804                   22764675.9454
 117419430.71547  91495713.70645  22344174.4534                   22344183.1214
 110421571.40548  86042821.85946  21012493.5474                   21012499.0124
 122782740.433 6                  23364751.570
 116436272.694 7                  22157071.445
 114283122.49048  89051839.47945  21747347.9694                   21747355.7304
 11  7 25  1 10  0.0000000  0  9G12G05G04G27G09G02G28G17G10
 120866942.256 7                  23000197.500
 127781047.080 6                  24315918.445
 106440115.56648  82940369.52146  20254850.1564                   20254857.6214
 119669574.46847  93249184.58245  22772391.4614                   22772400.8634
 117461236.80047  91528289.88045  22352130.2734                   22352138.0944
 110380382.92748  86010726.96046  21004655.7194                   21004660.9344
 122872632.52246  95744827.14852  23381856.1414                   23381865.1604
 116478033.195 7                  22165018.820
 114214561.09347  88998415.03845  21734300.8284                   21734309.2664
 11  7 25  1 10 30.0000000  0  9G12G05G04G27G09G02G28G17G10
 120775948.478 7                  22982882.414
 127674945.557 6                  24295727.719
 106483599.10348  82974252.78846  20263124.9924                   20263132.4264
 119710526.80147  93281095.46344  22780184.6024                   22780194.3794
 117503561.37047  91561270.04445  22360183.2114                   22360192.7934
 110339564.32948  85978920.28646  20996888.0474                   20996893.3204
 122962805.36546  95815091.60542  23399016.6254                   23399025.0784
 116519895.369 7                  22172985.023
 114146410.08347  88945310.42845  21721332.5784                   21721340.8714
 11  7 25  1 11  0.0000000  0  9G12G05G04G27G09G02G28G17G10
 120685119.433 7                  22965597.719
 127568806.190 6                  24275529.922
 106527496.03148  83008458.18146  20271478.2974                   20271485.7894
 119751835.08147  93313283.70945  22788045.0474                   22788054.4264
 117546401.86447  91594652.22145  22368336.3204                   22368344.0434
 110299115.66148  85947401.86546  20989190.8834                   20989196.7154
 123053257.40146  95885573.73542  23416228.5234                   23416237.1564
 116561859.615 7                  22180970.492
 114078672.49547  88892527.95445  21708442.0314                   21708449.9104
 11  7 25  1 11 30.0000000  0  9G12G05G04G27G09G02G28G17G10
 120594457.666 7                  22948345.516
 127462631.656 6                  24255325.141
 106571804.80748  83042984.50146  20279909.7114                   20279917.0164
 119793497.52347  93345747.93944  22795973.3444                   22795982.6884
 117589755.85347  91628434.53445  22376585.7894                   22376594.8484
 110259037.06248  85916171.80246  20981564.2034                   20981569.6644
 123143987.26946  95956272.34842  23433494.0474                   23433502.7274
 116603926.703 7                  22188975.125
 114011351.78547  88840070.28745  21695631.2194                   21695639.3134
 11  7 25  1 12  0.0000000  0  9G12G05G04G27G09G02G28G17G10
 120503965.633 7                  22931125.281
 127356424.260 6                  24235114.391
 106616522.67848  83077829.57946  20288419.5554                   20288426.7344
 119835511.73347  93378486.23944  22803968.6414                   22803977.6804
 117633620.60747  91662614.84945  22384933.8594                   22384942.4494
 110219328.26448  85885229.90046  20974008.0314                   20974013.3524
 123234993.04355  96027185.86752  23450811.3364                   23450821.5004
 116646096.769 7                  22197000.477
 113944450.28147  88787939.27045  21682900.8204                   21682908.6524
 11  7 25  1 12 30.0000000  0  9G12G05G04G27G09G02G28G17G10
 120413645.625 7                  22913937.828
 127250187.940 6                  24214898.039
 106661647.72648  83112991.94346  20297006.3524                   20297013.2304
 119877875.81146  93411497.18944  22812030.2584                   22812039.2304
 117677993.72047  91697191.30545  22393376.6484                   22393385.9964
 110179989.64948  85854576.47146  20966521.8284                   20966527.0474
                                  23468180.0704                   23468190.9454
 116688370.215 7                  22205044.789
 113877971.67547  88736137.84145  21670250.1024                   21670258.2624
 11  7 25  1 13  0.0000000  0  9G12G05G04G27G09G02G28G17G10
 120323500.290 7                  22896784.219
 127143924.416 6                  24194675.906
 106707177.56548  83148469.72946  20305670.4454                   20305678.0634
 119920587.34246  93444778.90244  22820157.6484                   22820166.4574
 117722872.36247  91732161.65645  22401917.5864                   22401926.2734
 110141020.97448  85824211.26546  20959106.4844                   20959111.8984
 123417827.26645  96169654.07142  23485603.1174                   23485612.7234
 116730747.610 7                  22213108.898
 113811918.46347  88684667.83145  21657680.3444                   21657688.0784
 11  7 25  1 13 30.0000000  0  9G12G05G04G27G09G02G28G17G10
 120233531.969 7                  22879663.484
 127037636.015 6                  24174449.906
 106753109.85248  83184261.10946  20314410.9384                   20314418.3954
 119963643.89546  93478329.43644  22828350.9224                   22828360.9694
 117768253.96347  91767523.95844  22410552.8134                   22410561.4304
 110102421.67548  85794133.91946  20951761.2344                   20951766.9494
 123509651.64345  96241205.55842  23503078.1484                   23503086.1174
 116773228.994 7                  22221193.305
 113746293.31447  88633531.42145  21645192.5084                   21645200.4734
 11  7 25  1 14  0.0000000  0  9G12G05G04G27G09G02G28G17G10
 120143742.920 7                  22862577.555
 126931326.050 6                  24154219.344
 106799442.62948  83220364.55646  20323228.1174                   20323235.6764
 120007043.40846  93512147.20344  22836610.0314                   22836619.3364
 117814136.20347  91803276.34745  22419284.5634                   22419293.1764
 110064192.10448  85764344.66446  20944486.2504                   20944491.9694
 123601745.82745  96312967.24442  23520601.6884                   23520611.1994
 116815815.087 7                  22229296.289
 113681099.70447  88582731.24245  21632786.6724                   21632794.6134
 11  7 25  1 14 30.0000000  0  9G12G05G04G27G09G02G28G17G10
 120054135.834 7                  22845525.664
 126824997.292 5                  24133986.609
 106846173.53748  83256778.24746  20332120.5944                   20332128.0744
 120050783.86447  93546230.62944  22844933.3594                   22844942.4884
 117860516.21947  91839416.60745  22428110.3284                   22428118.8954
 110026332.21648  85734843.47346  20937281.6954                   20937287.6334
 123694108.27645  96384937.91242  23538178.3914                   23538187.4414
 116858506.314 7                  22237420.766
 113616340.33747  88532269.45345  21620463.3674                   21620471.3484
 11  7 25  1 15  0.0000000  0  9G12G05G04G27G09G02G28G17G10
 119964712.812 7                  22828508.945
 126718652.090 6                  24113749.242
 106893300.07848  83293500.20346  20341088.4844                   20341095.8954
 120094862.40146  93580577.50044  22853321.4614                   22853329.9494
 117907391.08347  91875942.49245  22437030.1724                   22437039.3054
 109988841.49948  85705629.94746  20930147.6954                   20930153.0124
 123786737.07846  96457116.15543  23555805.8754                   23555814.1844
 116901302.616 7                  22245564.633
 113552017.66447  88482147.94545  21608222.8054                   21608230.8164
 11  7 25  1 15 30.0000000  0  9G12G05G04G27G09G02G28G17G10
 119875476.822 7                  22811527.195
 126612293.830 6                  24093510.289
 106940820.62748  83330529.21146  20350131.1024                   20350138.6954
 120139277.33147  93615186.50544  22861773.1954                   22861782.2974
 117954758.52247  91912852.16145  22446043.9454                   22446052.8094
 109951720.62848  85676704.61646  20923083.7034                   20923088.9774
 123879630.76346  96529500.77643  23573482.8754                   23573491.7504
 116944204.957 8                  22253728.430
 113488135.44747  88432369.63445  21596066.5234                   21596073.9534
 11  7 25  1 16  0.0000000  0  9G12G05G04G27G09G02G28G17G10
 119786430.117 7                  22794582.266
 126505924.949 7                  24073269.406
 106988732.51648  83367863.13646  20359248.4924                   20359255.6024
 120184026.03546  93650055.57544  22870288.9144                   22870297.7034
 118002615.65447  91950143.43044  22455150.3364                   22455159.7234
 109914969.01648  85648067.01546  20916090.2194                   20916095.5864
 123972787.38746  96602090.38143  23591209.6414                   23591217.6684
 116987213.492 8                  22261912.563
 113424696.32347  88382936.61445  21583994.5234                   21584002.8244
 11  7 25  1 16 30.0000000  0  9G12G05G04G27G09G02G28G17G10
 119697575.027 7                  22777673.836
 126399548.103 7                  24053026.125
 107037033.42748  83405500.20446  20368440.1804                   20368447.6414
 120229106.20347  93685182.93644  22878867.4774                   22878876.3954
 118050959.43047  91987813.92045  22464350.5314                   22464360.0394
 109878586.29348  85619716.86646  20909166.7424                   20909172.1334
 124066205.49446  96674883.66343  23608986.4694                   23608995.0004
 117030328.603 7                  22270117.320
 113361703.24947  88333851.16845  21572006.8914                   21572014.5514
 11  7 25  1 17  0.0000000  0  9G12G05G04G27G09G02G28G17G10
 119608914.079 7                  22760802.133
 126293165.963 7                  24032781.977
 107085720.94848  83443438.52446  20377704.8754                   20377711.8524
 120274515.60447  93720566.84244  22887508.7584                   22887517.6454
 118099787.05747  92025861.43645  22473641.0784                   22473650.3874
 109842572.42048  85591654.12746  20902313.6804                   20902319.0044
 124159883.15846  96747879.22743  23626813.1414                   23626820.9144
 117073550.761 7                  22278342.156
 113299158.66947  88285115.16945  21560105.0474                   21560113.5744
 11  7 25  1 17 30.0000000  0  9G12G05G04G27G09G02G28G17G10
 119520449.767 7                  22743968.008
 126186781.759 6                  24012537.078
 107134792.96248  83481676.44846  20387042.9384                   20387050.7934
 120320251.88147  93756205.46644  22896211.6954                   22896220.7274
 118149095.91547  92064283.90645  22483024.9304                   22483034.0474
 109806927.31148  85563878.74346  20895530.0554                   20895535.4804
 124253818.74046  96821075.73443  23644688.9064                   23644696.5984
 117116880.663 8                  22286587.781
 113237065.86247  88236731.22045  21548289.2974                   21548297.4414
 11  7 25  1 18  0.0000000  0  9G12G05G04G27G09G02G28G17G10
 119432184.747 7                  22727171.273
 126080397.923 6                  23992292.195
 107184247.37548  83520212.35946  20396453.7974                   20396461.5234
 120366312.75747  93792096.98844  22904977.0394                   22904985.4264
 118198883.52647  92103079.42044  22492499.3444                   22492508.1644
 109771651.05148  85536390.78346  20888817.7114                   20888823.0514
 124348010.82346  96894472.15944  23662612.0554                   23662621.1294
 117160318.474 8                  22294852.992
 113175427.37047  88188701.28245  21536559.9694                   21536567.6134
 11  7 25  1 18 30.0000000  0  9G12G05G04G27G09G02G28G17G10
 119344121.398 7                  22710413.992
 125974017.362 7                  23972049.438
 107234082.15048  83559044.64746  20405937.2274                   20405944.8164
 120412695.96847  93828239.71344  22913803.3364                   22913812.5274
 118249147.15247  92142245.89844  22502064.2974                   22502072.7304
 109736743.32248  85509189.98246  20882174.7734                   20882179.6844
 124442457.55646  96968067.03443  23680584.3444                   23680593.7814
 117203865.094 8                  22303140.438
 113114246.51047  88141027.92145  21524917.5394                   21524925.5434
 11  7 25  1 19  0.0000000  0  9G12G05G04G27G09G02G28G17G10
 119256262.287 7                  22693694.711
 125867642.659 6                  23951806.852
 107284294.84448  83598171.43146  20415491.8134                   20415500.1294
 120459399.18547  93864631.78744  22922690.9384                   22922700.4694
 118299883.90947  92181781.02544  22511719.1094                   22511727.8594
 109702203.92448  85482276.18546  20875602.2344                   20875607.0394
 124537157.54346  97041859.17343  23698604.4144                   23698613.7704
 117247520.452 7                  22311447.633
 113053525.96047  88093713.24545  21513362.9924                   21513370.8674
 11  7 25  1 19 30.0000000  0  9G12G05G04G27G09G02G28G17G10
 119168609.508 7                  22677015.656
 125761276.640 6                  23931566.516
 107334882.56748  83637590.44146  20425118.3914                   20425126.2544
 120506419.69446  93901271.05644  22931638.7274                   22931647.9184
 118351090.67847  92221682.38745  22521463.6024                   22521472.5204
 109668032.22448  85455648.91446  20869099.4064                   20869104.4884
 124632108.73646  97115847.08843  23716674.4224                   23716682.5124
 117291284.853 7                  22319775.094
 112993267.96047  88046758.99145  21501896.3754                   21501903.8794
 11  7 25  1 20  0.0000000  0  9G12G05G04G27G09G02G28G17G10
 119081166.039 7                  22660374.867
 125654922.189 7                  23911327.773
 107385843.60048  83677300.33346  20434816.3284                   20434823.6254
 120553755.34247  93938155.91944  22940646.5784                   22940655.2274
 118402764.88247  92261947.99345  22531296.5864                   22531305.8594
 109634228.39548  85429308.29346  20862666.7114                   20862671.7424
 124727309.13446  97190029.21143  23734790.8754                   23734798.0204
 117335158.944 7                  22328124.086
 112933475.72547  88000167.66545  21490517.6954                   21490525.8164
 11  7 25  1 20 30.0000000  0  9G12G05G04G27G09G02G28G17G10
 118993934.203 7                  22643775.461
 125548582.180 7                  23891091.438
 107437175.36748  83717299.11746  20444583.9454                   20444591.8954
 120601403.63447  93975284.36944  22949713.8914                   22949723.3054
 118454903.43247  92302575.38744  22541219.1644                   22541227.0274
 109600791.86948  85403253.88446  20856303.8134                   20856309.2384
 124822756.87647  97264404.07544  23752953.5944                   23752961.7704
 117379143.168 7                  22336494.375
 112874151.70847  87953941.20645  21479228.8364                   21479236.7194
 11  7 25  1 21  0.0000000  0  9G12G05G04G27G09G02G28G17G10
 118906916.318 7                  22627215.992
 125442258.994 7                  23870858.609
 107488875.60648  83757585.01246  20454422.4614                   20454429.6994
 120649362.35447  94012654.76644  22958839.7504                   22958848.7034
 118507503.48247  92343562.44244  22551228.2034                   22551236.1804
 109567722.48748  85377485.56546  20850011.0004                   20850016.1804
 124918450.42247  97338970.45043  23771163.7424                   23771171.4964
 117423238.188 7                  22344886.078
 112815298.97747  87908081.98345  21468029.4144                   21468037.5944
 11  7 25  1 21 30.0000000  0  9G12G05G04G27G09G02G28G17G10
 118820115.252 7                  22610698.820
 125335955.961 7                  23850629.414
 107540942.01448  83798156.24346  20464330.5784                   20464338.2584
 120697629.25547  94050265.26644  22968024.7814                   22968033.7894
 118560562.43747  92384907.06745  22561324.9924                   22561333.8284
 109535020.38548  85352003.43746  20843788.2894                   20843793.0234
 125014388.45447  97413727.32243  23789420.0474                   23789428.1764
 117467444.206 7                  22353297.781
 112756920.47747  87862592.29545  21456920.3674                   21456928.3204
 11  7 25  1 22  0.0000000  0  9G12G05G04G27G09G02G28G17G10
 118733533.752 7                  22594223.055
 125229676.032 7                  23830404.297
 107593372.62448  83839011.26046  20474307.6414                   20474315.3634
 120746201.77446  94088113.93144  22977267.8914                   22977277.1414
 118614076.98947  92426606.70144  22571508.3284                   22571517.0664
 109502685.42348  85326807.38746  20837635.0704                   20837640.0744
 125110568.98446  97488673.21843  23807721.7034                   23807730.9104
 117511762.039 7                  22361730.734
 112699018.76747  87817474.11845  21445902.1414                   21445910.0634
 11  7 25  1 22 30.0000000  0  9G12G05G04G27G09G02G28G17G10
 118647173.658 7                  22577788.680
 125123421.750 7                  23810184.844
 107646164.73048  83880147.97546  20484353.9454                   20484360.9454
 120795077.27847  94126198.66644  22986568.0084                   22986577.4144
 118668044.18547  92468659.02545  22581777.8524                   22581786.9494
 109470716.82148  85301896.81846  20831551.4534                   20831556.8484
 125206990.47646  97563806.73543  23826069.6884                   23826079.0744
 117556191.756 8                  22370185.547
 112641596.11647  87772729.24245  21434974.8674                   21434982.4574
 11  7 25  1 23  0.0000000  0  9G12G05G04G27G09G02G28G17G10
 118561037.762 7                  22561397.828
 125017195.829 7                  23789971.383
 107699316.09748  83921564.62646  20494468.2274                   20494475.5984
 120844253.50047  94164517.73944  22995926.7504                   22995935.4184
 118722461.37847  92511062.00244  22592133.3364                   22592141.8404
 109439114.17248  85277271.41046  20825537.6414                   20825542.6054
 125303650.55346  97639126.23143  23844464.7584                   23844472.8794
 117600733.905 7                  22378661.727
 112584655.95148  87728360.34445  21424139.5164                   21424147.2274
 11  7 25  1 23 30.0000000  0  9G12G05G04G27G09G02G28G17G10
 118475128.642 7                  22545049.961
 124911001.174 7                  23769763.352
 107752824.56148  83963259.52146  20504650.6254                   20504657.8014
 120893727.86747  94203069.09344  23005341.9224                   23005350.9454
 118777325.59547  92553813.29344  22602572.9844                   22602582.1724
 109407877.32348  85252931.01846  20819593.3834                   20819598.7584
 125400547.38946  97714630.24543  23862903.2424                   23862912.5084
 117645388.925 7                  22387159.766
 112528200.46047  87684369.10145  21413396.4924                   21413404.2894
 11  7 25  1 24  0.0000000  0  9G12G05G04G27G09G02G28G17G10
 118389448.851 7                  22528745.680
 124804840.642 7                  23749561.359
 107806687.66048  84005230.77246  20514900.1334                   20514907.8634
 120943497.77946  94241850.80344  23014812.1724                   23014821.9454
 118832633.94047  92596910.63844  22613098.8594                   22613106.7894
 109377006.01848  85228875.47646  20813718.7974                   20813723.9304
 125497679.34146  97790317.41943  23881387.2974                   23881395.8014
 117690157.326 7                  22395678.859
 112472232.23548  87640757.54845  21402745.9064                   21402753.9104
 11  7 25  1 24 30.0000000  0  9G12G05G04G27G09G02G28G17G10
 118304000.861 7                  22512485.180
 124698717.004 7                  23729366.609
 107860902.95148  84047476.44746  20525216.8204                   20525224.9804
 120993560.95947  94280860.98044  23024338.5314                   23024348.1764
 118888383.20347  92640351.60444  22623707.3674                   22623715.0434
 109346499.95848  85205104.54346  20807913.9224                   20807918.8444
 125595044.64246  97866186.43742  23899914.7814                   23899923.8594
 117735039.586 7                  22404219.609
 112416753.98648  87597527.78345  21392188.6414                   21392196.0514
 11  7 25  1 25  0.0000000  0  9G12G05G04G27G09G02G28G17G10
 118218787.194 7                  22496270.078
 124592633.125 7                  23709178.680
 107915468.18548  84089994.80646  20535600.2814                   20535608.1604
 121043914.83547  94320097.73344  23033921.4144                   23033930.5204
 118944570.22047  92684133.67545  22634398.7894                   22634407.2234
 109316358.75248  85181617.91046  20802178.0634                   20802182.9884
 125692641.44545  97942235.86242  23918486.5554                   23918495.5984
 117780036.268 7                  22412781.945
 112361767.98048  87554681.59745  21381725.1804                   21381732.7504
 11  7 25  1 25 30.0000000  0  9G12G05G04G27G09G02G28G17G10
 118133810.361 7                  22480099.547
 124486591.909 7                  23689000.367
 107970381.25348  84132784.20546  20546050.2114                   20546057.9344
 121094557.12247  94359559.16444  23043557.9454                   23043568.3914
 119001192.45947  92728254.85144  22645174.1174                   22645182.6914
 109286582.13648  85158415.38146  20796511.6884                   20796517.3284
 125790468.21246  98018464.40442  23937102.2114                   23937111.5944
 117825147.885 7                  22421366.328
 112307277.24748  87512221.31845  21371355.8594                   21371363.6844
 11  7 25  1 26  0.0000000  0  9G12G05G04G27G09G02G28G17G10
 118049072.903 7                  22463974.102
 124380596.389 7                  23668829.406
 108025639.77048  84175842.79846  20556565.4924                   20556572.8444
 121145485.34047  94399243.43944  23053249.4844                   23053259.2814
 119058246.78147  92772712.72844  22656031.1254                   22656040.1724
 109257169.70148  85135496.61846  20790914.2194                   20790919.9064
 125888522.90546  98094870.52342  23955763.3674                   23955771.2734
 117870374.662 7                  22429972.859
 112253284.23148  87470148.88945  21361081.5394                   21361089.5664
 11  7 25  1 26 30.0000000  0  9G12G05G04G27G09G02G28G17G10
 117964577.234 7                  22447895.086
 124274648.853 7                  23648668.320
 108081240.81848  84219168.29146  20567145.8364                   20567153.6454
 121196696.59147  94439148.23544  23062995.4064                   23063003.7854
 119115729.65647  92817504.52244  22666970.0164                   22666978.6644
 109228120.51748  85112860.90846  20785386.8834                   20785392.0434
 125986803.14246  98171452.55242  23974464.9694                   23974473.3094
 117915717.019 7                  22438600.563
 112199791.03148  87428465.91845  21350901.9924                   21350908.9964
 11  7 25  1 27  0.0000000  0  9G12G05G04G27G09G02G28G17G10
 117880326.404 7                  22431862.969
 124168752.821 7                  23628516.945
 108137182.74648  84262759.39846  20577791.2664                   20577799.1684
 121248188.67647  94479271.87144  23072793.8914                   23072802.5944
 119173638.40747  92862628.15344  22677989.7894                   22677998.7114
 109199434.99048  85090508.57646  20779927.9534                   20779933.3984
 126085307.59146  98248209.19342  23993209.4614                   23993217.6374
 117961175.710 7                  22447251.469
 112146801.06648  87387175.07945  21340818.5704                   21340825.9024
 11  7 25  1 27 30.0000000  0  9G12G05G04G27G09G02G28G17G10
 117796322.692 7                  22415877.445
 124062911.059 7                  23608376.141
 108193463.09548  84306614.21646  20588501.2504                   20588508.9024
 121299959.06847  94519612.38244  23082644.8594                   23082654.4734
 119231970.01247  92908081.31244  22689089.7584                   22689098.6724
 109171112.68148  85068439.26046  20774538.6414                   20774543.7464
 126184034.40546  98325139.05142  24011995.9844                   24012005.4884
 118006751.306 8                  22455924.320
 112094316.56347  87346278.09845  21330830.6414                   21330838.6094
 11  7 25  1 28  0.0000000  0  9G12G05G04G27G09G02G28G17G10
 117712568.612 7                  22399939.180
 123957126.216 7                  23588245.297
 108250079.45448  84350730.85646  20599274.7504                   20599282.4964
 121352005.33747  94560167.85244  23092549.0314                   23092558.0704
 119290721.38946  92953861.56844  22700269.9064                   22700278.6724
 109143152.83948  85046652.38246  20769217.6724                   20769223.1414
 126282981.37446  98402240.65142  24030826.8204                   24030834.3244
 118052444.060 7                  22464619.664
 112042339.86248  87305776.82245  21320939.8524                   21320947.8364
 11  7 25  1 28 30.0000000  0  9G12G05G04G27G09G02G28G17G10
 117629066.999 7                  22384049.523
 123851401.477 7                  23568126.648
 108307029.67948  84395107.66046  20610112.1174                   20610119.7664
 121404324.97747  94600936.36244  23102505.3364                   23102513.8834
 119349889.43547  92999966.48344  22711529.3594                   22711537.8014
 109115555.29548  85025147.82546  20763966.2034                   20763971.9064
 126382147.09345  98479512.67842  24049694.3204                   24049704.7234
 118098254.578 7                  22473336.805
 111990873.63748  87265673.32645  21311146.2034                   21311154.0514
 11  7 25  1 29  0.0000000  0  8G12G05G04G27G09G02G17G10
 117545820.000 7                  22368208.180
 123745739.667 7                  23548019.781
 108364311.33948  84439742.72146  20621012.3524                   20621020.2584
 121456915.20947  94641915.70544  23112512.4774                   23112521.7934
 119409471.21946  93046393.80644  22722867.7274                   22722875.9064
 109088319.43648  85003925.10046  20758783.3754                   20758788.5084
 118144183.797 7                  22482077.016
 111939920.39247  87225969.54045  21301449.9534                   21301457.5664
 11  7 25  1 29 30.0000000  0  8G12G05G04G27G09G02G17G10
 117462830.806 7                  22352415.813
 123640143.990 7                  23527925.586
 108421922.38448  84484634.44846  20631975.5004                   20631982.8014
 121509773.98847  94683104.34244  23122571.0864                   23122580.4654
 119469463.85447  93093141.28544  22734283.6414                   22734292.3094
 109061445.25448  84982984.19546  20753669.6414                   20753675.1954
 118190231.674 7                  22490839.805
 111889482.74848  87186667.53345  21291851.4064                   21291859.7734
 11  7 25  1 30  0.0000000  0  8G12G05G04G27G09G02G17G10
 117380101.387 7                  22336672.648
 123534616.567 7                  23507844.828
 108479859.73048  84529780.43346  20643000.4924                   20643008.2624
 121562898.08947  94724499.64344  23132681.2664                   23132689.9024
 119529863.57947  93140205.93644  22745777.3284                   22745786.1604
 109034931.59448  84962324.22946  20748624.1024                   20748629.3364
 118236398.541 8                  22499625.438
 111839562.66348  87147768.80746  21282352.3284                   21282360.5514
 11  7 25  1 30 30.0000000  0  9G12G05G04G27G09G02G28G17G10
 117297635.130 7                  22320979.930
 123429161.527 7                  23487776.719
 108538122.25848  84575179.81646  20654087.8674                   20654095.1724
 121616285.80947  94766100.42644  23142840.5554                   23142850.3674
 119590668.59947  93187586.42944  22757347.4454                   22757356.6414
 109008779.14748  84941945.71946  20743647.3674                   20743652.9384
 126780718.71215                  24125586.664
 118282686.091 7                  22508433.523
 111790163.47148  87109275.97546  21272952.3364                   21272959.9104
 11  7 25  1 31  0.0000000  0  9G12G05G04G27G09G02G28G17G10
 117215432.169 7                  22305336.648
 123323779.221 7                  23467723.141
 108596705.06148  84620828.76146  20665235.5704                   20665242.6884
 121669932.34147  94807902.86944  23153049.2194                   23153059.0634
 119651872.92247  93235278.09444  22768994.9384                   22769003.4104
 108982984.84048  84921846.27846  20738738.7734                   20738744.1414
 126880947.72355  98868385.42952  24144660.5084                   24144669.7774
 118329092.145 7                  22517263.820
 111741285.08948  87071188.96946  21263650.7584                   21263658.2704
 11  7 25  1 31 30.0000000  0  9G12G05G04G27G09G02G28G17G10
 117133497.078 7                  22289745.820
 123218474.314 7                  23447684.117
 108655607.71147  84666726.93346  20676444.5004                   20676452.0744
 121723837.12347  94849906.55244  23163307.1884                   23163315.8754
 119713475.28247  93283279.84045  22780717.5554                   22780726.1684
 108957550.37748  84902027.24546  20733898.7504                   20733904.2194
 126981383.81745  98946647.34742  24163772.5784                   24163781.6954
 118375619.236 7                  22526118.008
 111692932.00348  87033511.26646  21254449.6954                   21254456.9264
 11  7 25  1 32  0.0000000  0  9G12G05G04G27G09G02G28G17G10
 117051831.990 7                  22274204.977
 123113249.565 7                  23427660.789
 108714827.55448  84712872.28246  20687713.5164                   20687720.9774
 121777996.87447  94892108.91644  23173613.2584                   23173622.0394
 119775472.13446  93331589.04144  22792514.3594                   22792524.9414
 108932474.68748  84882487.76146  20729127.0704                   20729132.2814
 127082024.85245  99025068.84842  24182923.2974                   24182932.8014
 118422267.463 7                  22534994.766
 111645106.10748  86996244.37145  21245348.7894                   21245356.3204
 11  7 25  1 32 30.0000000  0  9G12G05G04G27G09G02G28G17G10
 116970439.694 7                  22258716.750
 123008108.259 7                  23407652.648
 108774362.60248  84759263.23246  20699042.2194                   20699050.4884
 121832409.62547  94934508.41144  23183967.0164                   23183976.8284
 119837860.76947  93380203.49444  22804387.0084                   22804396.0704
 108907757.57448  84863227.69646  20724423.2974                   20724428.7464
 127182869.22245  99103648.86542  24202113.4064                   24202122.6484
 118469037.483 7                  22543894.602
 111597810.08348  86959390.37145  21236348.1484                   21236356.2734
 11  7 25  1 33  0.0000000  0  9G12G05G04G27G09G02G28G17G10
 116889322.305 7                  22243280.641
 122903052.525 7                  23387661.891
 108834209.85148  84805897.44246  20710431.2734                   20710438.4694
 121887072.09447  94977102.51344  23194369.2114                   23194378.9884
 119900637.32646  93429120.25445  22816333.0864                   22816342.2544
 108883397.96848  84844246.21646  20719787.8914                   20719793.5124
 127283914.46146  99182385.38642  24221342.0084                   24221351.0084
 118515929.628 7                  22552817.836
 111551045.24148  86922950.25945  21227449.2194                   21227456.0944
 11  7 25  1 33 30.0000000  0  9G12G05G04G27G09G02G28G17G10
 116808482.972 7                  22227897.320
 122798085.840 7                  23367686.375
 108894367.14347  84852773.27046  20721878.4774                   20721886.2424
 121941982.00047  95019889.42844  23204818.1954                   23204827.9884
 119963799.04247  93478337.10744  22828352.6334                   22828361.0274
 108859395.44148  84825542.97546  20715220.5234                   20715225.4384
 127385158.74746  99261276.98742  24240609.1804                   24240617.3914
 118562943.981 7                  22561764.875
 111504814.63748  86886926.44545  21218651.5784                   21218659.3554
 11  7 25  1 34  0.0000000  0  9G12G05G04G27G09G02G28G17G10
 116727924.096 7                  22212567.172
 122693211.248 7                  23347729.406
 108954832.87948  84899889.41746  20733384.8594                   20733392.4454
 121997137.02247  95062867.29044  23215314.0394                   23215322.5434
 120027343.11647  93527851.91545  22840444.9614                   22840453.8404
 108835750.15348  84807118.09546  20710720.7734                   20710725.9064
 127486600.28446  99340322.26642  24259912.0944                   24259920.7504
 118610081.922 7                  22570734.516
 111459120.80048  86851320.91445  21209956.6024                   21209964.2504
 11  7 25  1 34 30.0000000  0  9G12G05G04G27G09G02G28G17G10
 116647648.363 7                  22197291.203
 122588431.729 7                  23327789.602
 109015604.28648  84947243.75146  20744949.6724                   20744957.3164
 122052534.61047  95106034.16944  23225855.4694                   23225866.1454
 120091266.01546  93577661.93544  22852608.4224                   22852617.9574
 108812461.61148  84788971.21846  20706289.3364                   20706294.3984
 127588237.34045  99419520.00242  24279252.7034                   24279261.7584
 118657343.965 7                  22579727.617
 111413966.07148  86816135.43946  21201364.2424                   21201371.4064
 11  7 25  1 35  0.0000000  0  9G12G05G04G27G09G02G28G17G10
 116567658.349 7                  22182069.492
 122483749.992 7                  23307869.773
 109076678.66648  84994834.16946  20756571.7034                   20756579.3324
 122108171.53947  95149387.62244  23236443.0474                   23236453.1684
 120155564.31647  93627764.42844  22864844.1024                   22864853.1254
 108789528.49448  84771101.28546  20701925.0164                   20701930.3204
 127690067.45346  99498868.02242  24298629.9144                   24298639.7974
 118704730.120 7                  22588745.961
 111369352.07848  86781371.33145  21192874.1804                   21192881.5044
 11  7 25  1 35 30.0000000  0  9G12G05G04G27G09G02G28G17G10
 116487956.125 8                  22166902.328
 122379168.820 7                  23287968.922
 109138053.99647  85042659.08146  20768250.6884                   20768258.6684
 122164045.41047  95192925.67144  23247075.9224                   23247085.3634
 120220235.08547  93678157.18944  22877150.9694                   22877160.0744
 108766950.45748  84753508.02446  20697628.8054                   20697633.5314
 127792088.64546  99578365.06242  24318045.0554                   24318052.8244
 118752241.205 7                  22597786.758
 111325281.29848  86747030.49945  21184487.4534                   21184495.0124
 11  7 25  1 36  0.0000000  0  9G12G05G04G27G09G02G28G17G10
 116408544.649 7                  22151791.328
 122274691.047 7                  23268087.164
 109199727.94447  85090716.68146  20779986.7504                   20779994.7734
 122220153.50347  95236646.19644  23257752.5314                   23257762.5434
 120285274.77247  93728837.40344  22889527.4144                   22889536.8594
 108744726.82748  84736190.94746  20693399.6094                   20693404.9804
 127894299.13946  99658009.66143  24337494.8444                   24337503.6564
 118799877.315 7                  22606851.219
 111281755.49248  86713114.32845  21176204.9454                   21176212.3444
 11  7 25  1 36 30.0000000  0  9G12G05G04G27G09G02G28G17G10
 116329426.423 8                  22136735.922
 122170319.836 7                  23248226.047
 109261698.06748  85139005.06046  20791779.6254                   20791787.2304
 122276493.19247  95280547.23544  23268473.7974                   23268483.9964
 120350680.15147  93779802.59544  22901973.3984                   22901983.4494
 108722857.30948  84719149.79446  20689238.0084                   20689242.8134
 127996697.15046  99737800.36643  24356980.5314                   24356989.0124
 118847639.230 7                  22615940.516
 111238777.14048  86679624.73245  21168026.3914                   21168034.1054
 11  7 25  1 37  0.0000000  0  9G12G05G04G27G09G02G28G17G10
 116250603.941 8                  22121736.391
 122066058.287 7                  23228385.297
 109323962.07147  85187522.45246  20803627.6174                   20803635.5904
 122333061.83347  95324626.63944  23279239.1564                   23279248.2854
 120416448.07846  93831050.28244  22914488.5474                   22914497.7114
 108701341.00948  84702383.87046  20685143.6094                   20685148.7194
 128099280.04846  99817735.06243  24376501.5234                   24376510.1564
 118895527.444 7                  22625052.977
 111196348.00848  86646563.12345  21159952.2584                   21159959.9964
 11  7 25  1 37 30.0000000  0  9G12G05G04G27G09G02G28G17G10
 116172079.725 7                  22106793.875
 121961908.769 7                  23208566.328
 109386517.30348  85236266.77346  20815532.0084                   20815539.5594
 122389856.56747  95368882.24144  23290046.3204                   23290056.0274
 120482575.21847  93882577.89344  22927072.4534                   22927080.9964
 108680177.03948  84685892.48546  20681116.0164                   20681121.5984
 128202045.83046  99897812.36642  24396057.0634                   24396065.2274
 118943542.289 7                  22634189.953
 111154470.32348  86613931.19745  21151983.4844                   21151990.6254
 11  7 25  1 38  0.0000000  0  9G12G05G04G27G09G02G28G17G10
 116093856.669 8                  22091908.352
 121857874.788 7                  23188769.039
 109449362.16648  85285236.77346  20827491.0084                   20827499.0354
 122446875.25447  95413312.33844  23300896.3834                   23300906.2814
 120549058.73247  93934383.16744  22939724.5554                   22939732.9304
 108659365.74148  84669675.91546  20677155.9384                   20677161.1914
 128304993.29746  99978031.10643  24415647.4614                   24415655.9654
 118991684.622 7                  22643351.391
 111113146.92448  86581731.19045  21144119.7974                   21144127.4694
 11  7 25  1 38 30.0000000  0  9G12G05G04G27G09G02G28G17G10
 116015937.306 8                  22077080.453
 121753959.408 7                  23168994.539
 109512494.14248  85334430.50746  20839504.4304                   20839512.2384
 122504115.14147  95457914.77644  23311788.8444                   23311798.5944
 120615895.06047  93986463.41344  22952442.3594                   22952451.8984
 108638906.17548  84653733.42346  20673262.4304                   20673267.9414
 128408119.73246 100058389.36442  24435271.7274                   24435280.9384
 119039955.004 7                  22652535.977
 111072379.71548  86549964.57046  21136361.9304                   21136369.9774
 11  7 25  1 39  0.0000000  0  9G12G05G04G27G09G02G28G17G10
 115938324.162 8                  22062311.578
 121650165.231 7                  23149242.922
 109575910.54648  85383845.85946  20851572.5004                   20851580.0704
 122561573.22347  95502687.23344  23322723.0474                   23322732.2074
 120683080.67947  94038815.79844  22965227.1804                   22965236.6844
 108618797.34048  84638064.22646  20669435.7814                   20669441.2194
 128511423.29346 100138885.66243  24454930.3754                   24454938.7424
 119088353.759 7                  22661747.031
 111032170.40148  86518632.68346  21128710.5234                   21128717.7504
 11  7 25  1 39 30.0000000  0  9G12G05G04G27G09G02G28G17G10
 115861019.405 7                  22047600.641
 121546495.257 7                  23129515.969
 109639608.86548  85433480.91146  20863693.5554                   20863701.2974
 122619246.77147  95547627.59844  23333698.0394                   23333707.9534
 120750611.96747  94091437.56144  22978078.5554                   22978086.8244
 108599038.09448  84622667.43646  20665676.0704                   20665680.9494
 128614901.56645 100219518.08242  24474620.1644                   24474629.6094
 119136881.082 7                  22670981.547
 110992520.61248  86487736.75246  21121165.5784                   21121172.6484
 11  7 25  1 40  0.0000000  0  9G12G05G04G27G09G02G28G17G10
 115784026.263 7                  22032949.086
 121442952.836 7                  23109811.641
 109703587.53447  85483334.40446  20875868.3364                   20875876.0474
 122677133.73547  95592734.23444  23344713.8674                   23344723.6914
 120818486.48647  94144326.72944  22990994.6334                   22991004.5984
 108579629.21348  84607543.64046  20661982.5004                   20661987.3444
 128718553.28646 100300285.63443  24494344.8594                   24494354.2464
 119185538.285 7                  22680240.461
 110953433.21548  86457279.07646  21113726.9454                   21113734.3794
 11  7 25  1 40 30.0000000  0  9G12G05G04G27G09G02G28G17G10
 115707347.106 7                  22018357.648
 121339540.697 7                  23090132.727
 109767844.04448  85533404.40146  20888096.1484                   20888103.6054
 122735231.01147  95638004.80044  23355768.5394                   23355778.9574
 120886700.40346  94197480.38244  23003974.8204                   23003984.9844
 108560569.36348  84592691.82646  20658355.5554                   20658360.6454
 128822376.01546 100381186.40443  24514101.7894                   24514111.3204
 119234325.481 7                  22689523.797
 110914909.87548  86427260.91646  21106395.9774                   21106404.2704
 11  7 25  1 41  0.0000000  0  9G12G05G04G27G09G02G28G17G10
 115630984.460 8                  22003826.258
 121236262.019 7                  23070479.883
 109832375.76448  85583688.86246  20900376.3524                   20900383.4104
 122793535.86146  95683436.99344  23366864.3284                   23366874.3674
 120955250.49747  94250896.02644  23017020.3284                   23017028.7624
 108541857.75348  84578111.37646  20654794.9304                   20654799.9964
 128926367.74446 100462218.87742  24533890.7504                   24533900.1724
 119283243.005 7                  22698833.172
 110876952.37748  86397683.67346  21099173.3444                   21099180.8594
 11  7 25  1 41 30.0000000  0  9G12G05G04G27G09G02G28G17G10
 115554941.037 7                  21989355.398
 121133119.515 7                  23050852.328
 109897180.80447  85634186.28446  20912707.7504                   20912715.8284
 122852045.80546  95729029.12243  23377998.1094                   23378007.9694
 121024133.57747  94304571.12744  23030128.4844                   23030137.2274
 108523494.19348  84563802.11446  20651300.5004                   20651305.4264
 129030526.57046 100543381.49043  24553711.8674                   24553721.0784
 119332291.727 7                  22708166.789
 110839562.62548  86368548.83446  21092058.5864                   21092065.8134
 11  7 25  1 42  0.0000000  0 10G12G05G25G04G27G09G02G28G17G10
 115479218.824 7                  21974946.055
 121030115.760 7                  23031251.125
 131556769.32915                  25034408.539
 109962255.94648  85684894.18046  20925091.5704                   20925099.0984
 122910757.67846  95774778.54543  23389170.7664                   23389180.4384
 121093346.00147  94358502.84944  23043298.0084                   23043307.9224
 108505476.90348  84549762.69946  20647871.5784                   20647877.0864
 129134849.89446 100624672.34142  24573563.9774                   24573573.4734
 119381471.665 7                  22717525.391
 110802742.38448  86339857.76746  21085051.7894                   21085059.0594
 11  7 25  1 42 30.0000000  0 10G12G05G25G04G27G09G02G28G17G10
 115403820.680 7                  21960598.664
 120927254.187 7                  23011677.266
                                  25014437.914
 110027599.65547  85735811.35546  20937526.3284                   20937533.1454
 122969669.09747  95820683.49244  23400381.0004                   23400391.2074
 121162884.54946  94412688.66644  23056531.3754                   23056540.6214
 108487805.81048  84535993.02646  20644508.9844                   20644513.7664
 129239336.16146 100706090.12143  24593447.4614                   24593456.5124
 119430783.652 7                  22726909.133
 110766493.64648  86311612.04546  21078153.6804                   21078161.2814
 11  7 25  1 43  0.0000000  0 10G12G05G25G04G27G09G02G28G17G10
 115328749.134 8                  21946312.516
 120824537.649 7                  22992131.258
 131346951.26715                  24994481.445
 110093209.52647  85786935.91846  20950011.3594                   20950018.7114
 123028777.31147  95866741.76044  23411629.1564                   23411639.1214
 121232746.09146  94467126.19944  23069825.8444                   23069835.2344
 108470479.93448  84522492.37346  20641211.7034                   20641217.1054
 129343982.83846 100787632.98242  24613360.0864                   24613369.9384
 119480228.088 7                  22736318.156
 110730818.53848  86283813.28546  21071364.8364                   21071372.6764
 11  7 25  1 43 30.0000000  0 10G12G05G25G04G27G09G02G28G17G10
 115254006.969 8                  21932089.938
 120721969.420 7                  22972612.688
 131242139.14115                  24974536.711
 110159083.35347  85838266.16046  20962546.8204                   20962554.2424
 123088079.76747  95912951.38944  23422914.7584                   23422924.5664
 121302927.46647  94521812.95444  23083180.8914                   23083189.8914
 108453499.35548  84509260.76546  20637980.7114                   20637985.9264
 129448788.28445 100869299.50442  24633304.6414                   24633314.1564
 119529805.908 7                  22745752.750
 110695718.92748  86256462.98346  21064685.5784                   21064693.2274
 11  7 25  1 44  0.0000000  0 10G12G05G25G04G27G09G02G28G17G10
 115179596.649 7                  21917929.828
 120619552.045 7                  22953123.438
 131137394.49815                  24954606.281
 110225218.46548  85889800.00246  20975131.6564                   20975139.4534
 123147573.81246  95959310.28244  23434236.2734                   23434245.9264
 121373424.90047  94576745.97344  23096596.0704                   23096605.7304
 108436862.85948  84496297.28046  20634814.4304                   20634819.3754
 129553750.26745 100951088.06842  24653278.5314                   24653287.6844
 119579517.379 7                  22755212.484
 110661196.36548  86229562.31345  21058115.8674                   21058123.6174
 11  7 25  1 44 30.0000000  0 10G12G05G25G04G27G09G02G28G17G10
 115105520.776 7                  21903833.477
 120517288.601 7                  22933663.352
                                  24934687.133
 110291612.87248  85941535.88246  20987765.9844                   20987773.5394
 123207256.37346  96005816.08644  23445592.8754                   23445603.0634
 121444235.26846  94631922.83844  23110070.3984                   23110079.2974
 108420569.56648  84483601.22746  20631714.1484                   20631719.5634
 129658866.78955 101032996.98152  24673280.8594                   24673291.1334
 119629362.903 7                  22764698.031
 110627252.69048  86203112.73246  21051656.6884                   21051664.3284
 11  7 25  1 45  0.0000000  0 10G12G05G25G04G27G09G02G28G17G10
 115031781.365 8                  21889801.602
 120415182.144 7                  22914232.984
 130928116.55215                  24914780.000
 110358264.16048  85993471.95246  21000449.5234                   21000457.0314
 123267124.75446  96052466.68244  23456986.1414                   23456995.6414
 121515355.09847  94687340.82144  23123605.3204                   23123613.6724
 108404618.90648  84471172.15946  20628679.0944                   20628683.8794
 129764135.22345 101115024.26942  24693314.6724                   24693323.2504
 119679343.100 7                  22774208.070
 110593889.43448  86177115.43246  21045307.8754                   21045315.2234
 11  7 25  1 45 30.0000000  0 10G12G05G25G04G27G09G02G28G17G10
 114958381.495 8                  21875833.758
 120313235.381 7                  22894831.703
 130823588.051 5                  24894888.688
 110425169.74648  86045606.16646  21013181.2344                   21013188.8404
 123327176.09547  96099259.89344  23468413.8524                   23468422.7424
 121586780.87447  94742997.21544  23137196.8594                   23137205.9414
 108389009.78848  84459009.22346  20625708.8914                   20625713.4224
 129869553.856 5                  24713374.219
 119729458.459 7                  22783745.500
 110561108.45748  86151571.85646  21039070.1024                   21039077.3014
 11  7 25  1 46  0.0000000  0 10G12G05G25G04G27G09G02G28G17G10
 114885323.957 8                  21861931.711
 120211451.950 7                  22875463.820
 130719136.619 6                  24875013.023
 110492328.05648  86097937.29846  21025960.9694                   21025968.3954
 123387408.09847  96146193.86144  23479875.4384                   23479885.0004
 121658509.65147  94798889.72344  23150846.6884                   23150855.4414
 108373742.06448  84447112.30746  20622803.3754                   20622808.2504
 129975120.82215                  24733463.055
 119779709.792 7                  22793307.430
 110528911.75448  86126483.58246  21032943.3134                   21032950.8244
 11  7 25  1 46 30.0000000  0 10G12G05G25G04G27G09G02G28G17G10
 114812610.920 7                  21848094.477
 120109834.485 7                  22856126.453
 130614764.314 5                  24855151.719
 110559736.34048  86150463.23446  21038788.2424                   21038795.7734
 123447817.70447  96193266.21644  23491370.5554                   23491379.9104
 121730537.49647  94855015.26544  23164552.7894                   23164561.3874
 108358814.57148  84435480.50146  20619962.7344                   20619967.4884
 130080833.439 5                  24753579.000
 119830097.368 7                  22802896.289
 110497300.80948  86101851.73446  21026927.6884                   21026935.1134
 11  7 25  1 47  0.0000000  0 10G12G05G25G04G27G09G02G28G17G10
 114740244.599 7                  21834323.820
 120008385.653 7                  22836821.484
 130510473.473 5                  24835305.922
 110627392.23448  86203182.11646  21051662.7504                   21051669.9534
 123508402.16747  96240474.83044  23502899.4924                   23502909.5744
 121802861.06147  94911371.25344  23178315.0944                   23178324.9654
 108344226.36048  84424113.08246  20617186.8524                   20617191.1724
 130186690.103 5                  24773723.461
 119880621.449 7                  22812510.477
 110466277.20848  86077677.53646  21021024.0234                   21021031.1994
 11  7 25  1 47 30.0000000  0 10G12G05G25G04G27G09G02G28G17G10
 114668227.628 7                  21820619.039
 119907108.551 7                  22817549.047
 130406266.487 5                  24815476.586
 110695293.48648  86256092.18346  21064584.2814                   21064591.9414
 123569158.71747  96287817.54644  23514461.0704                   23514471.4534
 121875476.95947  94967954.95144  23192134.5234                   23192143.4454
 108329976.64948  84413009.42146  20614475.0394                   20614479.9574
                                  24793892.867
 119931283.128 7                  22822151.188
 110435842.51248  86053962.23045  21015232.2344                   21015239.3714
 11  7 25  1 48  0.0000000  0  9G12G05G25G04G27G09G02G17G10
 114596563.293 8                  21806982.195
 119806006.798 7                  22798310.094
 130302146.342 5                  24795661.695
 110763438.62148  86309192.29446  21077551.8364                   21077559.2234
 123630085.51347  96335292.94744  23526055.1414                   23526064.6604
 121948382.51647  95024764.44444  23206006.7114                   23206017.1954
 108316065.61448  84402169.65946  20611827.9454                   20611832.9964
 119982082.880 7                  22831817.727
 110405999.07448  86030707.64945  21009553.1254                   21009560.7544
 11  7 25  1 48 30.0000000  0  9G12G05G25G04G27G09G02G17G10
 114525253.836 7                  21793412.430
 119705082.789 7                  22779105.008
 130198114.896 6                  24775865.547
 110831824.54748  86362480.04746  21090564.9224                   21090572.3054
 123691178.95547  96382898.17544  23537680.4924                   23537691.1134
 122021573.97447  95081796.67344  23219935.1644                   23219944.8914
 108302491.47448  84391592.42746  20609244.5784                   20609249.5784
 120033020.591 7                  22841511.203
 110376747.55248  86007914.28746  21003987.0784                   21003994.0004
 11  7 25  1 49  0.0000000  0  9G12G05G25G04G27G09G02G17G10
 114454301.447 8                  21779910.516
 119604339.499 7                  22759934.047
 130094174.519 6                  24756086.117
 110900448.95948  86415953.61546  21103623.4774                   21103631.2274
 123752436.18046  96430631.06844  23549336.7734                   23549348.0594
 122095047.68047  95139048.85044  23233917.2894                   23233926.0274
 108289253.45448  84381277.08746  20606725.7894                   20606730.9024
 120084096.956 7                  22851230.586
 110348089.41748  85985583.30146  20998533.6024                   20998540.6724
 11  7 25  1 49 30.0000000  0  9G12G05G25G04G27G09G02G17G10
 114383708.075 7                  21766476.555
 119503779.613 6                  22740798.063
 129990327.486 5                  24736325.813
 110969309.58747  86469611.25745  21116727.5004                   21116734.1724
 123813854.55646  96478489.49543  23561025.0784                   23561035.7664
 122168800.00846  95196518.08643  23247951.0944                   23247960.7344
 108276350.59547  84371222.92746  20604270.2664                   20604275.4344
 120135312.467 6                  22860977.320
 110320026.36347  85963716.02345  20993193.5634                   20993200.5554
 11  7 25  1 50  0.0000000  0  9G12G05G25G04G27G09G02G17G10
 114313476.970 7                  21753112.195
 119403406.498 7                  22721697.297
 129886576.460 6                  24716582.305
 111038404.30248  86523451.31646  21129875.6804                   21129883.5354
 123875431.34446  96526471.37244  23572742.5634                   23572753.2774
 122242827.60747  95254201.90044  23262038.7194                   23262047.6414
 108263782.18148  84361429.37046  20601878.4304                   20601883.9614
 120186667.653 7                  22870749.063
 110292559.94248  85942313.66546  20987966.4144                   20987973.8014
 11  7 25  1 50 30.0000000  0  9G12G05G25G04G27G09G02G17G10
 114243610.343 7                  21739817.172
 119303223.237 7                  22702633.234
 129782923.882 6                  24696857.398
 111107730.94048  86577472.07346  21143068.1484                   21143075.8954
 123937163.63946  96574574.41943  23584490.5084                   23584500.1454
 122317127.26847  95312097.70344  23276177.2664                   23276186.7934
 108251547.58448  84351895.92846  20599550.3834                   20599555.4694
 120238162.995 7                  22880548.477
 110265691.76748  85921377.47646  20982853.5704                   20982861.2344
 11  7 25  1 51  0.0000000  0  9G12G05G25G04G27G09G02G17G10
 114174111.056 8                  21726592.063
 119203232.714 7                  22683605.602
 129679372.375 6                  24677152.391
 111177287.31448  86631671.86846  21156304.1564                   21156311.5434
 123999049.06046  96622796.79444  23596266.6334                   23596277.4804
 122391695.75147  95370202.91544  23290367.9534                   23290375.7894
 108239646.25847  84342622.16446  20597286.0394                   20597290.6294
 120289799.515 7                  22890374.742
 110239423.77348  85900908.95446  20977855.2194                   20977862.3754
 11  7 25  1 51 30.0000000  0  9G12G05G25G04G27G09G02G17G10
 114104981.497 7                  21713436.852
 119103437.674 7                  22664615.031
 129575924.151 6                  24657467.023
 111247071.13948  86686048.88046  21169583.7734                   21169591.1954
 124061084.66446  96671136.13643  23608071.7034                   23608081.7114
 122466529.30446  95428514.71243  23304607.7814                   23304616.1764
 108228076.96747  84333607.13246  20595084.1804                   20595088.6994
 120341577.387 7                  22900227.508
 110213756.89248  85880908.79646  20972970.8204                   20972977.9494
 11  7 25  1 52  0.0000000  0  9G12G05G25G04G27G09G02G17G10
 114036224.050 7                  21700353.008
 119003841.224 7                  22645662.477
 129472581.410 6                  24637801.320
 111317079.99248  86740601.24045  21182905.6644                   21182912.8674
 124123267.38546  96719590.15843  23619905.1564                   23619914.0514
 122541624.61047  95487030.49344  23318898.0704                   23318907.4264
 108216838.61547  84324849.99346  20592945.9614                   20592950.5234
 120393497.015 7                  22910107.352
 110188692.11448  85861377.82946  20968200.9304                   20968208.3484
 11  7 25  1 52 30.0000000  0  9G12G05G25G04G27G09G02G17G10
 113967841.164 8                  21687339.906
 118904446.327 7                  22626748.055
 129369346.831 6                  24618155.375
 111387311.86248  86795327.35446  21196270.6954                   21196277.8444
 124185594.83947  96768156.93944  23631765.1724                   23631775.8054
 122616978.20547  95545747.54243  23333237.2034                   23333246.7424
 108205930.58148  84316350.24046  20590869.9694                   20590873.8834
 120445558.976 7                  22920014.883
 110164230.95648  85842317.20846  20963546.2194                   20963553.3404
 11  7 25  1 53  0.0000000  0  9G12G05G25G04G27G09G02G17G10
 113899835.383 8                  21674398.813
 118805256.277 7                  22607873.039
 129266223.046 6                  24598532.297
 111457764.72348  86850225.69446  21209677.4064                   21209685.0234
 124248064.40546  96816834.51543  23643653.1884                   23643662.4614
 122692587.04447  95604663.48544  23347625.1644                   23347634.3984
 108195352.42348  84308107.52546  20588856.8914                   20588861.6094
 120497764.013 7                  22929948.266
 110140375.07848  85823728.23246  20959006.7814                   20959013.9804
 11  7 25  1 53 30.0000000  0  9G12G05G25G04G27G09G02G17G10
 113832209.116 8                  21661529.844
 118706273.683 7                  22589036.789
 129163212.042 6                  24578929.719
 111528435.75648  86905294.02546  21223125.5864                   21223133.1914
 124310672.75447  96865620.20443  23655566.6564                   23655576.2234
 122768447.35847  95663775.34844  23362060.7894                   23362070.5204
 108185102.29648  84300120.43046  20586906.4614                   20586911.3094
 120550112.160 7                  22939910.680
 110117125.50348  85805611.71946  20954582.1484                   20954589.4494
 11  7 25  1 54  0.0000000  0  9G12G05G25G04G27G09G02G17G10
 113764964.942 8                  21648733.906
 118607501.590 7                  22570241.617
 129060316.605 6                  24559349.641
 111599323.18348  86960530.97146  21236614.9384                   21236622.4844
 124373417.54346  96914512.15343  23667507.6334                   23667517.2464
 122844555.87147  95723080.65544  23376544.1564                   23376553.1844
 108175180.06748  84292388.83946  20585018.2274                   20585022.9884
 120602604.511 7                  22949899.539
 110094483.78348  85787968.85446  20950274.0084                   20950280.8954
 11  7 25  1 54 30.0000000  0  9G12G05G25G04G27G09G02G17G10
 113698105.166 8                  21636011.422
 118508943.126 7                  22551485.758
 128957539.253 6                  24539791.633
 111670424.91448  87015934.91646  21250145.2424                   21250153.2734
 124436295.77047  96963508.18943  23679471.9304                   23679482.0354
 122920909.14747  95782576.70044  23391073.9534                   23391083.3634
 108165584.93948  84284912.13546  20583192.2664                   20583197.2974
 120655241.335 7                  22959916.055
 110072451.03248  85770800.49646  20946081.3054                   20946088.0084
 11  7 25  1 55  0.0000000  0  9G12G05G25G04G27G09G02G17G10
 113631632.434 7                  21623361.664
 118410601.291 7                  22532772.164
 128854882.319 6                  24520256.672
 111741738.65348  87071504.03646  21263715.7344                   21263723.5664
 124499304.67447  97012605.92543  23691462.4304                   23691472.3054
 122997503.86847  95842260.88544  23405648.6644                   23405658.3164
 108156315.84348  84277689.48246  20581428.4144                   20581433.3984
 120708023.190 7                  22969959.750
 110051028.41348  85754107.57146  20942004.3594                   20942011.9614
 11  7 25  1 55 30.0000000  0  9G12G05G25G04G27G09G02G17G10
 113565549.220 7                  21610786.281
 118312478.989 7                  22514099.844
 128752348.427 6                  24500745.195
 111813262.06248  87127236.54445  21277326.2344                   21277333.6604
 124562441.83046  97061803.62543  23703477.2274                   23703487.5634
 123074336.62547  95902130.55344  23420270.4454                   23420279.1604
 108147371.72048  84270720.05846  20579726.4694                   20579731.3204
 120760950.213 7                  22980031.477
 110030217.27247  85737891.14646  20938044.2504                   20938051.5784
 11  7 25  1 56  0.0000000  0  9G12G05G25G04G27G09G02G17G10
 113499857.912 7                  21598285.289
 118214579.028 7                  22495470.531
 128649939.905 6                  24481257.094
 111884992.85548  87183130.66446  21290975.9774                   21290983.5944
 124625704.05746  97111098.80043  23715515.9694                   23715525.7114
 123151403.64947  95962182.77144  23434934.8444                   23434944.8244
 108138751.58448  84264003.09946  20578085.8444                   20578090.6564
 120814023.357 7                  22990131.492
 110010018.53848  85722151.91846  20934200.3524                   20934207.6564
 11  7 25  1 56 30.0000000  0  9G12G05G25G04G27G09G02G17G10
 113434561.477 7                  21585859.758
 118116904.688 7                  22476883.625
 128547659.478 6                  24461793.711
 111956929.43248  87239185.10245  21304665.6414                   21304672.7734
 124689089.07646  97160489.63643  23727577.3674                   23727587.7424
 123228701.79947  96022415.08244  23449644.8444                   23449654.0004
 108130455.08648  84257538.31546  20576507.2734                   20576512.2774
 120867243.070 7                  23000258.289
 109990433.82148  85706891.13246  20930473.3984                   20930480.8714
 11  7 25  1 57  0.0000000  0  9G12G05G25G04G27G09G02G17G10
 113369661.414 7                  21573510.102
 118019458.621 7                  22458339.945
 128445509.371 7                  24442356.000
 112029068.87148  87295397.63745  21318392.9144                   21318401.0904
 124752593.77546  97209973.70843  23739662.2194                   23739672.3134
 123306227.42747  96082824.65144  23464397.4774                   23464407.1524
 108122480.55648  84251324.42646  20574989.5234                   20574994.7584
 120920609.674 7                  23010414.477
 109971463.42448  85692109.03446  20926863.6724                   20926870.6054
 11  7 25  1 57 30.0000000  0  9G12G05G25G04G27G09G02G17G10
 113305160.242 7                  21561235.914
 117922243.696 7                  22439840.844
 128343492.017 7                  24422942.102
 112101409.31648  87351766.79045  21332158.9454                   21332166.4844
 124816215.42247  97259548.92744  23751769.4454                   23751780.3714
 123383976.92047  96143408.66944  23479192.5164                   23479202.4104
 108114827.11248  84245360.73446  20573532.9774                   20573538.0664
 120974123.537 7                  23020596.859
 109953108.93448  85677806.87346  20923370.8134                   20923377.7464
 11  7 25  1 58  0.0000000  0  9G12G05G25G04G27G09G02G17G10
 113241060.972 8                  21549037.852
 117825263.354 7                  22421385.188
 128241610.284 7                  24403554.148
 112173949.02248  87408291.21445  21345962.8834                   21345969.8914
 124879951.29346  97309213.16543  23763898.1414                   23763907.2194
 123461947.24647  96204164.75244  23494029.6884                   23494039.9224
 108107494.42548  84239646.98846  20572137.6644                   20572142.5784
 121027785.573 7                  23030808.922
 109935371.63848  85663985.65646  20919995.1334                   20920002.6294
 11  7 25  1 58 30.0000000  0  9G12G05G25G04G27G09G02G17G10
 113177365.562 7                  21536916.352
 117728520.400 7                  22402976.109
 128139866.411 6                  24384192.984
 112246685.25148  87464968.78345  21359804.0234                   21359811.5004
 124943798.43446  97358964.05143  23776046.7114                   23776057.4414
 123540135.01047  96265090.26544  23508908.1884                   23508917.3674
 108100481.01748  84234182.04546  20570803.0004                   20570808.2664
 121081595.944 7                  23041048.586
 109918252.22648  85650645.88646  20916737.7114                   20916744.9774
 11  7 25  1 59  0.0000000  0  9G12G05G25G04G27G09G02G17G10
 113114076.710 7                  21524873.648
 117632017.650 7                  22384612.055
 128038263.147 6                  24364859.070
 112319616.10148  87521797.98546  21373682.1334                   21373690.4104
 125007754.33546  97408799.71143  23788217.6024                   23788229.0554
 123618536.79446  96326182.50644  23523827.3444                   23523837.3164
 108093786.27648  84228965.39946  20569529.3284                   20569534.0984
 121135555.387 7                  23051316.719
 109901752.00048  85637788.60946  20913598.0004                   20913604.8954
 11  7 25  1 59 30.0000000  0  9G12G05G25G04G27G09G02G17G10
 113051196.920 8                  21512907.984
 117535758.329 7                  22366294.688
 127936802.938 6                  24345551.641
 112392739.65348  87578777.36345  21387597.2734                   21387604.9414
 125071816.19846  97458717.99843  23800408.5394                   23800419.1374
 123697149.13446  96387438.87544  23538786.2424                   23538796.4804
 108087409.63148  84223996.62246  20568315.6024                   20568320.4844
 121189664.525 7                  23061612.758
 109885871.93848  85625414.57846  20910576.0394                   20910583.4264
 11  7 25  2  0  0.0000000  0  9G12G05G25G04G27G09G02G17G10
 112988727.884 8                  21501020.586
 117439744.980 7                  22348023.211
 127835488.132 6                  24326272.266
 112466053.22148  87635904.80345  21401548.8054                   21401556.0434
 125135981.10346  97508716.49643  23812618.9454                   23812628.1914
 123775968.14246  96448856.23444  23553785.8984                   23553794.8914
 108081348.92248  84219274.02346  20567162.3914                   20567166.9184
 121243923.237 7                  23071938.570
 109870612.47648  85613524.13046  20907672.0634                   20907679.5514
 11  7 25  2  0 30.0000000  0  9G12G05G25G04G27G09G02G17G10
 112926672.447 8                  21489211.453
 117343980.868 7                  22329800.117
 127734321.538 6                  24307021.078
 112539554.99648  87693178.89745  21415535.4694                   21415542.4844
 125200246.39746  97558793.21443  23824849.1804                   23824858.9534
 123854990.41046  96510431.97244  23568822.8674                   23568832.4494
 108075603.72548  84214797.27646  20566069.1804                   20566073.7894
 121298332.344 7                  23082291.703
 109855974.96648  85602118.31246  20904886.6174                   20904893.5864
 11  7 25  2  1  0.0000000  0  9G12G05G25G04G27G09G02G17G10
 112865033.010 8                  21477482.086
 117248468.732 7                  22311625.063
 127633305.734 6                  24287799.039
 112613242.80548  87750597.96546  21429557.3054                   21429565.3244
 125264608.99746  97608945.89043  23837096.2194                   23837106.5004
 123934212.87747  96572163.68844  23583898.8834                   23583908.4104
 108070173.20947  84210565.73546  20565035.6804                   20565040.1374
 121352892.299 7                  23092674.727
 109841959.90748  85591197.51946  20902219.9694                   20902227.0744
 11  7 25  2  1 30.0000000  0  9G12G05G25G04G27G09G02G17G10
 112803811.615 8                  21465832.391
 117153211.471 7                  22293497.992
 127532443.170 6                  24268605.695
 112687114.56548  87808160.35545  21443615.2504                   21443622.5664
 125329066.41046  97659172.36743  23849361.7424                   23849371.0004
 124013631.88046  96634048.59444  23599012.0784                   23599021.5784
 108065056.25448  84206578.52346  20564061.8444                   20564066.8134
 121407603.596 7                  23103085.586
 109828568.08548  85580762.37146  20899671.0394                   20899678.2074
 11  7 25  2  2  0.0000000  0  9G12G05G25G04G27G09G02G17G10
 112743010.888 8                  21454262.156
 117058212.185 7                  22275420.422
 127431736.584 6                  24249440.938
 112761168.08847  87865864.40545  21457706.7344                   21457714.3754
 125393615.78646  97709470.49743  23861645.0234                   23861654.9494
 124093244.17046  96696084.00944  23614162.1724                   23614172.0514
 108060252.11948  84202835.06946  20563147.6954                   20563152.3754
 121462466.736 7                  23113525.375
 109815800.72748  85570813.81346  20897242.1254                   20897248.7274
 11  7 25  2  2 30.0000000  0  9G12G05G25G04G27G09G02G17G10
 112682633.404 8                  21442772.430
 116963473.856 7                  22257392.367
 127331188.411 6                  24230307.469
 112835401.45448  87923708.60045  21471833.3364                   21471840.2854
 125458254.09847  97759837.99644  23873945.5004                   23873956.4654
 124173046.23846  96758267.34944  23629348.4774                   23629357.5084
 108055759.63448  84199334.45646  20562292.6334                   20562297.2624
 121517482.153 7                  23123994.906
 109803658.54648  85561352.38446  20894931.0704                   20894937.7424
 11  7 25  2  3  0.0000000  0  9G12G05G25G04G27G09G02G17G10
 112622681.030 8                  21431364.508
 116868999.332 7                  22239414.234
 127230801.209 6                  24211204.547
 112909812.41748  87981691.20245  21485993.0944                   21486000.5704
 125522978.84046  97810272.78043  23886262.4694                   23886272.9104
 124253034.48146  96820595.80144  23644569.1334                   23644578.5234
 108051577.68848  84196075.80746  20561497.1024                   20561501.8054
 121572650.197 7                  23134492.266
 109792142.10248  85552378.55046  20892739.4454                   20892746.8404
 11  7 25  2  3 30.0000000  0  9G12G05G25G04G27G09G02G17G10
 112563156.793 8                  21420037.070
 116774791.490 7                  22221487.492
 127130577.690 6                  24192132.672
 112984398.92248  88039810.56745  21500186.5784                   21500193.6174
 125587787.37247  97860772.91743  23898594.6334                   23898604.5124
 124333205.71846  96883066.77843  23659825.4224                   23659833.4964
 108047705.55148  84193058.56546  20560760.1024                   20560765.0824
 121627971.498 6                  23145019.469
 109781252.47448  85543893.14045  20890667.3054                   20890674.1254
 11  7 25  2  4  0.0000000  0  9G12G05G25G04G27G09G02G17G10
 112504062.040 8                  21408791.344
 116680852.805 7                  22203610.648
 127030520.079 6                  24173092.234
 113059158.82648  88098065.05045  21514412.3594                   21514420.5124
 125652676.67546  97911335.88743  23910942.9614                   23910953.4924
 124413556.17846  96945677.48543  23675115.0234                   23675124.2504
 108044141.78048  84190281.60646  20560081.8594                   20560086.5984
 121683446.640 7                  23155576.836
 109770989.77747  85535896.27346  20888714.7974                   20888721.3244
 11  7 25  2  4 30.0000000  0  9G12G05G25G04G27G09G02G17G10
 112445399.463 8                  21397628.609
 116587187.088 7                  22185786.945
 126930631.314 6                  24154083.438
 113134090.17948  88156453.14345  21528671.5864                   21528679.3324
 125717643.94646  97961959.73843  23923305.6804                   23923316.9304
 124494082.73747  97008425.36644  23690439.2894                   23690448.5864
 108040885.70848  84187744.42046  20559462.2424                   20559467.0984
 121739075.969 6                  23166162.531
 109761355.34047  85528388.93246  20886880.6094                   20886888.2544
 11  7 25  2  5  0.0000000  0  9G12G05G25G04G27G09G02G17G10
 112387171.440 8                  21386548.414
 116493797.125 7                  22168014.875
 126830913.856 6                  24135107.867
 113209190.92248  88214973.20845  21542962.7274                   21542970.1884
 125782686.60246  98012642.22043  23935682.8674                   23935693.0474
 124574782.19646  97071307.94843  23705795.3984                   23705805.3674
 108037936.30948  84185446.20446  20558900.8754                   20558905.7504
 121794859.948 6                  23176778.094
 109752349.51447  85521371.44246  20885167.3914                   20885174.3164
 11  7 25  2  5 30.0000000  0  9G12G05G25G04G27G09G02G17G10
 112329380.691 8                  21375550.758
 116400685.683 7                  22150297.047
 126731370.584 6                  24116165.797
 113284459.20148  88273623.84345  21557285.6174                   21557293.8204
 125847802.12446  98063381.49443  23948073.4454                   23948084.1804
 124655651.19646  97134322.67344  23721185.0084                   23721193.0824
 108035292.90848  84183386.40646  20558397.9534                   20558402.7384
 121850799.047 6                  23187422.844
 109743973.19447  85514844.45646  20883573.0634                   20883580.3984
 11  7 25  2  6  0.0000000  0  9G12G05G25G04G27G09G02G17G10
 112272029.116 8                  21364636.656
 116307855.573 7                  22132631.820
 126632003.757 6                  24097256.703
 113359892.65548  88332403.16945  21571640.2504                   21571647.8674
 125912987.34046  98114175.09743  23960479.6334                   23960488.9454
 124736685.95546  97197466.52143  23736605.3364                   23736614.4384
 108032953.82948  84181563.74746  20557953.3834                   20557957.9694
 121906893.613 6                  23198096.664
 109736226.89648  85508808.40446  20882099.1024                   20882105.9064
 11  7 25  2  6 30.0000000  0  9G12G05G25G04G27G09G02G17G10
 112215118.750 8                  21353807.391
 116215309.558 7                  22115020.469
 126532816.001 6                  24078382.813
 113435489.21648  88391309.60045  21586025.8674                   21586033.1454
 125978239.44946  98165020.82043  23972896.1884                   23972906.1134
 124817882.95047  97260736.83244  23752057.0084                   23752066.8524
 108030918.20448  84179977.55546  20557565.4224                   20557570.3874
 121963144.372 6                  23208801.438
 109729110.85847  85503263.46545  20880745.0704                   20880752.1454
 11  7 25  2  7  0.0000000  0  9G12G05G25G04G27G09G02G17G10
 112158652.218 8                  21343062.203
 116123050.602 7                  22097464.102
 126433810.078 6                  24059541.367
 113511247.09948  88450341.73945  21600442.1414                   21600449.3014
 126043555.98346  98215916.69843  23985325.8444                   23985334.6524
 124899239.08346  97324131.11943  23767538.6724                   23767547.6214
 108029185.29748  84178627.23546  20557235.4924                   20557240.7304
 122019551.560 6                  23219534.992
 109722625.59548  85498210.05046  20879510.6724                   20879517.7934
 11  7 25  2  7 30.0000000  0  9G12G05G25G04G27G09G02G17G10
 112102631.621 8                  21332401.930
 116031081.995 7                  22079962.945
 126334988.425 7                  24040736.445
 113587164.07648  88509497.83245  21614888.4224                   21614895.7664
 126108934.07646  98266860.52343  23997766.2194                   23997776.3164
 124980750.90746  97387646.71643  23783049.6414                   23783059.6054
 108027753.82248  84177511.81746  20556963.3984                   20556968.1644
 122076115.654 6                  23230298.820
 109716772.13048  85493648.92546  20878397.2034                   20878403.8054
 11  7 25  2  8  0.0000000  0  9G12G05G25G04G27G09G02G17G10
 112047058.712 8                  21321826.500
 115939406.115 7                  22062518.039
 126236353.552 7                  24021966.883
 113663237.89948  88568776.13445  21629365.0704                   21629372.3524
 126174370.74946  98317850.05343  24010218.8284                   24010228.6484
 125062414.72446  97451280.80544  23798589.6094                   23798599.1214
 108026622.46048  84176630.24446  20556748.1414                   20556753.2384
 122132837.154 6                  23241092.805
 109711550.28348  85489579.98046  20877403.1174                   20877410.5434
 11  7 25  2  8 30.0000000  0  9G12G05G25G04G27G09G02G17G10
 111991936.562 8                  21311337.070
 115848026.317 7                  22045129.242
 126137908.492 7                  24003233.078
 113739467.20248  88628175.56745  21643871.0234                   21643878.1214
 126239863.65346  98368883.44143  24022680.6174                   24022693.1054
 125144227.46546  97515030.91044  23814157.8594                   23814167.0864
 108025791.01347  84175982.38246  20556589.9304                   20556594.4064
 122189716.702 7                  23251917.086
 109706961.28247  85486004.16746  20876529.6724                   20876537.1484
 11  7 25  2  9  0.0000000  0  9G12G05G25G04G27G09G02G17G10
 111937267.006 8                  21300934.078
 115756945.289 7                  22027796.867
 126039655.660 7                  23984536.477
 113815849.69548  88687694.38045  21658406.0554                   21658413.2114
 126305409.95846  98419958.45342  24035154.8284                   24035166.1764
 125226185.42747  97578894.20344  23829753.8674                   23829764.2934
 108025257.93948  84175567.01646  20556488.5394                   20556492.9264
 122246754.504 6                  23262770.656
 109703004.93247  85482921.31546  20875777.1094                   20875784.4774
 11  7 25  2  9 30.0000000  0  9G12G05G25G04G27G09G02G17G10
 111883052.520 8                  21290617.094
 115666165.728 7                  22010521.820
 125941597.635 7                  23965876.680
 113892383.33248  88747330.96545  21672970.1484                   21672976.7424
 126371006.91846  98471072.80343  24047637.4534                   24047647.6254
 125308285.63646  97642868.31444  23845376.9774                   23845387.7584
 108025022.14047  84175383.28846  20556443.6644                   20556448.1764
 122303951.042 6                  23273654.719
 109699681.95147  85480332.02045  20875144.5944                   20875151.7464
 11  7 25  2 10  0.0000000  0  9G12G05G25G04G27G09G02G17G10
 111829294.614 8                  21280387.359
 115575690.539 7                  21993304.945
 125843736.862 6                  23947253.820
 113969066.06648  88807083.72845  21687561.9304                   21687569.7774
 126436651.35946  98522224.22143  24060129.5004                   24060140.0864
 125390524.36546  97706950.34444  23861027.2974                   23861037.5554
 108025082.20348  84175430.11946  20556455.1094                   20556459.5394
 122361306.712 6                  23284568.469
 109696992.49548  85478236.35646  20874632.9534                   20874639.4384
 11  7 25  2 10 30.0000000  0  9G12G05G25G04G27G09G02G17G10
 111775995.572 8                  21270244.820
 115485522.583 7                  21976146.375
 125746076.124 7                  23928669.398
 114045895.82648  88866951.05745  21702182.2814                   21702189.7584
 126502340.92546  98573410.78243  24072630.0474                   24072640.3754
 125472898.13546  97771137.62643  23876701.6564                   23876711.9454
 108025437.54548  84175707.03046  20556522.8204                   20556527.3984
 122418822.030 6                  23295514.406
 109694936.61847  85476634.40346  20874241.2114                   20874248.6524
 11  7 25  2 11  0.0000000  0  9G12G05G25G04G27G09G02G17G10
 111723158.533 8                  21260190.453
 115395665.189 7                  21959047.273
 125648618.296 7                  23910123.680
 114122871.22748  88926931.86245  21716830.4534                   21716837.5554
 126568072.98346  98624630.53542  24085138.3054                   24085148.4844
 125555403.87746  97835427.72443  23892401.8444                   23892412.5664
 108026087.25848  84176213.32746  20556646.3674                   20556650.8874
 122476497.239 6                  23306489.258
 109693515.00747  85475526.68246  20873970.9384                   20873978.3364
 11  7 25  2 11 30.0000000  0  9G12G05G25G04G27G09G02G17G10
 111670784.718 8                  21250224.000
 115306121.014 7                  21942007.406
 125551365.811 7                  23891617.336
 114199989.75648  88987024.19745  21731505.8364                   21731513.3754
 126633844.58046  98675881.03343  24097655.2814                   24097664.3364
 125638038.03147  97899817.91743  23908127.2584                   23908137.1764
 108027029.94448  84176947.93346  20556825.9144                   20556830.6334
 122534333.020 6                  23317494.844
 109692727.88147  85474913.35246  20873821.0784                   20873828.3594
 11  7 25  2 12  0.0000000  0  9G12G05G25G04G27G09G02G17G10
 111618876.309 8                  21240346.117
 115216892.547 7                  21925027.625
 125454321.210 7                  23873150.336
 114277249.47548  89047226.56145  21746207.2974                   21746214.9414
 126699652.89145  98727160.16143  24110177.2814                   24110187.7074
 125720797.32446  97964305.61943  23923875.2584                   23923886.2074
 108028264.29948  84177909.79546  20557060.6564                   20557065.5984
 122592329.513 6                  23328531.516
 109692575.39148  85474794.55346  20873792.3594                   20873799.2934
 11  7 25  2 12 30.0000000  0  9G12G05G25G04G27G09G02G17G10
 111567435.571 8                  21230556.867
 115127982.598 7                  21908108.555
 125357487.131 7                  23854723.313
 114354648.66948  89107537.59345  21760936.3524                   21760944.4804
 126765495.16445  98778465.70142  24122706.2584                   24122717.0474
 125803678.44846  98028888.19943  23939647.4064                   23939658.2304
 108029789.51047  84179098.31546  20557350.6644                   20557355.8984
 122650487.278 7                  23339598.875
 109693057.49747  85475170.24046  20873883.8284                   20873890.7464
 11  7 25  2 13  0.0000000  0  9G12G05G25G04G27G09G02G17G10
 111516464.783 8                  21220857.828
 115039394.237 7                  21891250.664
 125260866.397 7                  23836337.219
 114432185.28548  89167955.70545  21775690.4224                   21775698.8204
 126831368.99745  98829795.86742  24135242.0234                   24135251.8204
 125886677.70947  98093562.86443  23955442.3914                   23955451.2234
 108031604.57648  84180512.68346  20557695.8674                   20557700.9414
 122708806.722 6                  23350696.070
 109694175.06648  85476041.08346  20874096.3524                   20874103.5204
 11  7 25  2 13 30.0000000  0  9G12G05G25G04G27G09G02G17G10
 111465965.901 8                  21211247.742
 114951130.289 7                  21874454.813
 125164461.658 7                  23817992.086
 114509857.52148  89228479.50945  21790471.2734                   21790479.3634
 126897271.37646  98881148.30242  24147782.2114                   24147793.9344
 125969791.75247  98158326.98343  23971258.6564                   23971267.8094
 108033708.55848  84182152.18546  20558096.2734                   20558101.4264
 122767288.345 6                  23361823.891
 109695927.49848  85477406.62846  20874429.8594                   20874437.1174
 11  7 25  2 14  0.0000000  0  9G12G05G25G04G27G09G02G17G10
 111415940.792 8                  21201728.594
 114863193.278 7                  21857720.320
 125068275.367 7                  23799689.000
 114587663.26148  89289107.35045  21805277.6024                   21805285.0944
 126963199.69146  98932520.91342  24160328.1644                   24160339.6954
 126053017.15147  98223177.93344  23987096.0634                   23987105.7424
 108036099.87948  84184015.58446  20558551.5704                   20558556.4964
 122825932.156 7                  23372983.961
 109698315.10048  85479267.10946  20874884.3134                   20874891.4144
 11  7 25  2 14 30.0000000  0  9G12G05G25G04G27G09G02G17G10
 111366391.616 8                  21192299.594
 114775586.227 7                  21841049.641
 124972310.275 7                  23781427.109
 114665600.65347  89349837.77545  21820108.3984                   21820116.0234
 127029151.00346  98983911.48942  24172879.3754                   24172889.3914
 126136350.76047  98288113.13344  24002954.0314                   24002964.3404
 108038777.31348  84186101.93746  20559060.8364                   20559065.2934
 122884738.680 7                  23384174.781
 109701337.90448  85481622.54846  20875459.7274                   20875466.3674
 11  7 25  2 15  0.0000000  0  9G12G05G25G04G27G09G02G17G10
 111317320.541 8                  21182961.656
 114688312.201 7                  21824441.875
 124876569.038 7                  23763207.820
 114743667.67648  89410669.23345  21834964.3364                   21834971.5394
 127095122.66346  99035317.85343  24185432.1644                   24185443.8674
 126219789.10947  98353129.96344  24018831.6804                   24018842.0354
 108041740.07948  84188410.62146  20559624.7424                   20559629.3054
 122943708.486 7                  23395396.391
 109704995.94947  85484473.00446  20876155.8134                   20876162.9884
 11  7 25  2 15 30.0000000  0  9G12G05G25G04G27G09G02G17G10
 111268729.607 8                  21173715.273
 114601373.654 7                  21807898.047
 124781054.308 7                  23745032.344
 114821862.60348  89471600.36545  21849844.0784                   21849852.3164
 127161111.87746  99086737.98042  24197990.4304                   24198001.7344
 126303329.18947  98418226.04643  24034729.5084                   24034739.0594
 108044987.02748  84190940.74546  20560242.6094                   20560247.5044
 123002841.932 7                  23406649.023
 109709289.30848  85487818.48546  20876972.8134                   20876979.8364
 11  7 25  2 16  0.0000000  0  9G12G05G25G04G27G09G02G17G10
 111220620.805 8                  21164560.563
 114514773.436 7                  21791418.313
 124685768.876 7                  23726900.188
 114900183.55548  89532629.68745  21864748.2114                   21864755.3204
 127227116.06846  99138169.66842  24210549.9774                   24210562.1414
 126386967.33147  98483398.56143  24050644.5704                   24050654.7814
 108048517.28848  84193691.63946  20560913.9614                   20560918.9614
 123062139.485 7                  23417933.320
 109714218.15448  85491659.16346  20877910.5784                   20877917.8444
 11  7 25  2 16 30.0000000  0  9G12G05G25G04G27G09G02G17G10
 111172996.291 8                  21155497.453
 114428514.387 7                  21775003.398
 124590715.381 7                  23708812.063
 114978628.61948  89593755.72045  21879675.0474                   21879683.3914
 127293132.59046  99189611.06842  24223112.7584                   24223123.9774
 126470700.18146  98548644.85943  24066578.3364                   24066588.5944
 108052329.66748  84196662.34846  20561639.9224                   20561644.3914
 123121601.594 7                  23429248.438
 109719782.58747  85495995.08746  20878969.5164                   20878976.4614
 11  7 25  2 17  0.0000000  0  9G12G05G25G04G27G09G02G17G10
 111125857.969 8                  21146527.680
 114342599.403 7                  21758654.281
 124495896.471 7                  23690767.336
 115057196.08648  89654977.12145  21894626.3984                   21894634.2464
 127359158.79245  99241059.94552  24235676.5704                   24235689.0004
 126554524.40946  98613962.38543  24082529.5554                   24082538.8324
 108056423.13048  84199852.07746  20562418.8284                   20562423.3324
 123181228.564 7                  23440594.672
 109725982.50748  85500826.21946  20880149.3134                   20880155.9144
 11  7 25  2 17 30.0000000  0  9G12G05G25G04G27G09G02G17G10
 111079207.725 8                  21137650.016
 114257030.996 8                  21742371.516
 124401314.834 7                  23672770.570
 115135884.06348  89716292.40745  21909600.1954                   21909608.4104
 127425191.96845  99292514.24042  24248242.8984                   24248256.1844
 126638436.80346  98679348.55243  24098497.7034                   24098507.1094
 108060796.27048  84203259.73946  20563251.1484                   20563255.7154
 123241020.513 7                  23451972.602
 109732817.38347  85506152.10246  20881450.3054                   20881456.9964
 11  7 25  2 18  0.0000000  0  9G12G05G25G04G27G09G02G17G10
 111033047.865 8                  21128866.391
 114171812.059 7                  21726154.742
 124306973.113 7                  23654817.547
 115214690.64048  89777700.15345  21924596.7114                   21924604.1054
 127491229.275 5                  24260809.391
 126722433.87746  98744800.72043  24114481.5704                   24114492.4184
 108065447.98148  84206884.48146  20564136.3594                   20564140.5864
 123300977.964 7                  23463382.836
 109740287.35747  85511972.87546  20882871.2664                   20882877.9924
 11  7 25  2 18 30.0000000  0  9G12G05G25G04G27G09G02G17G10
 110987379.902 8                  21120175.938
 114086945.426 7                  21710005.086
 124212873.919 7                  23636910.539
 115293613.88548  89839198.81945  21939615.4614                   21939622.8554
 127557268.18016                  24273376.438
 126806512.46346  98810316.46543  24130481.9694                   24130491.8594
 108070377.53348  84210725.71946  20565074.1724                   20565078.1054
 123361101.443 7                  23474824.047
 109748392.07647  85518288.25946  20884413.9454                   20884420.9574
 11  7 25  2 19  0.0000000  0  9G12G05G25G04G27G09G02G17G10
 110942205.946 8                  21111579.758
 114002433.733 8                  21693923.422
 124119019.970 7                  23619050.586
 115372652.09147  89900787.06945  21954655.6414                   21954663.3364
 127623305.805 5                  24285943.844
 126890669.05846  98875892.94643  24146496.0784                   24146506.5314
 108075583.39348  84214782.27846  20566064.5314                   20566069.1484
 123421391.108 7                  23486295.797
 109757131.53747  85525098.24346  20886077.0704                   20886083.2974
 11  7 25  2 19 30.0000000  0  9G12G05G25G04G27G09G02G17G10
 110897528.173 8                  21103078.203
 113918279.636 7                  21677909.133
 124025413.953 7                  23601238.148
 115451803.42947  89962463.47845  21969717.6334                   21969724.5164
 127689339.358 6                  24298509.914
 126974900.62346  98941527.82842  24162525.0164                   24162534.9024
 108081064.70348  84219053.44246  20567107.7974                   20567112.2974
 123481847.391 6                  23497800.891
 109766505.50748  85532402.66046  20887860.9614                   20887868.0314
 11  7 25  2 20  0.0000000  0  9G12G05G25G04G27G09G02G17G10
 110853348.671 8                  21094670.641
 113834486.025 7                  21661963.602
 123932058.611 7                  23583472.891
 115531066.05447  90024226.60045  21984800.8754                   21984808.2814
 127755366.34546  99549825.67452  24311073.7114                   24311084.6174
 127059203.91146  99007218.65743  24178567.6644                   24178578.4344
 108086820.27748  84223538.33846  20568203.1254                   20568207.4844
 123542470.885 7                  23509336.930
 109776513.84848  85540201.38346  20889765.2664                   20889771.6954
 11  7 25  2 20 30.0000000  0  9G12G05G25G04G27G09G02G17G10
 110809668.594 8                  21086358.820
 113751055.286 7                  21646086.820
 123838956.377 7                  23565756.430
 115610438.06047  90086074.95145  21999904.6644                   21999912.3874
 127821384.15146  99601268.06942  24323636.1804                   24323647.4614
 127143575.48945  99072962.72442  24194621.5394                   24194632.9614
 108092848.87348  84228235.93946  20569350.2344                   20569355.0084
 123603261.525 7                  23520904.875
 109787156.16448  85548494.10046  20891790.6024                   20891797.0124
 11  7 25  2 21  0.0000000  0  9G12G05G25G04G27G09G02G17G10
 110766490.001 8                  21078141.813
 113667990.206 8                  21630280.484
 123746109.977 7                  23548088.203
 115689917.81547  90148007.22745  22015029.1094                   22015036.8094
 127887389.85446  99652700.95843  24336197.3284                   24336208.5594
 127228012.00245  99138757.27042  24210690.7114                   24210700.6914
 108099149.17048  84233145.28346  20570549.0164                   20570553.8524
 123664219.690 6                  23532505.172
 109798431.83848  85557280.35046  20893936.0704                   20893942.7664
 11  7 25  2 21 30.0000000  0  9G12G05G25G04G27G09G02G17G10
 110723815.190 8                  21070021.422
 113585293.733 8                  21614543.977
 123653522.232 7                  23530469.563
 115769503.57347  90210022.10445  22030174.2034                   22030181.7734
 127953380.88646  99704122.51042  24348755.0784                   24348766.1484
 127312510.06946  99204599.87342  24226769.8364                   24226780.3444
 108105720.41648  84238265.74146  20571799.6484                   20571804.2894
 123725345.976 7                  23544137.453
 109810340.93348  85566560.18746  20896202.3674                   20896209.3364
 11  7 25  2 22  0.0000000  0  9G12G05G25G04G27G09G02G17G10
 110681645.407 8                  21061996.391
 113502968.475 8                  21598877.758
 123561195.737 7                  23512899.844
 115849193.41047  90272118.08645  22045338.8594                   22045346.4534
 128019354.67446  99755530.53242  24361310.2034                   24361320.8754
 127397066.46345  99270487.86642  24242860.9614                   24242871.5124
 108112561.24648  84243596.27646  20573101.4144                   20573105.9304
 123786640.578 7                  23555801.773
 109822883.08148  85576333.29646  20898588.9064                   20898595.5204
 11  7 25  2 22 30.0000000  0  9G12G05G25G04G27G09G02G17G10
 110639982.621 8                  21054068.273
 113421016.803 8                  21583282.969
 123469132.962 7                  23495380.758
 115928985.63048  90334293.86545  22060522.6094                   22060530.1294
 128085308.27245  99806922.84842  24373858.6564                   24373872.2234
 127481677.96346  99336418.85143  24258961.3754                   24258972.3794
 108119670.46748  84249135.94846  20574454.2664                   20574458.5234
 123848103.817 6                  23567496.883
 109836057.64748  85586599.21646  20901096.2814                   20901102.6804
 11  7 25  2 23  0.0000000  0  9G12G05G25G04G27G09G02G17G10
 110598829.149 8                  21046236.891
 113339442.058 8                  21567759.141
 123377337.257 7                  23477912.781
 116008878.65747  90396548.19145  22075725.3674                   22075733.0744
 128151239.69355  99858297.86452  24386408.0164                   24386418.9104
 127566341.75546  99402390.53643  24275072.6254                   24275083.2384
 108127048.02148  84254884.70046  20575857.8364                   20575862.3674
 123909736.375 6                  23579224.891
 109849865.00648  85597358.21745  20903723.1484                   20903729.8484
 11  7 25  2 23 30.0000000  0  9G12G05G25G04G27G09G02G17G10
 110558186.433 8                  21038502.914
 113258246.438 8                  21552308.477
 123285810.716 7                  23460495.070
 116088870.67647  90458879.65545  22090947.4614                   22090954.7544
 128217145.805 4                  24398946.742
 127651053.77346  99468399.83743  24291193.9064                   24291202.6724
 108134691.48248  84260840.66546  20577312.7034                   20577317.0704
 123971538.157 7                  23590986.461
 109864303.97648  85608609.40346  20906470.6644                   20906478.1644
 11  7 25  2 24  0.0000000  0  9G12G05G25G04G27G09G02G17G10
 110518056.363 8                  21030866.383
 113177432.707 8                  21536929.906
 123194556.086 7                  23443130.117
 116168959.83347  90521286.80045  22106188.0394                   22106195.2854
 128283024.15445  99960982.77552  24411485.3984                   24411494.1764
 127735810.96846  99534444.32643  24307321.9454                   24307332.4104
 108142600.12248  84267003.25446  20578817.2894                   20578821.6454
 124033509.743 7                  23602778.891
 109879374.16548  85620352.43446  20909338.5944                   20909345.3484
 11  7 25  2 24 30.0000000  0  9G12G05G25G04G27G09G02G17G10
 110478441.087 8                  21023327.578
 113097003.406 8                  21521625.070
 123103576.161 7                  23425817.547
 116249144.56347  90583768.43544  22121446.2734                   22121453.5904
 128348871.84344 100012292.59242  24424013.7664                   24424025.9304
 127820610.16246  99600521.56243  24323458.9384                   24323469.0474
 108150772.68948  84273371.50746  20580372.6254                   20580376.9844
 124095651.321 6                  23614603.914
 109895075.09648  85632586.94246  20912326.4844                   20912333.4694
 11  7 25  2 25  0.0000000  0  8G12G05G25G04G09G02G17G10
 110439341.489 7                  21015887.180
 113016961.203 7                  21506393.547
 123012873.706 7                  23408556.852
 116329423.06547  90646323.11445  22136722.5634                   22136730.3834
 127905448.28046  99666629.09443  24339603.9304                   24339612.3444
 108159208.30048  84279944.73246  20581977.7584                   20581982.9144
 124157963.039 6                  23626461.383
 109911406.62347  85645312.82145  20915434.3984                   20915440.5634
 11  7 25  2 25 30.0000000  0  8G12G05G25G04G09G02G17G10
 110400759.380 8                  21008545.289
 112937308.136 8                  21491236.047
 122922450.949 7                  23391350.180
 116409793.49447  90708949.40845  22152016.8134                   22152024.3634
 127990321.91746  99732764.35743  24355754.1024                   24355765.0744
 108167905.47848  84286721.76946  20583632.3914                   20583637.7424
 124220444.865 6                  23638351.586
 109928367.27548  85658528.93546  20918661.7424                   20918668.2704
 11  7 25  2 26  0.0000000  0  8G12G05G25G04G09G02G17G10
 110362697.108 8                  21001301.961
 112858048.180 8                  21476153.367
 122832311.232 7                  23374197.141
 116490254.36047  90771646.18245  22167328.0234                   22167336.1914
 128075228.23546  99798925.09143  24371911.3444                   24371921.8834
 108176863.68348  84293702.20046  20585337.5164                   20585341.9844
 124283098.177 6                  23650273.492
 109945957.42448  85672235.56046  20922008.9694                   20922015.8754
 11  7 25  2 26 30.0000000  0  9G12G05G25G04G27G09G02G17G10
 110325156.361 8                  20994158.641
 112779183.304 8                  21461145.711
 122742457.013 7                  23357098.375
 116570804.23347  90834412.30745  22182656.2894                   22182664.1914
 128612121.58115                  24474070.867
 128160163.80646  99865108.47243  24388073.9224                   24388083.1414
 108186081.56848  84300884.97546  20587091.5234                   20587095.7464
 124345922.968 6                  23662228.875
 109964176.11548  85686431.96246  20925476.0474                   20925482.7814
 11  7 25  2 27  0.0000000  0  8G12G05G25G04G09G02G17G10
 110288137.938 8                  20987113.703
 112700715.174 8                  21446213.961
 122652890.200 7                  23340054.406
 116651440.48747  90897245.73845  22198001.1884                   22198009.0634
 128245124.71046  99931311.74643  24404241.9774                   24404252.7384
 108195557.17748  84308268.58546  20588894.5314                   20588899.0084
 124408918.391 6                  23674216.344
 109983021.93848  85701117.04846  20929061.8444                   20929068.7934
 11  7 25  2 27 30.0000000  0  9G12G05G25G04G27G09G02G17G10
 110251643.818 8                  20980169.117
 112622646.995 8                  21431357.727
 122563614.113 7                  23323066.180
 116732162.06147  90960145.64145  22213362.0554                   22213369.0704
 128743387.25915                  24499048.688
 128330108.37246  99997532.80442  24420412.8754                   24420424.7504
 108205289.85948  84315852.51346  20590747.0704                   20590751.5634
 124472085.532 6                  23686237.039
 110002495.03148  85716290.91346  20932767.5634                   20932773.9454
 11  7 25  2 28  0.0000000  0  9G12G05G25G04G27G09G02G17G10
 110215675.768 8                  20973325.156
 112544981.179 8                  21416578.242
 122474631.201 7                  23306132.555
 116812967.25547  91023110.72045  22228738.9384                   22228746.2304
 128808947.601 5                  24511522.922
 128415111.47746 100063768.87242  24436588.7734                   24436598.2464
 108215278.47548  84323635.88146  20592647.3134                   20592652.1644
 124535424.425 6                  23698289.547
 110022594.47848  85731952.83946  20936592.3524                   20936599.5354
 11  7 25  2 28 30.0000000  0  9G12G05G25G04G27G09G02G17G10
 110180236.206 8                  20966581.250
 112467720.862 8                  21401876.063
 122385944.611 7                  23289256.563
 116893854.65947  91086139.87845  22244130.8754                   22244138.6914
 128874454.79256 100421682.28952  24523990.1024                   24524000.9844
 128500131.34846 100130018.07842  24452766.8754                   24452778.2274
 108225522.22448  84331618.05146  20594596.6954                   20594601.4844
 124598935.858 6                  23710375.992
 110043319.75547  85748102.43546  20940536.1094                   20940542.7774
 11  7 25  2 29  0.0000000  0  9G12G05G25G04G27G09G02G17G10
 110145325.304 8                  20959937.836
 112390867.837 8                  21387251.563
 122297556.346 7                  23272436.734
 116974822.18947  91149231.45245  22259538.6094                   22259546.1844
 128939909.60346 100472685.98942  24536445.4694                   24536456.6414
 128585164.00145 100196277.16142  24468948.1094                   24468961.2814
 108236019.10948  84339797.46046  20596594.2814                   20596599.2154
 124662619.433 6                  23722495.102
 110064669.33248  85764738.49546  20944598.9534                   20944605.9344
 11  7 25  2 29 30.0000000  0  9G12G05G25G04G27G09G02G17G10
 110110945.371 8                  20953395.695
 112314424.888 8                  21372705.148
 122209469.526 7                  23255673.773
 117055868.45547  91212384.40145  22274960.7664                   22274968.3524
 129005307.88346 100523645.56943  24548888.9224                   24548902.6024
 128670206.41615                  24485132.227
 108246768.90048  84348173.93646  20598639.9384                   20598644.3284
 124726475.887 6                  23734645.875
 110086643.13948  85781860.96345  20948780.5474                   20948786.9534
 11  7 25  2 30  0.0000000  0  9G12G05G25G04G27G09G02G17G10
 110077098.161 8                  20946954.781
 112238394.779 8                  21358236.945
 122121686.825 7                  23238969.172
 117136992.03047  91275597.59144  22290397.8674                   22290405.1684
 129070647.05445 100574558.98442  24561324.2894                   24561336.2114
 128755255.85115                  24501316.719
 108257770.16948  84356746.36146  20600733.3134                   20600738.6954
 124790505.519 6                  23746830.148
 110109240.39247  85799469.23046  20953080.3914                   20953087.2074
 11  7 25  2 30 30.0000000  0  9G12G05G25G04G27G09G02G17G10
 110043784.916 8                  20940615.359
 112162779.736 8                  21343847.734
 122034210.844 7                  23222323.797
 117218191.17347  91338869.64544  22305849.6804                   22305857.5204
 129135924.47456 100625424.47053  24573746.2664                   24573758.3794
 128840309.16214                  24517502.320
 108269021.90948  84365513.97346  20602874.9064                   20602878.8524
 124854708.424 6                  23759047.898
 110132460.22148  85817562.62546  20957498.9614                   20957505.6564
 11  7 25  2 31  0.0000000  0  8G12G05G25G04G27G02G17G10
 110011007.166 8                  20934378.227
 112087582.250 8                  21329537.758
 121947044.086 7                  23205735.602
 117299464.22347  91402199.30145  22321315.8444                   22321323.6294
 129201137.39545 100676239.60742  24586155.2734                   24586167.3404
 108280522.52648  84374475.51046  20605063.0784                   20605067.5124
 124919084.742 6                  23771297.664
 110156301.50948  85836140.25446  20962035.9064                   20962042.9964
 11  7 25  2 31 30.0000000  0  9G12G05G25G04G27G09G02G17G10
 109978766.536 8                  20928242.953
 112012804.978 8                  21315308.367
 121860189.366 7                  23189208.188
 117380809.69047  91465585.37945  22336795.3284                   22336803.2154
 129266283.18146 100727002.46943  24598553.7734                   24598563.4694
 129010416.84115                  24549871.273
 108292271.15048  84383630.30246  20607298.5474                   20607303.0944
 124983634.762 6                  23783581.602
 110180763.31648  85855201.41546  20966690.7664                   20966697.9304
 11  7 25  2 32  0.0000000  0  9G12G05G25G04G27G09G02G17G10
 109947064.189 8                  20922210.438
 111938449.767 8                  21301159.328
 121773649.102 7                  23172739.719
 117462225.73047  91529026.44844  22352288.5004                   22352295.5824
 129331359.30245 100777710.99942  24610935.7974                   24610949.0084
 129095461.70845 100593932.70152  24566055.4224                   24566067.5474
 108304266.41948  84392977.29046  20609581.3444                   20609585.7194
 125048358.465 6                  23795898.109
 110205844.78547  85874745.44046  20971463.5234                   20971470.3484
 11  7 25  2 32 30.0000000  0  9G12G05G25G04G27G09G02G17G10
 109915901.852 8                  20916279.844
 111864519.746 8                  21287090.688
 121687426.279 7                  23156332.609
 117543711.03147  91592521.50045  22367794.7974                   22367801.6764
 129396363.60244 100828363.46142  24623303.8984                   24623318.5234
 129180497.78046 100660194.55942  24582237.6954                   24582249.5274
 108316507.53548  84402515.84246  20611910.5394                   20611915.4844
 125113256.278 6                  23808246.703
 110231545.18448  85894771.73646  20976354.3834                   20976360.5634
 11  7 25  2 33  0.0000000  0  9G12G05G25G04G27G09G02G17G10
 109885280.745 8                  20910453.344
 111791017.288 8                  21273103.648
 121601523.473 7                  23139985.648
 117625264.11747  91656069.37345  22383313.5234                   22383320.8204
 129461293.22454 100878957.78352  24635661.3054                   24635675.0514
 129265521.621 5                  24598416.672
 108328993.25548  84412244.98446  20614286.4454                   20614291.0704
 125178328.726 6                  23820629.992
 110257863.22547  85915279.30646  20981362.3054                   20981368.9494
 11  7 25  2 33 30.0000000  0  9G12G05G25G04G27G09G02G17G10
 109855202.866 8                  20904728.984
 111717945.309 8                  21259198.359
 121515943.598 7                  23123699.992
 117706883.63947  91719669.00245  22398845.0314                   22398852.9064
 129526146.13445 100929492.25942  24648004.0634                   24648015.6684
 129350530.52045 100792686.49752  24614593.1174                   24614604.3364
 108341722.59448  84422163.96546  20616709.0704                   20616713.8794
 125243575.977 6                  23833046.625
 110284798.27047  85936267.66846  20986488.3914                   20986495.2154
 11  7 25  2 34  0.0000000  0  9G12G05G25G04G27G09G02G17G10
 109825669.641 8                  20899109.445
 111645305.258 8                  21245375.133
 121430688.864 7                  23107477.016
 117788567.40647  91783318.72045  22414388.7344                   22414396.8634
 129590919.07945 100979965.66052  24660329.0634                   24660339.8794
 129435520.96345 100858912.56742  24630768.6724                   24630777.5124
 108354694.10048  84432271.65246  20619177.4534                   20619181.7934
 125308997.829 6                  23845496.188
 110312348.98948  85957735.77746  20991730.9064                   20991737.9924
 11  7 25  2 34 30.0000000  0  9G12G05G25G04G27G09G02G17G10
 109796681.414 8                  20893593.063
 111573099.272 8                  21231634.875
 121345761.707 7                  23091316.039
 117870314.01147  91847017.37544  22429944.5394                   22429952.6174
 129655609.56545 101030373.62542  24672639.6414                   24672651.4614
 129520489.54446 100925121.77743  24646935.2504                   24646946.7234
 108367906.28648  84442566.86846  20621691.6174                   20621695.9454
 125374594.542 6                  23857978.570
 110340514.04747  85979682.58646  20997090.1254                   20997097.1914
 11  7 25  2 35  0.0000000  0  9G12G05G25G04G27G09G02G17G10
 109768239.758 8                  20888180.727
 111501330.118 8                  21217977.789
 121261164.978 7                  23075217.453
 117952122.06547  91910763.91344  22445512.0634                   22445520.4574
 129720215.18945 101080715.30742  24684934.0164                   24684946.9694
 129605433.55846 100991311.81343  24663099.5474                   24663112.6844
 108381358.13048  84453048.84546  20624251.1804                   20624255.5084
 125440366.231 6                  23870493.648
 110369292.52947  86002107.38346  21002566.6414                   21002573.2114
 11  7 25  2 35 30.0000000  0  9G12G05G25G04G27G09G02G17G10
 109740346.636 8                  20882872.375
 111430000.577 8                  21204404.039
 121176901.615 7                  23059182.961
 118033990.37047  91974557.40144  22461091.1644                   22461099.2854
 129784733.717 4                  24697214.078
 129690350.32745 101057480.63742  24679260.2734                   24679270.6764
 108395048.97848  84463717.06546  20626856.2814                   20626860.6914
 125506313.248 6                  23883043.875
 110398683.37948  86025009.35245  21008159.5704                   21008165.9534
 11  7 25  2 36  0.0000000  0  8G12G05G25G04G09G02G17G10
 109713003.178 7                  20877669.625
 111359112.624 8                  21190914.367
 121092973.937 7                  23043211.492
 118115917.13147  92038396.44544  22476681.1334                   22476688.9454
 129775236.41046 101123625.65443  24695412.3444                   24695423.6094
 108408977.41048  84474570.39646  20629506.9774                   20629511.6884
 125572435.838 6                  23895626.586
 110428685.43647  86048387.58645  21013868.5704                   21013876.1844
 11  7 25  2 36 30.0000000  0  8G12G05G25G04G09G02G17G10
 109686210.922 8                  20872571.125
 111288668.444 8                  21177509.484
 121009384.747 7                  23027305.000
 118197901.02347  92102280.00045  22492283.1484                   22492290.5594
 129860088.99145 101189744.28642  24711560.0704                   24711571.3284
 108423142.55448  84485608.19146  20632202.5784                   20632206.7854
 125638734.346 6                  23908242.156
 110459297.77947  86072241.37146  21019694.2274                   21019701.2424
 11  7 25  2 37  0.0000000  0  8G12G05G25G04G09G02G17G10
 109659971.083 8                  20867577.680
 111218670.926 8                  21164189.570
 120926136.926 7                  23011463.570
 118279940.91447  92166207.20044  22507893.9224                   22507901.7814
 129944904.92645 101255834.66942  24727699.3204                   24727710.5784
 108437543.28048  84496829.55946  20634942.8754                   20634947.4304
 125705209.117 6                  23920892.461
 110490519.56347  86096570.04645  21025635.0234                   21025642.3554
 11  7 25  2 37 30.0000000  0  9G12G05G25G04G27G09G02G17G10
 109634283.845 8                  20862689.594
 111149121.605 8                  21150954.398
 120843232.034 7                  22995686.758
 118362034.10447  92230175.93844  22523516.2734                   22523523.4184
 130041895.03914                  24746146.055
 130029680.39445 101321893.31542  24743834.2734                   24743842.2544
 108452177.59348  84508232.93446  20637727.5784                   20637732.1454
 125771859.158 6                  23933575.078
 110522348.42747  86121371.75745  21031691.9534                   21031699.2544
 11  7 25  2 38  0.0000000  0  9G12G05G25G04G27G09G02G17G10
 109609151.713 8                  20857907.383
 111080023.521 8                  21137805.289
 120760673.687 7                  22979976.078
 118444180.19747  92294185.88044  22539147.9844                   22539155.3954
                                  24758335.711
 130114413.19745 101387918.84642  24759955.6174                   24759967.7464
 108467045.27348  84519818.16646  20640556.9064                   20640561.3984
 125838685.591 6                  23946291.469
 110554783.83547  86146646.10446  21037864.5474                   21037871.3444
 11  7 25  2 38 30.0000000  0  8G12G05G25G04G09G02G17G10
 109584575.888 8                  20853230.234
 111011378.747 8                  21124742.602
 120678464.506 7                  22964332.070
 118526377.92747  92358236.07344  22554789.8284                   22554796.8594
 130199100.48146 101453908.79542  24776074.6564                   24776083.9414
 108482145.05648  84531584.24146  20643430.1174                   20643434.8874
 125905688.690 6                  23959042.313
 110587824.75348  86172392.27746  21044151.9304                   21044158.8444
 11  7 25  2 39  0.0000000  0  8G12G05G25G04G09G02G17G10
 109560556.910 8                  20848659.664
 110943189.404 8                  21111766.844
 120596606.792 7                  22948755.328
 118608625.49147  92422325.08644  22570440.6094                   22570448.7894
                                  24792176.7974                   24792189.6764
 108497475.88648  84543530.37446  20646347.3204                   20646352.3524
 125972868.482 6                  23971826.781
 110621469.45647  86198608.92445  21050554.4924                   21050560.6954
 11  7 25  2 39 30.0000000  0  7G12G05G25G04G02G17G10
 109537097.360 8                  20844195.594
 110875458.891 8                  21098878.031
 120515104.205 7                  22933245.695
 118690922.46247  92486452.59844  22586101.2894                   22586109.1724
 108513037.48448  84555656.32146  20649308.5704                   20649313.1914
 126040225.850 6                  23984644.391
 110655717.75247  86225295.91146  21057071.4534                   21057078.7304
 11  7 25  2 40  0.0000000  0  8G12G05G25G04G27G02G17G10
 109514197.090 7                  20839837.773
 110808188.386 8                  21086076.836
 120433958.240 7                  22917803.844
 118773266.53547  92550616.78144  22601771.1564                   22601778.5004
                                  24806886.016
 108528827.68348  84567960.40146  20652313.4384                   20652318.5514
 126107760.030 6                  23997495.180
 110690567.32248  86252451.44246  21063703.2034                   21063710.0514
 11  7 25  2 40 30.0000000  0  9G12G05G25G04G27G09G02G17G10
 109491855.699 7                  20835586.297
 110741377.997 8                  21073363.500
 120353169.628 7                  22902430.375
 118855654.04647  92614814.84944  22617448.9144                   22617456.0864
 130424580.552 5                  24818971.648
 130537327.95716                  24840435.883
 108544843.24148  84580440.08046  20655361.4924                   20655366.0124
 126175469.146 6                  24010379.992
 110726014.77947  86280072.84746  21070448.7034                   21070456.0274
 11  7 25  2 41  0.0000000  0  9G12G05G25G04G27G09G02G17G10
 109470075.126 8                  20831441.438
 110675031.203 8                  21060738.078
 120272742.200 7                  22887125.094
 118938085.27347  92679046.99345  22633135.5234                   22633142.0394
 130487974.673 5                  24831035.508
 130621739.419 5                  24856498.383
 108561084.55948  84593095.67246  20658451.4224                   20658456.1484
 126243354.550 6                  24023298.633
 110762060.00248  86308160.05046  21077307.6884                   21077314.6254
 11  7 25  2 41 30.0000000  0  9G12G05G25G04G27G09G02G17G10
 109448857.800 8                  20827404.070
 110609151.328 8                  21048201.266
 120192679.631 7                  22871890.578
 119020559.76047  92743312.82844  22648829.6254                   22648837.0784
 130551252.756 5                  24843077.633
 130706087.29715                  24872547.563
 108577551.42348  84605927.00946  20661585.2504                   20661590.0124
 126311417.605 6                  24036249.984
 110798702.69948  86336712.80446  21084280.4384                   21084287.8914
 11  7 25  2 42  0.0000000  0  9G12G05G25G04G27G09G02G17G10
 109428203.802 7                  20823473.547
 110543739.726 8                  21035753.969
 120112983.682 7                  22856724.828
 119103075.36547  92807610.70844  22664531.4614                   22664539.1954
 130614411.26014                  24855092.992
 130790368.260 6                  24888588.180
 108594241.87048  84618932.57346  20664761.6174                   20664766.3634
 126379657.702 6                  24049235.031
 110835940.54347  86365729.32146  21091366.8284                   21091373.6024
 11  7 25  2 42 30.0000000  0  9G12G05G25G04G27G09G02G17G10
 109408114.488 8                  20819650.719
 110478798.783 8                  21023395.992
 120033657.283 7                  22841629.750
 119185630.94747  92871939.73744  22680241.7344                   22680249.0044
 130677448.51815                  24867091.422
 130874579.310 6                  24904612.656
 108611155.31048  84632111.89246  20667979.9144                   20667984.6564
 126448075.087 6                  24062254.523
 110873772.61547  86395208.85646  21098565.8754                   21098572.8984
 11  7 25  2 43  0.0000000  0  9G12G05G25G04G27G09G02G17G10
 109388591.106 8                  20815935.664
 110414330.676 8                  21011128.336
 119954702.894 7                  22826604.648
 119268225.20547  92936298.89244  22695958.4454                   22695965.7814
 130740361.632 5                  24879063.945
 130958717.75746 102045833.56253  24920624.1484                   24920637.3244
 108628290.46348  84645463.98746  20671240.7584                   20671245.3324
 126516669.694 6                  24075307.484
 110912197.20847  86425150.11446  21105877.8754                   21105884.6764
 11  7 25  2 43 30.0000000  0  9G12G05G25G04G27G09G02G17G10
 109369634.636 8                  20812328.320
 110350337.775 8                  20998950.945
 119876123.338 7                  22811651.406
 119350856.86147  93000687.17544  22711682.8444                   22711690.0394
 130803148.43515                  24891010.109
 131042780.52246 102111336.96042  24936620.2344                   24936633.5984
 108645646.33248  84658988.07446  20674543.0704                   20674548.0944
 126585442.033 6                  24088394.938
 110951213.01847  86455552.04545  21113302.7814                   21113309.1024
 11  7 25  2 44  0.0000000  0  9G12G05G25G04G27G09G02G17G10
 109351245.753 8                  20808828.672
 110286821.911 8                  20986864.344
 119797920.988 7                  22796770.359
 119433524.62247  93065103.62844  22727414.3054                   22727421.7304
 130865806.560 5                  24902935.438
 131126764.63546 102176778.93643  24952602.3834                   24952612.9924
 108663221.67148  84672683.15446  20677887.5704                   20677892.1174
 126654391.780 6                  24101515.328
 110990818.54147  86486413.51246  21120839.1724                   21120845.9534
 11  7 25  2 44 30.0000000  0  9G12G05G25G04G27G09G02G17G10
 109333425.644 8                  20805438.195
 110223785.401 8                  20974868.523
 119720098.352 7                  22781960.656
 119516227.18947  93129547.18644  22743150.8134                   22743158.8984
 130928333.623 5                  24914834.680
 131210667.41455 102242157.53052  24968564.7974                   24968579.6804
 108681015.45848  84686548.45746  20681273.7344                   20681278.6994
 126723519.348 6                  24114670.563
 111031011.95548  86517733.06745  21128487.8984                   21128494.4344
 11  7 25  2 45  0.0000000  0  9G12G05G25G04G27G09G02G17G10
 109316175.401 8                  20802155.234
 110161230.588 8                  20962964.781
 119642658.333 7                  22767224.406
 119598963.54847  93194017.11744  22758895.1644                   22758902.8134
 130990727.62415                  24926706.578
 131294485.91055 102307470.57052  24984519.8834                   24984531.4614
 108699026.84948  84700583.33246  20684701.2424                   20684705.8324
 126792824.632 5                  24127858.461
 111071792.11848  86549509.84145  21136247.9614                   21136254.4344
 11  7 25  2 45 30.0000000  0  9G12G05G25G04G27G09G02G17G10
 109299495.098 8                  20798981.141
 110099158.438 8                  20951152.609
 119565602.720 7                  22752561.031
 119681731.53647  93258511.60744  22774645.9454                   22774653.5944
 131052985.661 5                  24938555.836
                                  25000450.3204                   25000463.0234
 108717254.10448  84714786.40846  20688169.9144                   20688174.3404
 126862307.457 6                  24141081.680
 111113156.63747  86581741.94145  21144119.8754                   21144125.8714
 11  7 25  2 46  0.0000000  0  9G12G05G25G04G27G09G02G17G10
 109283386.986 7                  20795915.867
 110037572.440 8                  20939433.180
 119488935.274 7                  22737971.992
 119764531.11647  93323030.74744  22790402.1254                   22790410.1564
 131115106.07314                  24950375.781
 131461857.02315                  25016370.258
 108735697.49448  84729157.89546  20691679.2344                   20691684.1764
 126931968.851 6                  24154337.352
 111155105.29748  86614429.20345  21152101.9694                   21152108.3054
 11  7 25  2 46 30.0000000  0  8G12G05G25G04G27G02G17G10
 109267849.892 8                  20792958.898
 109976472.412 8                  20927806.320
 119412656.423 7                  22723456.055
 119847359.24947  93387572.16344  22806163.4534                   22806171.4844
 131177084.553 4                  24962171.375
 108754353.42448  84743694.99446  20695229.6414                   20695233.7734
 127001807.183 6                  24167626.391
 111197634.16848  86647568.60945  21160195.0084                   21160201.3954
 11  7 25  2 47  0.0000000  0  8G12G05G25G04G27G02G17G10
 109252887.252 8                  20790112.102
 109915862.551 8                  20916272.281
 119336770.947 7                  22709015.656
 119930216.65147  93452136.36744  22821931.0704                   22821939.0164
 131238921.54414                  24973938.477
 108773223.29048  84758398.80146  20698820.4144                   20698824.9304
 127071824.235 6                  24180950.453
 111240743.82048  86681160.56745  21168398.1484                   21168404.7854
 11  7 25  2 47 30.0000000  0  8G12G05G25G04G09G02G17G10
 109238497.761 7                  20787373.461
 109855743.323 8                  20904832.250
 119261279.771 7                  22694650.398
 120013100.50647  93516721.15544  22837703.6804                   22837711.5044
 131712204.99014                  25064009.453
 108792304.22948  84773267.07946  20702451.4144                   20702455.7544
 127142018.717 6                  24194308.750
 111284430.89548  86715202.44945  21176711.7664                   21176717.8444
 11  7 25  2 48  0.0000000  0  8G12G05G25G29G04G02G17G10
 109224683.291 8                  20784744.469
 109796117.876 8                  20893485.789
 119186186.580 7                  22680360.805
 129857686.16215                  24711090.695
 120096010.81447  93581326.57844  22853480.5944                   22853488.5984
 108811596.54748  84788300.07646  20706122.5234                   20706126.9184
 127212391.646 6                  24207700.305
 111328694.97348  86749693.96145  21185134.9454                   21185141.4924
 11  7 25  2 48 30.0000000  0  8G12G05G25G29G04G02G17G10
 109211443.889 8                  20782225.188
 109736987.404 8                  20882233.602
 119111493.007 7                  22666146.969
 129777743.633 5                  24695876.625
 120178945.48047  93645951.00444  22869262.3754                   22869270.0554
 108831098.30448  84803496.26446  20709833.5394                   20709837.8984
 127282942.526 6                  24221125.414
 111373533.62047  86784633.17745  21193667.1884                   21193673.8834
 11  7 25  2 49  0.0000000  0  9G12G05G25G29G04G09G02G17G10
 109198779.276 8                  20779815.141
 109678352.707 8                  20871076.008
 119037200.420 7                  22652009.570
 129697730.462 5                  24680654.172
 120261902.17747  93710592.58544  22885048.5634                   22885056.8134
 131961476.60715                  25111476.750
 108850807.18548  84818853.85046  20713583.8134                   20713588.5274
 127353670.107 6                  24234583.172
 111418943.61248  86820017.62245  21202308.1174                   21202315.6954
 11  7 25  2 49 30.0000000  0  9G12G05G25G29G04G09G02G17G10
 109186691.747 7                  20777515.328
 109620217.043 8                  20860013.094
 118963312.833 7                  22637948.797
 129617648.566 5                  24665414.266
 120344881.32747  93775251.67344  22900839.2664                   22900846.5664
 132044405.32615                  25127258.375
 108870723.67648  84834373.21646  20717373.8914                   20717378.7194
 127424575.960 6                  24248076.977
 111464925.01747  86855847.29645  21211059.0864                   21211065.4774
 11  7 25  2 50  0.0000000  0  9G12G05G25G29G04G09G02G17G10
 109175181.434 8                  20775324.570
 109562581.794 8                  20849045.695
 118889832.241 7                  22623965.742
 129537498.525 5                  24650162.617
 120427881.24747  93839926.93544  22916633.7194                   22916640.5394
 132127221.49614                  25143018.391
 108890846.29148  84850053.19146  20721203.0004                   20721207.6024
 127495659.326 6                  24261604.063
 111511475.45047  86892120.36645  21219916.3914                   21219923.6094
 11  7 25  2 50 30.0000000  0  8G12G05G25G29G04G02G17G10
 109164249.807 8                  20773244.586
 109505450.093 8                  20838173.430
 118816761.832 7                  22610061.563
 129457281.259 5                  24634897.063
 120510901.24347  93904617.81944  22932432.2194                   22932439.2704
 108911174.55648  84865893.42046  20725071.3674                   20725076.2384
 127566921.244 6                  24275164.695
 111558593.78047  86928835.93945  21228882.9694                   21228889.6484
 11  7 25  2 51  0.0000000  0  8G12G05G25G29G04G02G17G10
 109153896.613 8                  20771274.758
 109448822.416 8                  20827397.500
 118744103.143 7                  22596234.813
 129376996.300 5                  24619620.281
 120593939.46447  93969322.93344  22948233.5944                   22948240.9924
 108931706.58048  84881892.40146  20728978.5004                   20728983.3364
 127638360.830 7                  24288759.555
 111606277.24347  86965991.89745  21237956.7814                   21237963.5044
 11  7 25  2 51 30.0000000  0  8G12G05G25G29G04G02G17G10
 109144122.401 8                  20769414.789
 109392700.854 8                  20816717.906
 118671858.638 7                  22582487.031
 129296644.461 5                  24604328.602
 120676994.84547  94034041.42144  22964039.1884                   22964046.0824
 108952441.50848  84898049.51146  20732924.3594                   20732928.9844
 127709977.998 6                  24302387.586
 111654524.16847  87003586.90745  21247137.6174                   21247144.7814
 11  7 25  2 52  0.0000000  0  8G12G05G25G29G04G02G17G10
 109134927.908 8                  20767664.797
 109337086.996 8                  20806135.125
 118600031.022 7                  22568818.445
 129216226.184 5                  24589025.477
 120760066.26147  94098772.41744  22979845.7194                   22979853.8874
 108973378.30148  84914363.90546  20736908.2034                   20736912.8954
 127781772.942 6                  24316050.164
 111703332.96247  87041619.74645  21256425.5634                   21256432.3874
 11  7 25  2 52 30.0000000  0  8G12G05G25G29G04G02G17G10
 109126313.699 8                  20766025.617
 109281982.686 8                  20795648.898
 118528622.435 7                  22555229.695
 129135742.182 5                  24573709.219
 120843152.44747  94163514.87144  22995657.0944                   22995664.9884
 108994515.66548  84930834.58546  20740930.7974                   20740935.4064
 127853745.405 6                  24329745.469
 111752701.30747  87080088.60145  21265820.5164                   21265827.2234
 11  7 25  2 53  0.0000000  0  8G12G05G25G29G04G02G17G10
 109118280.456 8                  20764496.891
 109227390.364 8                  20785260.117
 118457635.630 7                  22541721.633
 129055193.067 6                  24558382.500
 120926252.77447  94228268.37144  23011470.6484                   23011478.1094
 109015853.06048  84947461.14346  20744990.8054                   20744995.3834
 127925895.703 6                  24343476.102
 111802627.56847  87118992.18945  21275321.2424                   21275327.4964
 11  7 25  2 53 30.0000000  0  8G12G05G25G29G04G02G17G10
 109110827.852 8                  20763078.781
 109173310.136 8                  20774969.273
 118387071.798 7                  22528293.680
 128974578.225 5                  24543042.148
 121009364.59447  94293030.83444  23027286.8984                   23027294.0204
 109037388.01048  84964241.62746  20749088.9694                   20749093.4344
 127998222.849 6                  24357238.055
 111853108.74147  87158328.18245  21284927.3284                   21284934.0944
 11  7 25  2 54  0.0000000  0  8G12G05G25G29G04G02G17G10
 109103957.116 8                  20761771.297
 109119745.133 8                  20764776.008
 118316934.506 7                  22514946.570
 128893899.531 5                  24527689.891
 121092488.20446  94357802.45444  23043104.6024                   23043111.9104
 109059120.54948  84981176.10146  20753224.5864                   20753228.7384
 128070727.509 5                  24371033.555
 111904143.84447  87198095.79845  21294638.6804                   21294645.2114
 11  7 25  2 54 30.0000000  0  8G12G05G25G29G04G02G17G10
 109097668.296 8                  20760574.586
 109066696.509 8                  20754681.250
 118247225.645 8                  22501681.859
 128813156.689 6                  24512322.625
 121175621.79147  94422581.86844  23058924.5084                   23058931.9774
 109081049.18148  84998263.36146  20757397.7734                   20757401.5744
 128143409.309 6                  24384866.602
 111955730.59547  87238293.29145  21304455.4224                   21304462.3834
 11  7 25  2 55  0.0000000  0  8G12G05G25G29G04G02G17G10
 109091962.788 8                  20759488.758
 109014166.625 8                  20744685.438
 118177948.249 7                  22488498.430
 128732351.035 5                  24496945.688
 121258765.14947  94487368.89844  23074745.7274                   23074753.8164
 109103173.90448  85015503.41546  20761607.6954                   20761612.0744
 128216269.012 6                  24398731.969
 112007867.45147  87278919.43145  21314376.4614                   21314383.6914
 11  7 25  2 55 30.0000000  0  8G12G05G25G29G04G02G17G10
 109086840.405 7                  20758514.117
 108962156.476 8                  20734787.969
 118109104.304 7                  22475397.813
 128651483.164 6                  24481557.117
 121341916.73447  94552162.27344  23090569.1724                   23090577.0314
 109125493.24248  85032895.11946  20765854.8834                   20765859.7854
 128289305.991 5                  24412630.016
 112060551.97447  87319972.33045  21324402.5394                   21324409.1414
 11  7 25  2 56  0.0000000  0  8G12G05G25G29G04G02G17G10
 109082300.830 8                  20757650.438
 108910667.408 8                  20724990.047
 118040695.695 7                  22462380.508
 128570553.072 6                  24466157.156
 121425075.05247  94616960.94444  23106393.3134                   23106401.5554
 109148005.43148  85050437.09646  20770138.8984                   20770142.9884
 128362519.812 5                  24426561.492
 112113781.50047  87361449.88745  21334531.3054                   21334538.2304
 11  7 25  2 56 30.0000000  0  9G12G05G25G29G04G09G02G17G10
 109078344.763 8                  20756897.336
 108859701.148 8                  20715291.344
 117972724.778 8                  22449445.727
 128489561.066 6                  24450744.672
 121508238.99647  94681764.00744  23122218.7734                   23122225.8404
 133192598.45315                  25345694.445
 109170709.34648  85068128.48346  20774459.0474                   20774463.5274
 128435910.237 5                  24440527.273
 112167554.51747  87403350.93845  21344764.4614                   21344771.3954
 11  7 25  2 57  0.0000000  0  9G12G05G25G29G04G09G02G17G10
 109074972.173 8                  20756255.250
 108809259.157 8                  20705692.586
 117905193.606 7                  22436594.805
 128408507.796 6                  24435321.391
 121591407.35547  94746570.50044  23138045.5314                   23138052.9384
                                  25361101.766
 109193603.90748  85085968.41246  20778816.0784                   20778820.4804
 128509477.105 6                  24454526.203
 112221868.57947  87445673.59345  21355099.4614                   21355106.4304
 11  7 25  2 57 30.0000000  0  9G12G05G25G29G04G09G02G17G10
 109072184.622 8                  20755724.883
 108759343.977 8                  20696193.844
 117838105.730 8                  22423828.555
 128327395.053 6                  24419885.500
 121674580.21747  94811380.49144  23153872.7664                   23153879.8674
 133354333.88815                  25376470.984
 109216689.33948  85103957.09546  20783208.3754                   20783213.0824
 128583221.414 6                  24468559.797
 112276722.65547  87488417.03845  21365538.2424                   21365544.9964
 11  7 25  2 58  0.0000000  0  8G12G05G25G29G04G02G17G10
 109069981.590 8                  20755305.922
 108709956.336 8                  20686795.500
 117771462.413 7                  22411146.680
 128246222.472 6                  24404438.844
 121757755.52647  94876192.44844  23169700.9924                   23169707.0084
 109239963.57048  85122092.88446  20787637.8204                   20787642.7464
 128657141.776 6                  24482625.664
 112332113.48447  87531578.73045  21376078.7734                   21376085.0004
 11  7 25  2 58 30.0000000  0  8G12G05G25G29G04G02G17G10
 109068364.220 7                  20754997.805
 108661098.859 8                  20677498.445
 117705267.193 8                  22398549.906
 128164991.870 6                  24388981.148
 121840933.48947  94941006.46344  23185528.1024                   23185536.2664
 109263426.74148  85140375.90646  20792103.0164                   20792107.4614
 128731239.590 6                  24496727.039
 112388040.39347  87575158.16445  21386721.2974                   21386728.0004
 11  7 25  2 59  0.0000000  0  8G12G05G25G29G04G02G17G10
 109067332.183 8                  20754801.703
 108612772.041 8                  20668301.820
 117639521.087 7                  22386039.109
 128083702.659 6                  24373512.508
 121924111.94947  95005820.78344  23201356.4384                   23201364.9184
 109287076.60848  85158804.39646  20796603.1644                   20796607.2854
 128805513.579 6                  24510860.789
 112444499.86847  87619152.56945  21397465.6484                   21397471.7504
 11  7 25  2 59 30.0000000  0  8G12G05G25G29G04G02G17G10
 109066885.138 8                  20754716.773
 108564977.608 8                  20659207.172
 117574226.671 7                  22373614.133
 128002356.028 6                  24358031.922
 122007290.14147  95070634.95744  23217184.7664                   23217193.4694
 109310912.71348  85177378.00046  20801138.8674                   20801143.2624
 128879963.701 5                  24525027.391
 112501490.26647  87663560.67245  21408309.9844                   21408317.1524
 11  7 25  3  0  0.0000000  0  8G12G05G25G29G04G02G17G10
 109067023.513 8                  20754743.039
 108517717.112 8                  20650213.898
 117509386.227 7                  22361275.375
 127920952.535 6                  24342541.656
 122090467.08346  95135448.14244  23233013.2734                   23233020.7704
 109334933.70148  85196095.67946  20805709.5784                   20805714.1174
 128954590.014 5                  24539228.109
 112559009.13847  87708380.58045  21419255.3834                   21419262.0984
 11  7 25  3  0 30.0000000  0  9G12G05G25G29G04G09G02G17G10
 109067745.917 8                  20754880.242
 108470990.295 8                  20641321.359
 117445000.517 8                  22349023.016
 127839491.122 6                  24327041.055
 122173640.50147  95200258.58844  23248840.9144                   23248848.1954
 133835685.74214                  25468086.305
 109359137.36348  85214955.69646  20810315.7034                   20810320.0554
 129029390.780 5                  24553463.922
 112617052.55347  87753609.23345  21430300.4614                   21430307.3054
 11  7 25  3  1  0.0000000  0  9G12G05G25G29G04G09G02G17G10
 109069054.063 7                  20755129.531
 108424799.845 8                  20632532.063
 117381073.009 7                  22336857.664
 127757974.176 6                  24311528.680
 122256810.51046  95265066.34644  23264667.1094                   23264675.1094
 133915322.93315                  25483228.359
 109383523.80848  85233958.14346  20814956.2424                   20814960.7154
 129104367.201 5                  24567730.531
 112675620.16647  87799246.32045  21441445.7114                   21441452.5944
 11  7 25  3  1 30.0000000  0  8G12G05G25G29G04G02G17G10
 109070948.943 8                  20755489.945
 108379148.200 8                  20623844.305
 117317606.818 7                  22324780.414
 127676403.387 6                  24296006.719
 122339977.08947  95329871.45644  23280494.3134                   23280501.0204
 109408093.10148  85253103.06546  20819631.6484                   20819636.2194
 129179519.898 6                  24582031.391
 112734710.52347  87845290.75045  21452690.0634                   21452696.4614
 11  7 25  3  2  0.0000000  0  8G12G05G25G29G04G02G17G10
 109073430.567 8                  20755962.719
 108334036.555 8                  20615260.367
 117254603.942 7                  22312791.078
 127594778.998 7                  24280474.055
 122423139.22647  95394673.12144  23296319.3204                   23296326.4144
 109432843.94448  85272389.46446  20824341.5704                   20824345.4024
 129254848.595 6                  24596366.617
 112794320.94647  87891740.44245  21464033.8284                   21464040.6214
 11  7 25  3  2 30.0000000  0  8G12G05G25G29G04G02G17G10
 109076497.742 8                  20756545.945
 108289465.497 8                  20606778.570
 117192065.810 7                  22300890.422
 127513101.074 6                  24264929.422
 122506294.89847  95459469.76344  23312142.3594                   23312150.0704
 109457774.63248  85291815.97946  20829085.8444                   20829089.8954
 129330352.120 6                  24610734.531
 112854448.49547  87938593.08545  21475475.5474                   21475482.4654
 11  7 25  3  3  0.0000000  0  8G12G05G25G29G04G02G17G10
 109080150.827 8                  20757240.992
 108245436.733 8                  20598400.633
 117129994.738 7                  22289079.547
 127431370.228 6                  24249377.188
 122589443.49347  95524260.87044  23327965.8444                   23327973.1374
 109482884.22748  85311381.90446  20833863.8754                   20833868.1524
 129406030.876 6                  24625135.789
 112915091.24747  87985847.17545  21487015.7504                   21487022.1094
 11  7 25  3  3 30.0000000  0  8G12G05G25G29G04G02G17G10
 109084389.782 8                  20758047.898
 108201950.978 8                  20590125.023
 117068392.797 7                  22277356.555
 127349587.239 6                  24233814.836
 122672584.03047  95589045.69244  23343786.5164                   23343794.6334
 109508171.69748  85331086.43146  20838675.8364                   20838680.2304
 129481884.175 5                  24639569.813
 112976246.68747  88033500.75645  21498653.3834                   21498660.0234
 11  7 25  3  4  0.0000000  0  8G12G05G25G29G04G02G17G10
 109089214.608 8                  20758965.797
 108159009.840 8                  20581954.141
 117007262.131 8                  22265723.609
 127267753.150 6                  24218241.828
 122755715.44446  95653823.43143  23359605.7584                   23359613.4304
 109533636.16648  85350928.88346  20843521.7584                   20843525.8954
 129557911.870 6                  24654037.336
 113037912.29647  88081551.90845  21510387.5554                   21510394.8364
 11  7 25  3  4 30.0000000  0  8G12G05G25G29G04G02G17G10
 109094625.035 8                  20759995.211
 108116614.517 8                  20573885.984
 116946604.598 8                  22254180.656
 127185868.362 6                  24202659.602
 122838836.86046  95718593.31243  23375423.2664                   23375431.4694
 109559276.20748  85370908.13746  20848400.6094                   20848404.8754
 129634113.40616                  24668537.875
 113100085.73247  88129998.73845  21522219.0314                   21522226.2664
 11  7 25  3  5  0.0000000  0  8G12G05G25G29G04G02G17G10
 109100621.576 8                  20761136.258
 108074766.536 8                  20565922.438
 116886422.612 8                  22242728.461
 127103933.459 6                  24187068.305
 122921947.49646  95783354.84643  23391238.3914                   23391246.4734
 109585091.53048  85391023.98346  20853313.4774                   20853317.8834
 129710489.356 6                  24683072.430
 113162764.66747  88178839.48745  21534146.2664                   21534152.5314
 11  7 25  3  5 30.0000000  0  8G12G05G25G29G04G02G17G10
 109107203.597 8                  20762389.164
 108033466.753 8                  20558063.867
 116826718.300 8                  22231367.164
 127021949.510 6                  24171466.750
 123005046.42646  95848107.24744  23407052.1174                   23407059.7194
 109611081.11348  85411275.61546  20858258.6174                   20858263.3984
 129787039.104 5                  24697639.242
 113225946.76447  88228072.28745  21546169.4384                   21546176.2504
 11  7 25  3  6  0.0000000  0  8G12G05G25G29G04G02G17G10
 109114371.346 8                  20763752.977
 107992716.749 8                  20550309.313
 116767493.911 8                  22220097.164
 126939917.662 7                  24155856.695
 123088133.14546  95912850.16544  23422863.3754                   23422870.0314
 109637244.22148  85431662.46346  20863237.3754                   20863241.8984
 129863762.282 5                  24712235.914
 113289629.99147  88277695.58945  21558288.0164                   21558294.9104
 11  7 25  3  6 30.0000000  0  8G12G05G25G29G04G02G17G10
 109122124.337 8                  20765228.109
 107952517.337 8                  20542659.852
 116708751.108 8                  22208918.875
 126857838.248 7                  24140237.273
 123171206.32846  95977582.52543  23438671.6884                   23438678.6804
 109663579.10848  85452183.15946  20868248.8444                   20868253.2704
 129940658.91515                  24726870.422
 113353811.35047  88327707.05045  21570501.1884                   21570508.0514
 11  7 25  3  7  0.0000000  0  8G12G05G25G29G04G02G17G10
 109130461.980 8                  20766814.539
 107912869.525 8                  20535114.727
 116650491.662 8                  22197832.180
 126775711.740 6                  24124609.039
 123254264.83146  96042303.47244  23454476.6254                   23454484.1644
 109690084.70048  85472836.87546  20873292.8594                   20873296.4064
 130017728.106 5                  24741537.953
 113418488.25747  88378104.65545  21582809.0314                   21582815.2274
 11  7 25  3  7 30.0000000  0  8G12G05G25G29G04G02G17G10
 109139384.085 8                  20768512.453
 107873774.234 8                  20527675.102
 116592717.664 8                  22186838.430
 126693539.220 6                  24108971.969
 123337307.86346  96107012.33643  23470279.3984                   23470286.7194
 109716760.32948  85493623.08846  20878369.2344                   20878373.2664
 130094969.559 5                  24756237.320
 113483658.09447  88428886.36345  21595210.0944                   21595216.8444
 11  7 25  3  8  0.0000000  0  8G12G05G25G29G04G02G17G10
 109148891.240 8                  20770321.500
 107835233.121 8                  20520340.922
 116535431.734 8                  22175936.984
 126611321.857 6                  24093327.070
 123420335.05547  96171708.86244  23486078.2814                   23486086.1604
 109743605.60448  85514541.49546  20883477.3674                   20883481.9614
 130172383.71516                  24770968.625
 113549319.28747  88480050.92045  21607705.3674                   21607711.3284
 11  7 25  3  8 30.0000000  0  8G12G05G25G29G04G02G17G10
 109158982.148 8                  20772241.820
 107797246.784 8                  20513112.320
 116478635.103 7                  22165129.141
 126529059.571 6                  24077672.352
 123503344.91947  96236391.85944  23501875.0234                   23501883.0084
 109770618.73848  85535590.71246  20888617.7894                   20888622.0394
 130249969.52915                  24785731.555
 113615468.49647  88531595.77945  21620292.9064                   21620299.1374
 11  7 25  3  9  0.0000000  0  8G12G05G25G29G04G02G17G10
 109169659.986 8                  20774273.750
 107759819.291 8                  20505989.789
 116422333.266 8                  22154415.453
 126446757.187 6                  24062010.492
 123586340.13147  96301063.42943  23517667.9534                   23517676.4884
 109797802.29348  85556772.70746  20893790.5864                   20893795.0124
                                  24800529.008
 113682106.90747  88583521.85345  21632973.7974                   21632980.4414
 11  7 25  3  9 30.0000000  0  8G12G05G25G29G04G02G17G10
 109180919.326 8                  20776416.469
 107722946.647 8                  20498973.742
 116366522.426 8                  22143794.617
 126364409.372 7                  24046340.398
 123669314.03847  96365718.40043  23533458.8594                   23533465.9384
 109825149.72248  85578082.41346  20898994.3674                   20898999.2894
                                  24815359.969
 113749226.41547  88635822.78045  21645746.3834                   21645753.4064
 11  7 25  3 10  0.0000000  0  8G12G05G25G29G04G02G17G10
 109192761.234 8                  20778670.102
 107686631.658 8                  20492062.648
 116311206.813 8                  22133269.023
 126282019.381 7                  24030662.305
 123752268.31947  96430358.10343  23549243.6094                   23549251.0784
 109852662.13748  85599520.65946  20904230.3364                   20904234.5164
 130483746.87315                  24830220.984
 113816826.56547  88688498.23245  21658609.7814                   21658616.7814
 11  7 25  3 10 30.0000000  0  8G12G05G25G29G04G02G17G10
 109205185.666 8                  20781034.469
 107650875.517 8                  20485258.492
 116256388.392 8                  22122836.992
 126199588.139 6                  24014975.648
 123835202.03746  96494981.82043  23565025.9694                   23565032.3754
 109880338.62948  85621086.78046  20909496.7734                   20909501.1884
 130562017.380 6                  24845113.656
 113884904.74247  88741546.18045  21671564.7194                   21671571.9844
 11  7 25  3 11  0.0000000  0  8G12G05G25G29G04G02G17G10
 109218192.637 8                  20783509.570
 107615679.296 8                  20478561.281
 116202069.476 8                  22112500.172
 126117116.798 6                  23999281.523
 123918114.81946  96559589.11643  23580803.1564                   23580810.5314
 109908178.87048  85642780.49246  20914794.5474                   20914799.0314
 130640458.585 6                  24860042.773
 113953459.03747  88794965.09745  21684610.1024                   21684617.4224
 11  7 25  3 11 30.0000000  0  8G12G05G25G29G04G02G17G10
 109231782.356 8                  20786095.531
 107581043.916 8                  20471970.141
 116148252.204 8                  22102258.844
 126034606.344 6                  23983581.039
 124001006.01647  96624179.67444  23596577.7194                   23596584.2234
 109936182.31548  85664601.37146  20920123.3524                   20920127.7344
 130719070.129 7                  24875002.383
 114022487.06247  88848753.17645  21697745.6174                   21697752.0314
 11  7 25  3 12  0.0000000  0  8G12G05G25G29G04G02G17G10
 109245953.647 8                  20788792.328
 107546970.822 8                  20465486.305
 116094938.157 8                  22092113.758
 125952057.644 6                  23967871.391
 124083874.59746  96688752.63443  23612346.0704                   23612353.1954
 109964347.53347  85686548.29746  20925483.2114                   20925487.2664
 130797851.323 6                  24889993.172
 114091986.05148  88902908.24145  21710971.6094                   21710977.9844
 11  7 25  3 12 30.0000000  0  8G12G05G25G29G04G02G17G10
 109260705.812 8                  20791599.422
 107513460.637 8                  20459109.984
 116042129.172 8                  22082064.516
 125869471.608 6                  23952156.383
 124166719.92846  96753307.42143  23628110.7194                   23628119.3134
 109992673.81148  85708620.73946  20930873.4694                   20930877.6604
 130876802.204 6                  24905016.305
 114161953.55848  88957428.40845  21724285.4924                   21724292.1804
 11  7 25  3 13  0.0000000  0  8G12G05G25G29G04G02G17G10
 109276038.748 8                  20794517.406
 107480513.976 8                  20452839.898
 115989827.117 8                  22072111.813
 125786849.088 6                  23936433.273
 124249541.42346  96817843.65743  23643871.4454                   23643879.7974
 110021160.14848  85730817.89446  20936293.9224                   20936298.6994
 130955922.090 6                  24920073.328
 114232386.86447  89012311.49845  21737688.7114                   21737694.8094
 11  7 25  3 13 30.0000000  0  8G12G05G25G29G04G02G17G10
 109291951.866 8                  20797544.891
 107448131.807 8                  20446677.750
 115938033.895 8                  22062255.641
 125704191.013 6                  23920703.563
 124332338.06547  96882360.50944  23659627.6334                   23659634.7854
 110049805.64548  85753139.06846  20941745.1564                   20941749.7934
 131035210.678 6                  24935160.938
 114303283.23147  89067555.46345  21751179.5234                   21751185.9344
 11  7 25  3 14  0.0000000  0  8G12G05G25G29G04G02G17G10
 109308444.758 8                  20800683.547
 107416314.720 8                  20440623.289
 115886751.220 8                  22052497.125
 125621498.412 6                  23904967.797
 124415109.28347  96946857.57443  23675377.9774                   23675385.6954
 110078609.58548  85775583.71446  20947226.3134                   20947230.9694
 131114667.711 5                  24950280.430
 114374640.22847  89123158.32845  21764758.3054                   21764764.9384
 11  7 25  3 14 30.0000000  0  8G12G05G25G29G04G02G17G10
 109325516.585 8                  20803932.219
 107385063.783 8                  20434676.031
 115835981.052 8                  22042835.773
 125538771.942 6                  23889225.469
 124497854.55146  97011334.39643  23691123.4064                   23691131.1884
 110107571.06148  85798151.11146  20952737.5784                   20952741.7034
 131194292.796 6                  24965433.102
 114446455.39447  89179118.21345  21778424.8754                   21778430.2504
 11  7 25  3 15  0.0000000  0  8G12G05G25G29G04G02G17G10
 109343166.729 8                  20807290.820
 107354379.981 8                  20428837.383
 115785724.991 8                  22033272.320
 125456012.610 7                  23873476.602
 124580572.74047  97075790.14644  23706865.4064                   23706872.3554
 110136689.04048  85820840.45246  20958278.8134                   20958283.1454
 131274085.402 5                  24980618.781
 114518725.63447  89235432.69445  21792176.7734                   21792183.8594
 11  7 25  3 15 30.0000000  0  8G12G05G25G29G04G02G17G10
 109361395.127 8                  20810759.555
 107324263.712 8                  20423106.758
 115735984.794 8                  22023806.758
 125373221.696 7                  23857722.586
 124663263.14647  97140224.22743  23722600.4694                   23722607.7894
 110165962.93148  85843651.28946  20963849.1884                   20963853.8794
 131354045.048 6                  24995834.289
 114591448.67147  89292099.99645  21806015.7114                   21806022.3164
 11  7 25  3 16  0.0000000  0  8G12G05G25G29G04G02G17G10
 109380200.033 8                  20814338.469
 107294715.518 8                  20417483.633
 115686762.010 8                  22014440.563
 125290399.903 7                  23841961.727
 124745925.07646  97204636.04043  23738331.0084                   23738338.6684
 110195391.32048  85866582.50646  20969449.1804                   20969453.8014
                                  25011080.781
 114664621.57847  89349117.87045  21819940.2584                   21819946.9494
 11  7 25  3 16 30.0000000  0  8G12G05G25G29G04G02G17G10
 109399580.967 8                  20818026.289
 107265735.708 8                  20411968.906
 115638058.307 8                  22005172.266
 125207548.238 7                  23826195.188
 124828557.78046  97269025.15944  23754055.7344                   23754063.5904
 110224973.40948  85889633.49546  20975078.5704                   20975082.7424
 131514463.83716                  25026359.852
 114738241.95347  89406484.37745  21833949.2814                   21833956.3404
 11  7 25  3 17  0.0000000  0  8G12G05G25G29G04G02G17G10
 109419537.663 8                  20821824.117
 107237325.684 8                  20406562.781
 115589875.783 8                  21996003.555
 125124667.609 7                  23810424.352
 124911160.99946  97333391.31643  23769773.5394                   23769781.8094
 110254708.81948  85912803.95846  20980737.1954                   20980741.1564
 131594922.41915                  25041669.672
 114812307.38947  89464197.69745  21848044.2584                   21848050.2774
 11  7 25  3 17 30.0000000  0  8G12G05G25G29G04G02G17G10
 109440069.878 8                  20825731.156
 107209485.973 8                  20401264.625
 115542216.083 8                  21986934.016
 125041759.161 7                  23794646.789
 124993733.88446  97397733.83843  23785486.0864                   23785494.2504
 110284596.79348  85936093.30146  20986424.3444                   20986428.5204
 131675546.48916                  25057013.742
 114886814.76447  89522255.38945  21862222.3524                   21862228.8714
 11  7 25  3 18  0.0000000  0  8G12G05G25G29G04G02G17G10
 109461175.826 8                  20829747.633
 107182216.725 8                  20396075.992
 115495080.127 8                  21977964.289
 124958823.785 7                  23778865.234
 125076275.10246  97462051.66043  23801192.6094                   23801201.1764
 110314635.57748  85959500.15046  20992140.8284                   20992144.6094
 131756335.012 6                  25072386.539
 114961760.97347  89580655.02045  21876483.8914                   21876490.5314
 11  7 25  3 18 30.0000000  0  8G12G05G25G29G04G02G17G10
 109482855.092 8                  20833873.109
 107155518.732 8                  20390995.063
 115448470.231 8                  21969094.461
 124875862.481 7                  23763077.703
 125158785.02046  97526345.08743  23816895.6564                   23816901.6054
 110344825.13448  85983024.47446  20997885.5084                   20997889.5084
 131837288.28915                  25087790.938
 115037143.68247  89639394.82445  21890828.8364                   21890835.2734
 11  7 25  3 19  0.0000000  0  8G12G05G25G29G04G02G17G10
 109505106.830 7                  20838107.359
 107129393.008 8                  20386023.523
 115402388.062 8                  21960325.523
 124792876.379 6                  23747286.398
 125241262.35046  97590613.14243  23832590.0784                   23832597.5044
 110375164.48348  86006665.52446  21003658.9774                   21003662.9344
 131918405.77615                  25103227.672
 115112960.41147  89698472.79945  21905255.6884                   21905262.6804
 11  7 25  3 19 30.0000000  0  8G12G05G25G29G04G02G17G10
 109527930.158 8                  20842450.148
 107103839.720 8                  20381161.148
 115356835.045 8                  21951657.195
 124709866.307 6                  23731489.594
 125323706.65447  97654855.44743  23848278.8054                   23848286.9654
 110405652.75148  86030422.62546  21009460.6094                   21009464.9144
 131999686.779 5                  25118694.461
 115189208.49447  89757886.87945  21919765.2814                   21919771.6604
 11  7 25  3 20  0.0000000  0  7G12G05G25G29G04G02G10
 109551325.156 8                  20846902.438
 107078859.821 8                  20376407.305
 115311813.391 8                  21943089.852
 124626834.123 7                  23715688.836
 125406117.98346  97719072.05643  23863960.2194                   23863969.3484
 110436289.80348  86054295.64646  21015290.9224                   21015295.1954
 115265885.86147  89817635.47145  21934356.7734                   21934363.3054
 11  7 25  3 20 30.0000000  0  7G12G05G25G29G04G02G10
 109575290.045 8                  20851462.297
 107054453.412 8                  20371762.797
 115267324.203 8                  21934623.961
 124543780.503 7                  23699884.305
 125488495.25946  97783262.15243  23879636.9614                   23879644.3714
 110467074.23148  86078283.51946  21021148.5234                   21021152.6804
 115342988.96447  89877715.79645  21949029.1804                   21949035.3834
 11  7 25  3 21  0.0000000  0  8G12G05G25G29G04G02G17G10
 109599822.915 8                  20856131.508
 107030620.210 8                  20367227.563
 115223367.913 8                  21926258.953
 124460705.234 7                  23684075.430
 125570836.57346  97847424.21643  23895305.7424                   23895312.7384
 110498004.48948  86102385.01246  21027034.5234                   21027038.9184
 132244251.12215                  25165284.805
 115420514.17147  89938125.03445  21963781.7344                   21963788.7274
 11  7 25  3 21 30.0000000  0  8G12G05G25G29G04G02G17G10
 109624924.079 8                  20860907.555
 107007361.223 8                  20362801.805
 115179947.049 8                  21917996.602
 124377610.391 7                  23668262.734
 125653142.53446  97911558.77943  23910968.0864                   23910975.1454
 110529080.64448  86126600.19046  21032948.1024                   21032952.1994
 132326181.22715                  25180873.883
 115498459.93647  89998861.98245  21978614.0164                   21978621.7234
 11  7 25  3 22  0.0000000  0  8G12G05G25G29G04G02G17G10
 109650592.342 8                  20865792.250
 106984676.951 8                  20358485.234
 115137063.151 8                  21909835.320
 124294497.062 7                  23652446.805
 125735412.53646  97975665.31343  23926623.5864                   23926631.2194
 110560301.63048  86150928.23246  21038889.3984                   21038893.5704
 132408272.88115                  25196497.898
 115576823.35547  90059924.38445  21993525.8054                   21993533.4414
 11  7 25  3 22 30.0000000  0  8G12G05G25G29G04G02G17G10
 109676826.356 8                  20870783.992
 106962567.836 8                  20354277.477
 115094717.523 8                  21901777.969
 124211366.239 6                  23636627.414
 125817645.90546  98039743.26643  23942271.6334                   23942279.8134
 110591666.76348  86175368.59346  21044858.3054                   21044862.2194
 132490525.208 5                  25212150.398
 115655601.51947  90121309.95945  22008517.3914                   22008524.1844
 11  7 25  3 23  0.0000000  0  7G12G05G25G29G04G02G10
 109703625.557 8                  20875883.922
 106941034.418 8                  20350179.969
 115052911.829 8                  21893822.164
 124128219.523 7                  23620805.227
 125899842.07246  98103792.23343  23957914.1644                   23957921.4104
 110623175.34148  86199920.74346  21050853.7424                   21050858.0314
 115734791.97447  90183016.81045  22023587.1024                   22023593.4924
 11  7 25  3 23 30.0000000  0  8G12G05G25G29G04G26G02G10
 109730990.547 8                  20881091.602
 106920078.205 8                  20346191.969
 115011648.977 8                  21885970.047
 124045059.338 7                  23604980.500
 125982002.04446  98167812.98343  23973548.3984                   23973555.9694
 132613909.83315                  25235607.508
 110654828.25248  86224585.35446  21056877.4224                   21056881.6174
 115814392.97247  90245043.54645  22038734.6414                   22038740.5514
 11  7 25  3 24  0.0000000  0  9G12G05G25G29G04G26G02G17G10
 109758917.806 8                  20886405.773
 106899697.254 8                  20342313.797
 114970927.814 7                  21878220.867
 123961884.093 7                  23589153.109
 126064122.90246  98231803.27743  23989175.2194                   23989182.6174
 132522318.68415                  25218176.813
 110686622.08048  86249359.77746  21062927.4304                   21062931.8834
 132738227.28515                  25259288.781
 115894399.80647  90307386.52145  22053959.6804                   22053965.5984
 11  7 25  3 24 30.0000000  0  8G12G05G25G29G04G26G02G10
 109787407.211 8                  20891827.414
 106879893.181 8                  20338545.164
 114930751.281 8                  21870575.391
 123878696.378 7                  23573322.430
 126146205.36146  98295763.64843  24004793.6804                   24004802.7854
 132430543.51314                  25200713.031
 110718557.75948  86274244.72246  21069004.6804                   21069008.9024
 115974810.90847  90370044.53445  22069260.3754                   22069267.2664
 11  7 25  3 25  0.0000000  0  7G12G05G25G29G04G02G10
 109816456.995 8                  20897355.383
 106860665.492 8                  20334886.328
 114891119.813 8                  21863033.922
 123795496.699 7                  23557490.227
 126228248.14146  98359693.07343  24020408.1804                   24020414.2464
 110750633.30048  86299238.65746  21075108.1564                   21075112.4494
 116055622.63747  90433014.73145  22084639.2034                   22084645.2194
 11  7 25  3 25 30.0000000  0  7G12G05G25G29G04G02G10
 109846066.429 8                  20902989.781
 106842014.415 8                  20331337.117
 114852035.034 8                  21855596.078
 123712286.125 7                  23541655.563
 126310250.87346  98423591.32743  24036011.5084                   24036018.1054
 110782848.35748  86324341.31046  21081238.6174                   21081243.1134
 116136832.35847  90496295.04245  22100092.5004                   22100099.2194
 11  7 25  3 26  0.0000000  0  7G12G05G25G29G04G02G10
 109876233.983 8                  20908730.469
 106823940.127 8                  20327897.742
 114813498.053 8                  21848263.305
 123629065.928 7                  23525819.352
 126392212.81447  98487457.80643  24051609.3524                   24051615.1334
 110815201.98848  86349551.94446  21087394.8284                   21087399.5164
 116218437.11547  90559883.17545  22115620.9774                   22115627.8984
 11  7 25  3 26 30.0000000  0  7G12G05G25G29G04G02G10
 109906958.803 8                  20914577.102
 106806443.539 8                  20324568.133
 114775510.796 8                  21841034.422
 123545837.945 7                  23509981.305
 126474134.05746  98551292.58643  24067198.0234                   24067205.0514
 110847694.08748  86374870.46846  21093578.4534                   21093582.4344
 116300434.79247  90623777.47745  22131224.3364                   22131231.2584
 11  7 25  3 27  0.0000000  0  8G12G05G25G29G04G26G02G10
 109938240.248 8                  20920529.688
 106789524.759 8                  20321348.461
 114738074.616 8                  21833910.930
 123462603.285 7                  23494142.195
 126556014.09446  98615095.22243  24082778.5704                   24082786.6684
 131968945.39215                  25112881.016
 110880324.27448  86400296.59546  21099788.0084                   21099791.9654
 116382822.51947  90687975.70745  22146902.7424                   22146909.1564
 11  7 25  3 27 30.0000000  0  8G12G05G25G29G04G26G02G10
 109970076.216 8                  20926587.711
 106773183.198 8                  20318238.805
 114701190.121 8                  21826891.539
 123379362.434 7                  23478301.000
 126637852.04246  98678865.06143  24098351.5084                   24098360.2304
 131876117.65814                  25095214.813
 110913090.76848  86425828.93946  21106022.7814                   21106027.1134
 116465597.24547  90752475.49145  22162653.7734                   22162661.1994
 11  7 25  3 28  0.0000000  0  8G12G05G25G29G04G26G02G10
 110002465.578 8                  20932751.617
 106757418.948 8                  20315239.188
 114664858.601 8                  21819977.523
 123296116.795 7                  23462460.805
 126719647.39346  98742601.65843  24113917.3984                   24113924.4344
 131783123.869 5                  25077520.641
 110945993.20948  86451467.20546  21112283.9844                   21112287.9454
 116548755.72647  90817274.29745  22178478.9774                   22178485.9574
 11  7 25  3 28 30.0000000  0  8G12G05G25G29G04G26G02G10
 110035407.352 8                  20939019.930
 106742232.673 8                  20312349.188
 114629081.630 8                  21813170.039
 123212867.676 7                  23446618.891
 126801399.72146  98806304.82143  24129474.4064                   24129481.4454
 131689966.85615                  25059793.008
 110979031.01448  86477210.95946  21118571.0164                   21118575.2894
 116632295.21747  90882370.01545  22194375.8204                   22194382.9804
 11  7 25  3 29  0.0000000  0  8G12G05G25G29G04G26G02G10
 110068900.037 8                  20945393.805
 106727623.828 8                  20309569.047
 114593859.935 8                  21806467.570
 123129616.148 6                  23430776.492
 126883108.45647  98869973.98343  24145023.0474                   24145030.4104
 131596648.823 5                  25042035.578
 111012202.96148  86503059.23746  21124883.4924                   21124887.3244
 116716212.88447  90947760.41845  22210344.9774                   22210351.4774
 11  7 25  3 29 30.0000000  0  8G12G05G25G29G04G26G02G10
 110102942.027 7                  20951871.484
 106713592.889 8                  20306899.133
 114559195.029 8                  21799870.563
 123046363.546 6                  23414933.367
 126964773.15846  98933608.84843  24160562.8674                   24160569.9064
 131503173.11215                  25024248.836
 111045508.92548  86529011.95146  21131220.8834                   21131225.3714
 116800506.09247  91013443.43844  22226385.2504                   22226392.2114
 11  7 25  3 30  0.0000000  0  8G12G05G25G29G04G26G02G10
 110137531.993 8                  20958453.523
 106700139.683 8                  20304338.711
 114525087.997 8                  21793380.047
 122963111.129 7                  23399090.750
 127046393.74746  98997209.26643  24176095.0084                   24176102.6024
                                  25006429.250
 111078947.81548  86555068.25946  21137584.1724                   21137588.6254
 116885172.05647  91079416.93744  22242496.4924                   22242502.7894
 11  7 25  3 30 30.0000000  0  8G12G05G25G29G04G26G02G10
 110172668.750 8                  20965140.195
 106687264.139 8                  20301888.938
 114491539.849 8                  21786996.828
 122879860.083 6                  23383249.359
 127127969.37746  99060774.71543  24191617.8834                   24191625.5594
 131315758.86415                  24988583.984
 111112519.20948  86581227.78146  21143972.9304                   21143977.3054
 116970207.58547  91145678.37444  22258678.4144                   22258684.7504
 11  7 25  3 31  0.0000000  0  8G12G05G25G29G04G26G02G10
 110208351.703 7                  20971930.516
 106674966.649 8                  20299548.930
 114458552.367 8                  21780719.125
 122796612.156 7                  23367407.664
 127209500.30546  99124305.32843  24207132.8134                   24207140.0984
 131221826.41615                  24970708.578
 111146223.14247  86607490.59146  21150386.3134                   21150390.6804
 117055610.56647  91212226.18244  22274929.8914                   22274936.5124
 11  7 25  3 31 30.0000000  0  8G12G05G25G29G04G26G02G10
 110244578.351 8                  20978823.766
 106663246.635 8                  20297318.602
 114426125.836 8                  21774548.539
 122713368.139 7                  23351566.516
 127290985.29646  99187800.12743  24222638.0944                   24222647.0664
 131127746.94645 102177603.73652  24952806.8914                   24952815.3634
 111180058.09748  86633855.49446  21156824.8834                   21156829.8444
 117141377.71547  91279057.72545  22291250.8284                   22291257.7974
 11  7 25  3 32  0.0000000  0  8G12G05G25G29G04G26G02G10
 110281347.425 8                  20985820.625
 106652104.007 8                  20295198.180
 114394261.621 8                  21768484.602
 122630129.173 7                  23335727.117
 127372424.18646  99251258.97943  24238135.9614                   24238143.6524
 131033523.47245 102104182.99742  24934876.1174                   24934884.9534
 111214023.47548  86660322.03546  21163288.3054                   21163292.8754
 117227505.95747  91346170.63545  22307641.0554                   22307647.1914
 11  7 25  3 32 30.0000000  0  8G12G05G25G29G04G26G02G10
 110318657.674 8                  20992920.602
 106641538.711 8                  20293187.289
 114362960.750 8                  21762528.664
 122546896.918 7                  23319888.156
 127453816.34946  99314681.49243  24253625.0394                   24253631.2304
 130939158.78445 102030652.10142  24916917.7974                   24916928.8754
 111248118.63148  86686889.69446  21169776.6564                   21169780.4844
 117313992.49347  91413562.74045  22324098.9774                   22324104.8094
 11  7 25  3 33  0.0000000  0  8G12G05G25G29G04G26G02G10
 110356507.470 8                  21000123.617
 106631550.782 8                  20291286.781
 114332224.027 8                  21756679.648
 122463672.441 7                  23304050.961
 127535161.71146  99378067.50142  24269103.2114                   24269110.7424
 130844655.77646 101957013.40042  24898936.4224                   24898945.0784
 111282342.82848  86713557.92046  21176289.0634                   21176293.1844
 117400834.49647  91481231.84344  22340623.9144                   22340631.0044
 11  7 25  3 33 30.0000000  0  8G12G05G25G29G04G26G02G10
 110394895.236 8                  21007428.281
 106622140.029 8                  20289495.977
 114302052.599 8                  21750938.211
 122380457.352 7                  23288215.898
 127616459.88646  99441416.67943  24284575.4064                   24284582.5124
 130750016.98646 101883269.04242  24880926.6564                   24880935.0904
 111316695.63248  86740326.34746  21182826.2424                   21182830.3954
 117488029.22747  91549175.78045  22357216.7814                   22357223.4064
 11  7 25  3 34  0.0000000  0  8G12G05G25G29G04G26G02G10
 110433819.924 8                  21014835.297
 106613306.298 8                  20287814.914
 114272447.587 8                  21745304.375
 122297253.079 7                  23272382.516
 127697710.24947  99504728.65843  24300036.9614                   24300043.9654
 130655245.50746 101809421.28642  24862892.4384                   24862899.9734
 111351176.75948  86767194.76346  21189387.9614                   21189392.2734
 117575573.92547  91617392.43345  22373875.7664                   22373883.0044
 11  7 25  3 34 30.0000000  0  8G12G05G25G29G04G26G02G10
 110473279.216 8                  21022344.141
 106605049.065 8                  20286244.055
 114243409.598 8                  21739778.844
 122214060.389 7                  23256551.094
 127778912.58146  99568003.14343  24315488.7664                   24315496.3404
 130560344.12746 101735472.24242  24844833.6334                   24844839.8284
 111385784.78248  86794162.06246  21195973.1174                   21195977.8674
 117663465.25747  91685879.17444  22390600.6954                   22390607.4654
 11  7 25  3 35  0.0000000  0  8G12G05G25G29G04G26G02G10
 110513271.729 8                  21029954.984
 106597368.080 8                  20284782.031
 114214939.684 8                  21734361.227
 122130881.050 7                  23240722.906
 127860066.30346  99631239.85743  24330931.3364                   24330939.0354
 130465315.69946 101661424.17243  24826749.6954                   24826757.1054
 111420519.59648  86821228.14546  21202583.1884                   21202586.7544
 117751700.71147  91754634.09844  22407391.5084                   22407397.9884
 11  7 25  3 35 30.0000000  0  8G12G05G25G29G04G26G02G10
 110553796.076 8                  21037666.531
 106590263.075 8                  20283429.594
 114187038.719 8                  21729051.727
 122047715.990 7                  23224896.930
 127941171.36346  99694438.62342  24346365.3754                   24346372.2814
 130370162.94745 101587279.24842  24808642.4224                   24808651.2734
 111455380.39848  86848392.41846  21209216.7734                   21209220.8984
 117840277.32147  91823654.81844  22424247.4224                   22424254.1994
 11  7 25  3 36  0.0000000  0  8G12G05G25G29G04G26G02G10
 110594850.744 8                  21045478.516
 106583734.369 8                  20282187.492
 114159707.911 8                  21723850.578
 121964567.283 7                  23209074.133
 128022227.33246  99757599.18543  24361789.3134                   24361796.7814
 130274889.38546 101513040.19842  24790512.2504                   24790520.7304
 111490367.01148  86875654.73146  21215874.8754                   21215879.0354
 117929192.57547  91892939.43444  22441167.7894                   22441173.8054
 11  7 25  3 36 30.0000000  0  8G12G05G25G29G04G26G02G10
 110636433.867 8                  21053391.852
 106577781.005 8                  20281054.500
 114132947.783 8                  21718758.625
 121881435.794 7                  23193254.414
 128103233.75546  99820721.01743  24377205.2344                   24377212.1374
 130179497.36846 101438708.77042  24772359.3674                   24772368.1644
 111525478.49948  86903014.34846  21222556.1884                   21222560.8444
 118018443.21347  91962485.36144  22458151.3444                   22458157.5204
 11  7 25  3 37  0.0000000  0  8G12G05G25G29G04G26G02G10
 110678544.011 8                  21061404.695
 106572403.284 8                  20280031.094
 114106759.443 8                  21713774.625
 121798323.245 7                  23177438.797
 128184190.75846  99883804.37243  24392610.5164                   24392618.1374
 130083990.06546 101364287.70942  24754185.4614                   24754194.2154
 111560714.65948  86930471.09546  21229261.1254                   21229265.6374
 118108026.60747  92032290.60244  22475198.2274                   22475204.5664
 11  7 25  3 37 30.0000000  0  8G12G05G25G29G04G26G02G10
 110721179.247 8                  21069518.008
 106567600.167 8                  20279117.344
 114081143.376 8                  21708900.398
 121715230.952 7                  23161627.148
 128265097.32646  99946848.41343  24408006.9614                   24408014.6884
 129988370.08446 101289778.55042  24735990.4304                   24735997.9104
 111596074.45548  86958024.17446  21235990.3674                   21235994.4844
 118197939.56147  92102352.63944  22492308.5394                   22492315.0944
 11  7 25  3 38  0.0000000  0  8G12G05G25G29G04G26G02G10
 110764337.882 8                  21077730.883
 106563371.537 8                  20278312.578
 114056100.369 8                  21704134.727
 121632160.105 7                  23145819.656
 128345953.33346 100009853.09143  24423392.5474                   24423401.3054
 129892640.60646 101215184.23942  24717772.9384                   24717780.9694
 111631557.24048  86985673.10546  21242742.2894                   21242746.7854
 118288179.24547  92172669.25845  22509480.1174                   22509487.0944
 11  7 25  3 38 30.0000000  0  8G12G05G25G29G04G26G02G10
 110808018.261 8                  21086042.820
 106559716.924 8                  20277617.602
 114031631.256 8                  21699478.469
 121549112.146 7                  23130015.883
 128426758.51347 100072818.20243  24438770.4064                   24438777.1844
 129796804.35746 101140506.77142  24699535.2114                   24699544.2304
 111667162.55048  87013417.50946  21249517.6024                   21249521.9104
 118378742.79147  92243238.23844  22526713.6414                   22526720.5434
 11  7 25  3 39  0.0000000  0  8G12G05G25G29G04G26G02G10
 110852218.582 8                  21094454.180
 106556635.547 8                  20277030.703
 114007736.591 8                  21694931.469
 121466088.503 7                  23114216.961
 128507512.58446 100135743.38842  24454136.7814                   24454144.2424
 129700864.39346 101065748.45543  24681279.1174                   24681287.5164
 111702889.80248  87041256.93246  21256316.3444                   21256320.4804
 118469626.91947  92314057.01644  22544008.2034                   22544015.0434
 11  7 25  3 39 30.0000000  0  8G12G05G25G29G04G26G02G10
 110896936.808 8                  21102964.047
 106554127.404 8                  20276553.250
 113984417.258 8                  21690493.938
 121383090.722 7                  23098422.688
 128588215.27046 100198628.53643  24469493.3204                   24469500.9884
 129604823.80247 100990911.68843  24663002.9844                   24663011.5044
 111738738.55148  87069191.03046  21263138.0864                   21263142.0944
 118560829.18847  92385123.69044  22561363.9144                   22561370.2704
 11  7 25  3 40  0.0000000  0  8G12G05G25G29G04G26G02G10
 110942171.617 8                  21111571.602
 106552191.858 8                  20276185.352
 113961673.853 8                  21686166.016
 121300120.230 7                  23082633.977
 128668866.25146 100261473.50142  24484840.4224                   24484848.3524
 129508685.43046 100915998.62043  24644708.1024                   24644716.0044
 111774708.13948  87097219.29446  21269983.0554                   21269986.9454
 118652346.67747  92456436.03044  22578779.2734                   22578785.6884
 11  7 25  3 40 30.0000000  0  8G12G05G25G29G04G26G02G10
 110987920.738 8                  21120277.625
 106550828.410 8                  20275925.805
 113939507.137 8                  21681948.008
 121217178.425 7                  23066850.211
 128749465.23747 100324277.93943  24500178.8444                   24500185.4614
 129412452.39346 100841011.88443  24626394.9144                   24626404.0124
 111810798.25848  87125341.47346  21276850.4844                   21276855.4494
 118744176.39247  92527991.63844  22596253.8204                   22596260.2384
 11  7 25  3 41  0.0000000  0  8G12G05G25G29G04G26G02G10
 111034182.669 8                  21129080.766
 106550036.828 8                  20275775.102
 113917917.799 8                  21677839.188
 121134267.000 7                  23051073.195
 128830012.14047 100387041.75543  24515506.1884                   24515512.6094
 129316127.74646 100765953.76642  24608064.9694                   24608073.8244
 111847008.54448  87153557.28446  21283741.3834                   21283745.6374
 118836315.68347  92599788.47444  22613787.3594                   22613793.4454
 11  7 25  3 41 30.0000000  0  8G12G05G25G29G04G26G02G10
 111080955.814 8                  21137981.516
 106549816.480 8                  20275733.016
 113896906.416 8                  21673841.328
 121051387.435 7                  23035301.438
 128910506.55646 100449764.69443  24530823.6644                   24530831.0044
 129219714.47446 100690826.55642  24589718.5474                   24589727.2424
 111883338.36048  87181866.24246  21290654.7584                   21290659.2854
 118928761.74847  92671824.35644  22631378.8834                   22631385.7894
 11  7 25  3 42  0.0000000  0  8G12G05G25G29G04G26G02G10
 111128237.845 8                  21146978.734
 106550165.906 8                  20275799.781
 113876473.054 8                  21669952.789
 120968540.885 7                  23019536.156
 128990947.87045 100512446.21743  24546131.4614                   24546138.9064
 129123215.23346 100615632.38542  24571355.3054                   24571363.2974
 111919786.86848  87210267.67146  21297590.5944                   21297594.6954
 119021511.22547  92744096.67944  22649029.1174                   22649035.3444
 11  7 25  3 42 30.0000000  0  8G12G05G25G29G04G26G02G10
 111176026.503 8                  21156072.172
 106551084.895 8                  20275974.289
 113856618.809 8                  21666174.617
 120885728.900 7                  23003777.523
 129071336.39145 100575086.54442  24561428.0554                   24561436.2974
 129026633.48646 100540373.98352  24552975.8444                   24552984.2814
 111956353.57448  87238761.21646  21304548.7504                   21304553.8444
 119114561.57447  92816603.46144  22666735.1484                   22666741.7074
 11  7 25  3 43  0.0000000  0  8G12G05G25G29G04G26G02G10
 111224320.489 8                  21165262.750
 106552573.599 8                  20276257.570
 113837344.113 8                  21662506.633
 120802953.278 7                  22988025.500
 129151671.44246 100637685.18642  24576716.8984                   24576723.1134
 128929972.19846 100465053.49642  24534582.2344                   24534589.8094
 111993037.99348  87267346.49146  21311529.4384                   21311534.0744
 119207909.67747  92889342.22944  22684498.8204                   22684505.8914
 11  7 25  3 43 30.0000000  0  8G12G05G25G29G04G26G02G10
 111273117.823 8                  21174548.484
 106554631.061 8                  20276649.461
 113818649.463 8                  21658949.344
 120720215.352 7                  22972281.125
 129231953.16046 100700242.43943  24591993.0474                   24592000.2304
 128833234.45846 100389673.52643  24516174.4224                   24516182.0784
 112029839.86248  87296023.26246  21318532.9144                   21318537.0514
 119301552.86246  92962310.90944  22702318.5314                   22702326.0394
 11  7 25  3 44  0.0000000  0  8G12G05G25G29G04G26G02G10
 111322416.588 8                  21183930.102
 106557256.741 8                  20277149.219
 113800535.360 8                  21655502.305
 120637516.805 7                  22956544.500
 129312181.16646 100762757.80243  24607260.3674                   24607267.2934
 128736423.42746 100314236.35243  24497751.2504                   24497759.4494
 112066758.77348  87324791.24246  21325558.5704                   21325562.5394
 119395488.30547  93035507.34044  22720194.2274                   22720200.9144
 11  7 25  3 44 30.0000000  0  8G12G05G25G29G04G26G02G10
 111372214.465 8                  21193406.547
 106560448.886 8                  20277756.273
 113783001.910 8                  21652165.820
 120554858.711 7                  22940814.914
 129392354.93747 100825230.96343  24622516.8984                   24622522.3484
 128639541.67646 100238744.11243  24479315.7974                   24479324.2894
 112103793.74848  87353649.67646  21332606.0004                   21332609.9064
 119489712.79447  93108928.99644  22738124.7424                   22738131.6724
 11  7 25  3 45  0.0000000  0  8G12G05G25G29G04G26G02G10
 111422509.476 8                  21202976.883
 106564207.232 8                  20278471.445
 113766049.624 8                  21648939.703
 120472242.938 7                  22925093.203
 129472474.28247 100887661.64343  24637762.8284                   24637769.1884
 128542592.37546 100163199.24243  24460866.2664                   24460875.7194
 112140944.29848  87382598.16046  21339675.6094                   21339679.5514
 119584223.31647  93182573.54644  22756109.7344                   22756115.3204
 11  7 25  3 45 30.0000000  0  8G12G05G25G29G04G26G02G10
 111473299.596 8                  21212642.164
 106568531.528 8                  20279294.633
 113749679.184 8                  21645824.617
 120389670.930 7                  22909380.742
 129552539.40147 100950050.09643  24652998.8284                   24653005.3714
 128445579.11346 100087604.49143  24442405.4454                   24442414.8634
 112178210.17048  87411636.51446  21346767.0164                   21346770.5944
 119679017.30147  93256438.98944  22774148.2034                   22774154.6134
 11  7 25  3 46  0.0000000  0  8G12G05G25G29G04G26G02G10
 111524583.313 8                  21222400.750
 106573420.633 8                  20280224.922
 113733890.746 8                  21642820.414
 120307144.439 7                  22893676.156
 129632549.75846 101012395.87843  24668224.1254                   24668231.9574
 128348504.68546 100011962.10543  24423932.6954                   24423941.7894
 112215591.10747  87440764.52046  21353879.9774                   21353884.2774
 119774091.87447  93330523.07344  22792240.8054                   22792246.9574
 11  7 25  3 46 30.0000000  0  8G12G05G25G29G04G26G02G10
 111576357.691 7                  21232253.609
 106578873.515 8                  20281262.508
 113718684.551 8                  21639926.188
 120224664.948 7                  22877981.445
 129712505.21646 101074698.82643  24683438.6254                   24683446.3284
 128251372.13146  99936274.45843  24405448.6024                   24405457.2504
 112253086.42248  87469981.63746  21361015.1094                   21361019.7974
 119869444.07147  93404823.48844  22810384.9844                   22810391.7734
 11  7 25  3 47  0.0000000  0  8G12G05G25G29G04G26G02G10
 111628621.015 8                  21242198.758
 106584889.706 8                  20282407.094
 113704061.113 8                  21637143.641
 120142234.081 7                  22862294.547
 129792405.64146 101136958.84843  24698643.2814                   24698651.2384
 128154184.76546  99860544.05543  24386954.2584                   24386962.2504
 112290695.89348  87499287.71646  21368172.6724                   21368176.6454
 119965071.01147  93479337.97744  22828582.5084                   22828588.7704
 11  7 25  3 47 30.0000000  0  8G12G05G25G29G04G26G02G10
 111681371.303 8                  21252236.461
 106591468.558 8                  20283659.094
 113690020.757 8                  21634472.016
 120059853.377 7                  22846618.047
 129872250.90046 101199175.90843  24713837.5864                   24713845.6174
 128056945.84946  99784773.50343  24368450.6884                   24368458.7304
 112328418.79847  87528682.19746  21375350.3284                   21375355.1684
 120060969.96446  93554064.40744  22846831.7974                   22846837.5354
 11  7 25  3 48  0.0000000  0  8G12G05G25G29G04G26G02G10
 111734606.789 8                  21262367.016
 106598608.874 8                  20285017.719
 113676563.579 8                  21631910.742
 119977524.244 7                  22830952.250
 129952040.56146 101261349.69343  24729021.0704                   24729029.3634
 127959658.40746  99708965.18243  24349938.4224                   24349946.1254
 112366254.86148  87558164.83046  21382550.4924                   21382554.9454
 120157137.78747  93629000.37644  22865131.5864                   22865137.8014
 11  7 25  3 48 30.0000000  0  8G12G05G25G29G04G26G02G10
 111788324.699 8                  21272589.320
 106606309.509 8                  20286483.633
 113663689.614 8                  21629461.430
 119895248.478 7                  22815295.352
 130031774.50146 101323480.00443  24744194.6174                   24744201.3284
 127862325.42646  99633121.37243  24331415.9384                   24331424.9574
 112404203.18848  87587734.95346  21389771.7504                   21389776.4144
 120253571.61747  93704143.59644  22883481.7504                   22883488.6524
 11  7 25  3 49  0.0000000  0  8G12G05G25G29G04G26G02G10
 111842523.002 8                  21282902.992
 106614569.579 8                  20288055.227
 113651399.404 8                  21627122.672
 119813027.715 7                  22799648.570
 130111452.47246 101385566.87943  24759355.7114                   24759362.9804
 127764950.08646  99557244.55443  24312885.7974                   24312893.7704
 112442263.89448  87617392.64546  21397014.6884                   21397019.0474
 120350268.61646  93779491.91444  22901882.7734                   22901889.0594
 11  7 25  3 49 30.0000000  0  8G12G05G25G29G04G26G02G10
 111897200.195 8                  21293307.703
 106623389.046 8                  20289733.367
 113639693.194 8                  21624894.672
 119730863.703 7                  22784012.586
 130191074.89546 101447610.36842  24774507.8834                   24774514.7854
 127667535.96446  99481337.49142  24294348.1174                   24294355.9224
 112480436.67948  87647137.67246  21404278.6804                   21404282.7274
 120447226.22847  93855043.28144  22920333.1024                   22920339.6454
 11  7 25  3 50  0.0000000  0  8G12G05G25G29G04G26G02G10
 111952353.481 8                  21303802.930
 106632766.366 8                  20291517.750
 113628571.076 8                  21622778.797
 119648758.178 7                  22768388.977
                                  24789646.7664                   24789656.1564
 127570086.00645  99405402.49143  24275804.0314                   24275812.8794
 112518721.04348  87676969.63446  21411563.9534                   21411568.5354
 120544441.59947  93930795.49844  22938833.3754                   22938839.6294
 11  7 25  3 50 30.0000000  0  8G12G05G25G29G04G26G02G10
 112007981.323 8                  21314388.180
 106642701.072 8                  20293408.539
 113618033.674 8                  21620773.164
 119566712.781 7                  22752776.391
                                  24804777.1804                   24804786.2034
 127472603.89046  99329442.50643  24257253.7814                   24257263.0204
 112557116.93348  87706888.51546  21418870.4694                   21418874.7074
 120641911.78647  94006746.30744  22957380.9454                   22957387.8134
 11  7 25  3 51  0.0000000  0  8G12G05G25G29G04G26G02G10
 112064080.531 8                  21325064.016
 106653191.366 8                  20295404.359
 113608080.203 8                  21618879.023
 119484728.932 7                  22737175.141
 130429605.79246 101633478.51543  24819898.1644                   24819906.0044
 127375092.14146  99253459.37543  24238697.8204                   24238706.3674
 112595623.18248  87736893.38846  21426198.0004                   21426202.2114
 120739633.58547  94082893.15444  22975976.7584                   22975983.8364
 11  7 25  3 51 30.0000000  0  8G12G05G25G29G04G26G02G10
 112120649.236 8                  21335828.508
 106664236.063 8                  20297506.141
 113598710.899 8                  21617096.273
 119402808.092 7                  22721586.008
 130509003.05346 101695346.45543  24835007.4844                   24835015.4844
 127277553.96546  99177455.71644  24220137.7194                   24220145.2584
 112634239.53048  87766984.05546  21433546.3134                   21433550.5824
 120837604.29447  94159233.97744  22994619.7274                   22994626.4414
 11  7 25  3 52  0.0000000  0  8G12G05G25G29G04G26G02G10
 112177685.117 7                  21346682.141
 106675834.625 8                  20299713.273
 113589925.934 8                  21615424.188
 119320952.372 7                  22706009.344
 130588343.64546 101757170.33243  24850106.1724                   24850113.4574
 127179992.81846  99101434.13843  24201570.9064                   24201580.3984
 112672965.69048  87797160.26246  21440916.0704                   21440920.2344
 120935820.87247  94235766.33143  23013309.2894                   23013316.1764
 11  7 25  3 52 30.0000000  0  8G12G05G25G29G04G26G02G10
 112235186.227 8                  21357624.016
 106687986.154 8                  20302025.867
 113581725.550 8                  21613863.516
 119239163.479 7                  22690446.008
 130667627.63846 101818950.01643  24865193.0314                   24865199.9734
 127082412.02947  99025397.24743  24183002.9224                   24183010.9774
 112711801.59048  87827422.00746  21448305.7194                   21448310.1524
 121034280.56246  94312488.12144  23032045.9694                   23032052.6884
 11  7 25  3 53  0.0000000  0  8G12G05G25G29G04G26G02G10
 112293150.181 8                  21368654.398
 106700688.986 8                  20304443.250
 113574109.437 8                  21612414.859
 119157442.730 7                  22674894.813
 130746854.62846 101880685.30043  24880269.3674                   24880276.9804
 126984814.72146  98949347.49843  24164430.5394                   24164438.4774
 112750746.48248  87857768.67746  21455717.0314                   21455720.9774
 121132980.23647  94389396.95144  23050827.9454                   23050834.1804
 11  7 25  3 53 30.0000000  0  8G12G05G25G29G04G26G02G10
 112351574.615 8                  21379772.430
 106713942.750 8                  20306965.156
 113567077.932 8                  21611076.773
 119075792.036 7                  22659357.164
 130826024.84346 101942376.34343  24895335.2664                   24895342.9144
 126887204.39246  98873287.56143  24145856.5554                   24145863.6414
 112789800.29248  87888200.19346  21463148.6804                   21463152.7544
 121231917.81147  94466491.14844  23069655.5394                   23069661.6724
 11  7 25  3 54  0.0000000  0  8G12G05G25G29G04G26G02G10
 112410456.774 8                  21390977.156
 106727745.413 8                  20309591.867
 113560630.442 8                  21609849.445
 118994212.832 7                  22643832.820
 130905137.75446 102004022.72543  24910388.9924                   24910396.5744
 126789584.03946  98797219.81243  24127279.1724                   24127286.4654
 112828962.31548  87918716.05946  21470601.2894                   21470605.1524
 121331090.04347  94543768.26844  23088526.7664                   23088533.5394
 11  7 25  3 54 30.0000000  0  8G12G05G25G29G04G26G02G10
 112469794.888 8                  21402268.750
 106742096.474 8                  20312322.555
 113554767.301 8                  21608733.891
 118912707.325 7                  22628322.898
 130984193.55845 102065624.56842  24925433.4534                   24925440.9144
 126691956.87646  98721146.79243  24108700.3444                   24108709.5354
 112868232.31948  87949316.06746  21478073.8914                   21478078.3754
 121430494.12247  94621225.96444  23107443.5634                   23107449.6214
 11  7 25  3 55  0.0000000  0  8G12G05G25G29G04G26G02G10
 112529586.481 8                  21413647.008
 106756994.872 8                  20315157.359
 113549488.458 8                  21607729.367
 118831277.179 7                  22612827.461
 131063192.44345 102127182.17842  24940465.5394                   24940473.8244
 126594326.62446  98645071.31143  24090123.2974                   24090131.2034
 112907610.04448  87980000.00446  21485567.1484                   21485571.3244
 121530127.46447  94698862.33044  23126402.9614                   23126409.2934
 11  7 25  3 55 30.0000000  0  8G12G05G25G29G04G26G02G10
 112589829.355 8                  21425110.773
 106772439.233 8                  20318096.617
 113544793.882 8                  21606836.063
 118749924.200 7                  22597346.617
 131142134.09245 102188695.09942  24955486.4614                   24955496.5314
 126496696.40346  98568995.94643  24071543.4534                   24071552.4304
 112947095.65948  88010768.01046  21493080.8284                   21493085.2234
 121629986.98847  94776674.92344  23145405.0004                   23145411.7854
 11  7 25  3 56  0.0000000  0  8G12G05G25G29G04G26G02G10
 112650520.839 8                  21436659.898
 106788428.153 8                  20321139.086
 113540683.055 8                  21606053.875
 118668649.734 7                  22581880.125
 131221018.26446 102250163.34042  24970500.5314                   24970506.9884
 126399069.36046  98492923.02943  24052966.5944                   24052974.0744
 112986688.38948  88041619.47546  21500615.1804                   21500619.6684
 121730069.69447  94854661.45344  23164450.6414                   23164456.9184
 11  7 25  3 56 30.0000000  0  8G12G05G25G29G04G26G02G10
 112711658.546 8                  21448293.578
 106804960.593 8                  20324285.336
 113537155.817 8                  21605382.734
 118587455.659 7                  22566429.828
 131299844.96446 102311586.67942  24985500.3134                   24985507.8244
 126301449.05446  98416855.33343  24034390.2504                   24034397.3244
 113026387.72748  88072554.02846  21508169.4384                   21508173.8014
 121830372.82147  94932819.72444  23183537.2344                   23183544.2274
 11  7 25  3 57  0.0000000  0  8G12G05G25G29G04G26G02G10
 112773240.073 8                  21460012.727
 106822035.074 8                  20327534.250
 113534212.017 7                  21604822.266
 118506343.917 7                  22550994.164
 131378613.97846 102372965.11042  25000488.9064                   25000497.0864
 126203838.48146  98340795.23743  24015814.9924                   24015821.8594
 113066193.89848  88103571.84046  21515744.6644                   21515748.7814
 121930893.72847  95011147.67043  23202666.0944                   23202673.1134
 11  7 25  3 57 30.0000000  0  8G12G05G25G29G04G26G02G10
 112835263.095 8                  21471814.734
 106839650.256 8                  20330886.164
 113531851.355 8                  21604373.242
 118425316.226 7                  22535575.086
 131457325.33346 102434298.65742  25015468.2504                   25015475.0554
 126106240.98546  98264745.20042  23997243.3834                   23997249.6724
 113106105.79048  88134672.01446  21523339.3834                   21523343.9694
 122031629.48846  95089643.09343  23221835.5944                   23221841.7154
 11  7 25  3 58  0.0000000  0  8G12G05G25G29G04G26G02G10
 112897725.199 8                  21483701.281
 106857805.399 8                  20334341.273
 113530073.751 8                  21604034.977
 118344374.418 7                  22520172.750
 131535979.22046 102495587.41142  25030434.9534                   25030442.2154
 126008660.31946  98188708.40343  23978673.5474                   23978680.6484
 113146123.49248  88165854.64446  21530954.7814                   21530958.7624
 122132577.47547  95168303.83643  23241045.1334                   23241051.5234
